Date StartTime U_cm/s V_cm/s W_cm/s Ustd_cm/s Vstd_cm/s Wstd_cm/s Uvar_(cm/s)^2 Vvar_(cm/s)^2 Wvar_(cm/s)^2 KE_(m/s)^2 TurbulentKE_(m/s)^2 HorizWindSpeed_cm/s FrictionSpeec_cm/s DragCoef SpeedOfSound_m/s SonicTemperature_C Pressure_mb 
07/04/2014  00:00:00       59.271        3.938        4.858       24.032       29.646       27.607      577.556      878.891      762.136        0.289        0.111       59.402       14.792        0.062      346.179       24.240      862.306
07/04/2014  00:01:00      113.843       66.105       43.951       56.502       45.051       39.480     3192.422     2029.592     1558.686        1.302        0.339      131.644       33.628        0.065      346.139       24.170      862.301
07/04/2014  00:02:00       67.971       10.975       15.869       48.371       52.890       44.356     2339.770     2797.366     1967.491        0.605        0.355       68.851       30.983        0.202      346.221       24.313      862.324
07/04/2014  00:03:00       29.865       39.690       66.529       45.378       73.933       64.594     2059.166     5466.123     4172.413        0.929        0.585       49.671       61.478        1.532      346.328       24.497      862.321
07/04/2014  00:04:00        5.582       13.336       30.076       21.120       30.000       20.378      446.041      900.001      415.276        0.144        0.088       14.457       13.848        0.918      346.230       24.327      862.324
07/04/2014  00:05:00      101.456       23.738       24.385       68.149       50.200       36.666     4644.282     2520.077     1344.428        0.998        0.425      104.196       28.548        0.075      346.263       24.385      862.334
07/04/2014  00:06:00       89.912       28.042       33.742       55.040       39.600       38.092     3029.363     1568.173     1451.011        0.803        0.302       94.183       24.911        0.070      346.166       24.219      862.356
07/04/2014  00:07:00      119.822       65.245       46.780       60.020       52.230       40.733     3602.385     2727.922     1659.199        1.439        0.399      136.434       29.977        0.048      346.179       24.240      862.373
07/04/2014  00:08:00       59.963       37.984       55.185       54.472       50.282       40.125     2967.157     2528.271     1610.035        0.759        0.355       70.981       36.378        0.263      346.059       24.033      862.355
07/04/2014  00:09:00      123.755       90.526       72.043       63.426       59.764       44.924     4022.871     3571.752     2018.162        1.916        0.481      153.331       28.014        0.033      346.158       24.203      862.345
07/04/2014  00:10:00       76.429       36.842       26.901       41.330       42.094       45.531     1708.154     1771.911     2073.067        0.674        0.278       84.845       35.780        0.178      346.212       24.297      862.338
07/04/2014  00:11:00      107.886       25.051        9.956       57.593       45.081       32.699     3316.945     2032.290     1069.254        0.939        0.321      110.756       27.246        0.061      346.093       24.094      862.329
07/04/2014  00:12:00       85.226       40.029       30.803       45.946       45.431       32.884     2111.018     2063.964     1081.374        0.753        0.263       94.158        9.466        0.010      345.978       23.895      862.324
07/04/2014  00:13:00      104.580        1.844       36.962       59.338       41.070       35.576     3521.032     1686.744     1265.681        0.939        0.324      104.596       25.093        0.058      345.997       23.928      862.332
07/04/2014  00:14:00       85.959       11.886       12.867       43.537       30.886       26.663     1895.508      953.936      710.940        0.563        0.178       86.777       20.859        0.058      346.004       23.941      862.324
07/04/2014  00:15:00       14.631      -20.397       11.002       17.053       28.137       18.373      290.808      791.686      337.562        0.109        0.071       25.101       14.570        0.337      345.965       23.873      862.322
07/04/2014  00:16:00       27.780       11.523       19.060       34.895       34.539       12.318     1217.690     1192.914      151.736        0.191        0.128       30.075        9.503        0.100      345.870       23.711      862.311
07/04/2014  00:17:00       81.087       41.839       33.997       41.212       39.824       36.188     1698.429     1585.955     1309.594        0.704        0.230       91.245       27.216        0.089      345.893       23.750      862.281
07/04/2014  00:18:00        9.730       50.816       67.091       34.029       42.169       20.844     1157.998     1778.196      434.469        0.527        0.169       51.739       16.036        0.096      345.848       23.670      862.262
07/04/2014  00:19:00      -20.834      -51.207       -0.755       37.177       36.447       23.268     1382.135     1328.419      541.418        0.315        0.163       55.283       23.370        0.179      345.814       23.614      862.286
07/04/2014  00:20:00      -83.342      -25.845       -5.103       29.487       26.135       12.939      869.456      683.023      167.426        0.468        0.086       87.257        6.959        0.006      345.768       23.536      862.300
07/04/2014  00:21:00      -26.289      -13.297        3.500       30.221       18.186       17.510      913.309      330.725      306.605        0.122        0.078       29.460       19.957        0.459      345.742       23.489      862.274
07/04/2014  00:22:00       50.754       20.180       21.764       26.813       29.912       15.096      718.925      894.726      227.892        0.265        0.092       54.619       13.453        0.061      345.854       23.682      862.241
07/04/2014  00:23:00       75.793        7.601        7.887       32.520       34.738       20.004     1057.544     1206.724      400.153        0.426        0.133       76.173       13.617        0.032      345.897       23.756      862.236
07/04/2014  00:24:00       45.628      -24.522       10.769       56.226       36.938       21.355     3161.312     1364.385      456.045        0.389        0.249       51.799       22.033        0.181      345.996       23.925      862.254
07/04/2014  00:25:00      -15.671      -21.644       -8.132       21.110       23.189       11.740      445.621      537.748      137.824        0.095        0.056       26.721        9.862        0.136      345.879       23.723      862.279
07/04/2014  00:26:00      -43.078       35.141       -6.987       24.884       16.580       11.216      619.194      274.885      125.793        0.208        0.051       55.593       13.891        0.062      345.785       23.562      862.276
07/04/2014  00:27:00       29.471       24.754        6.925       22.608       18.332       13.076      511.110      336.068      170.978        0.127        0.051       38.488        8.019        0.043      345.689       23.397      862.287
07/04/2014  00:28:00        8.201       -6.194       -5.677       12.047       27.516        8.948      145.121      757.132       80.060        0.056        0.049       10.278       11.455        1.242      345.841       23.661      862.299
07/04/2014  00:29:00       53.658      -17.528        9.176       24.647       35.713       22.990      607.473     1275.415      528.530        0.284        0.121       56.449       23.016        0.166      345.964       23.871      862.291
07/04/2014  00:30:00       19.834       -0.983       13.196       27.089       36.528       24.645      733.826     1334.262      607.390        0.162        0.134       19.858       18.523        0.870      345.809       23.606      862.296
07/04/2014  00:31:00       50.147      -21.417       13.952       41.499       36.542       34.900     1722.174     1335.351     1217.993        0.372        0.214       54.529       32.889        0.364      345.800       23.590      862.289
07/04/2014  00:32:00       45.619      -37.089        0.858       38.489       52.737       28.864     1481.396     2781.144      833.134        0.428        0.255       58.794       31.317        0.284      345.711       23.437      862.287
07/04/2014  00:33:00        9.068       16.615       33.068       31.271       32.854       28.699      977.895     1079.379      823.626        0.217        0.144       18.928       28.644        2.290      345.492       23.061      862.274
07/04/2014  00:34:00        0.443       10.229       41.125       21.758       36.129       24.264      473.390     1305.304      588.762        0.208        0.118       10.238       21.800        4.534      345.475       23.031      862.278
07/04/2014  00:35:00       23.624      -40.988       35.100       39.815       48.433       32.457     1585.232     2345.726     1053.469        0.423        0.249       47.309       25.968        0.301      345.713       23.439      862.286
07/04/2014  00:36:00       12.849       45.777       72.064       30.666       74.388       43.057      940.431     5533.553     1853.899        0.789        0.416       47.546       50.041        1.108      345.684       23.392      862.282
07/04/2014  00:37:00       17.581       43.684       65.370       32.696       34.723       21.672     1069.057     1205.693      469.681        0.462        0.137       47.089       18.784        0.159      345.646       23.325      862.262
07/04/2014  00:38:00       51.396      -41.166       16.405       43.083       50.933       32.517     1856.139     2594.172     1057.385        0.506        0.275       65.850       24.456        0.138      345.658       23.347      862.256
07/04/2014  00:39:00       30.579       -4.688       27.409       25.618       39.181       30.534      656.261     1535.156      932.326        0.242        0.156       30.937       27.935        0.815      345.534       23.132      862.272
07/04/2014  00:40:00        4.906      -18.789       17.313       12.343       16.162       10.610      152.350      261.221      112.578        0.060        0.026       19.419        3.806        0.038      345.471       23.026      862.294
07/04/2014  00:41:00       -7.227        1.253        7.951       14.164       13.633       10.003      200.610      185.867      100.052        0.030        0.024        7.334        9.780        1.778      345.444       22.977      862.298
07/04/2014  00:42:00       18.343      -11.789        3.948       12.491       17.386       15.500      156.036      302.285      240.260        0.059        0.035       21.805       13.213        0.367      345.469       23.022      862.286
07/04/2014  00:43:00       21.308       17.978       23.723       20.902       14.346        8.427      436.907      205.812       71.011        0.103        0.036       27.879        6.988        0.063      345.273       22.686      862.279
07/04/2014  00:44:00       50.693       37.515       26.042       14.688       13.563       14.301      215.741      183.942      204.509        0.263        0.030       63.065        4.796        0.006      345.295       22.722      862.282
07/04/2014  00:45:00       83.160       46.490       18.322       25.847       25.906       26.654      668.087      671.099      710.433        0.573        0.102       95.273       11.133        0.014      345.373       22.856      862.281
07/04/2014  00:46:00      100.395       43.088        4.398       22.777       27.423       23.006      518.794      752.030      529.268        0.688        0.090      109.250       10.063        0.008      345.155       22.484      862.279
07/04/2014  00:47:00       59.371       33.919       19.338       28.446       27.937       19.915      809.173      780.480      396.591        0.352        0.099       68.377       11.444        0.028      345.037       22.283      862.303
07/04/2014  00:48:00      100.674       56.926       29.315       19.882       20.042       21.567      395.280      401.674      465.153        0.775        0.063      115.654       13.578        0.014      345.103       22.397      862.303
07/04/2014  00:49:00      104.259       53.162       20.081       28.091       28.900       21.376      789.114      835.207      456.929        0.809        0.104      117.031       10.749        0.008      345.026       22.262      862.301
07/04/2014  00:50:00      104.097       65.882       20.857       37.919       27.758       21.908     1437.870      770.490      479.948        0.915        0.134      123.194       16.542        0.018      345.070       22.337      862.304
07/04/2014  00:51:00      114.913       75.998       23.697       29.293       24.497       23.593      858.088      600.125      556.632        1.078        0.101      137.770       15.472        0.013      345.192       22.547      862.314
07/04/2014  00:52:00      145.577       88.438       42.247       24.124       19.087       23.993      581.968      364.332      575.676        1.616        0.076      170.335       11.383        0.004      345.206       22.570      862.307
07/04/2014  00:53:00      142.234      109.329       58.377       64.009       41.336       43.434     4097.168     1708.640     1886.555        2.164        0.385      179.398       36.568        0.042      345.251       22.646      862.280
07/04/2014  00:54:00      141.307       63.934       31.064       83.939       50.534       51.973     7045.794     2553.713     2701.168        1.866        0.615      155.098       33.771        0.047      345.283       22.700      862.269
07/04/2014  00:55:00      171.509       47.353       27.806       65.441       58.262       44.072     4282.569     3394.510     1942.307        2.102        0.481      177.925       32.193        0.033      345.324       22.771      862.271
07/04/2014  00:56:00      126.068       60.196       38.704       77.025       50.720       38.203     5932.905     2572.525     1459.483        1.549        0.498      139.702       36.138        0.067      345.344       22.806      862.273
07/04/2014  00:57:00       72.812       43.130       41.764       60.918       40.470       40.099     3711.022     1637.836     1607.949        0.793        0.348       84.627       31.169        0.136      345.370       22.851      862.268
07/04/2014  00:58:00       61.819       -5.669       26.589       52.581       56.578       23.422     2764.797     3201.123      548.591        0.554        0.326       62.078       18.417        0.088      345.281       22.699      862.267
07/04/2014  00:59:00       31.386       27.651       37.445       35.893       34.405       18.404     1288.279     1183.689      338.726        0.298        0.141       41.829       10.078        0.058      345.304       22.737      862.274
07/04/2014  01:00:00       46.874       42.179       32.342       35.899       23.606       33.349     1288.720      557.235     1112.155        0.399        0.148       63.057       19.430        0.095      345.156       22.486      862.261
07/04/2014  01:01:00       85.960       29.633       10.128       35.767       30.934       22.821     1279.255      956.942      520.803        0.556        0.138       90.925       12.913        0.020      345.063       22.327      862.249
07/04/2014  01:02:00       69.231       16.609       10.898       48.509       30.796       22.027     2353.158      948.383      485.171        0.449        0.189       71.195       19.913        0.078      345.130       22.441      862.240
07/04/2014  01:03:00       -0.356        9.022        0.963       58.544       31.134       21.630     3427.427      969.300      467.872        0.247        0.243        9.029       15.244        2.850      345.216       22.588      862.257
07/04/2014  01:04:00     -121.612      -72.528       -8.663       49.198       44.680       27.713     2420.398     1996.296      768.007        1.265        0.259      141.597       18.161        0.016      344.895       22.037      862.276
07/04/2014  01:05:00     -121.056     -104.437        8.434       80.282       85.383       39.347     6445.164     7290.308     1548.159        2.046        0.764      159.880       46.654        0.085      345.183       22.529      862.312
07/04/2014  01:06:00      -32.147      -87.908        8.114       55.491       48.746       27.372     3079.229     2376.210      749.200        0.751        0.310       93.602       35.125        0.141      345.460       23.006      862.338
07/04/2014  01:07:00      101.790       84.704       49.208       26.192       29.504       38.361      686.039      870.483     1471.567        1.149        0.151      132.423       19.969        0.023      345.436       22.965      862.279
07/04/2014  01:08:00      116.070       56.019       15.805       18.175       23.647       24.392      330.334      559.195      594.949        0.917        0.074      128.882       10.926        0.007      345.613       23.266      862.231
07/04/2014  01:09:00       43.161      105.301       32.559       73.115       58.446       50.252     5345.843     3415.930     2525.289        1.265        0.564      113.803       45.348        0.159      345.501       23.076      862.198
07/04/2014  01:10:00       12.290      226.547      -35.009       55.560       57.192       32.111     3086.933     3270.967     1031.137        3.004        0.369      226.880       28.993        0.016      345.446       22.977      862.259
07/04/2014  01:11:00      151.621       87.527       18.910       65.768       56.350       53.260     4325.479     3175.319     2836.599        2.067        0.517      175.072       22.529        0.017      345.442       22.971      862.229
07/04/2014  01:12:00       52.627       92.966       94.500       52.697       53.770       35.505     2776.990     2891.222     1260.640        1.363        0.346      106.828       19.559        0.034      345.201       22.562      862.216
07/04/2014  01:13:00       64.030       67.078       74.519       55.840       53.895       54.226     3118.055     2904.717     2940.432        1.156        0.448       92.733       36.885        0.158      345.219       22.594      862.253
07/04/2014  01:14:00       18.564      -26.476        3.057       28.946       24.220       28.723      837.852      586.609      825.013        0.165        0.112       32.336       18.758        0.337      345.228       22.606      862.303
07/04/2014  01:15:00       -0.852       35.954       -3.440       37.045       14.608       18.252     1372.309      213.403      333.119        0.161        0.096       35.964       12.388        0.119      345.268       22.675      862.315
07/04/2014  01:16:00       73.873       48.049        7.612       25.491       25.030       18.555      649.779      626.516      344.271        0.472        0.081       88.125        6.444        0.005      345.268       22.677      862.284
07/04/2014  01:17:00       29.753       -8.022       -0.072       35.293       33.205       18.216     1245.572     1102.593      331.823        0.181        0.134       30.816       17.223        0.312      345.233       22.617      862.310
07/04/2014  01:18:00       -1.576      -10.752       14.014       32.250       16.225       17.978     1040.068      263.238      323.198        0.097        0.081       10.867       10.976        1.020      345.166       22.502      862.336
07/04/2014  01:19:00      -31.938      -58.536        5.744       44.150       33.275       19.532     1949.200     1107.231      381.485        0.396        0.172       66.682       22.591        0.115      345.200       22.560      862.331
07/04/2014  01:20:00      -34.159      -20.386        0.845       34.600       21.643       20.898     1197.183      468.441      436.706        0.184        0.105       39.780       12.967        0.106      345.158       22.487      862.325
07/04/2014  01:21:00      -27.857      -26.873        3.513       16.329       15.656       14.168      266.638      245.098      200.743        0.111        0.036       38.706        7.577        0.038      345.252       22.649      862.313
07/04/2014  01:22:00        4.889      -39.005        6.317       18.848       17.533       24.144      355.260      307.408      582.941        0.142        0.062       39.311        9.274        0.056      345.244       22.636      862.303
07/04/2014  01:23:00      -92.511      -53.529       -1.337       42.906       37.446       23.551     1840.889     1402.172      554.658        0.761        0.190      106.881       13.321        0.016      345.241       22.630      862.310
07/04/2014  01:24:00      -69.865     -100.697        3.354       42.153       43.957       26.346     1776.900     1932.197      694.094        0.972        0.220      122.560       23.074        0.035      345.157       22.485      862.303
07/04/2014  01:25:00      -79.598      -67.397        5.776       59.371       47.622       26.066     3524.942     2267.887      679.418        0.869        0.324      104.299       28.904        0.077      345.075       22.346      862.295
07/04/2014  01:26:00      -99.924     -115.286        0.542       72.456       65.227       37.559     5249.869     4254.498     1410.687        1.709        0.546      152.564       31.773        0.043      345.091       22.372      862.297
07/04/2014  01:27:00      -53.958     -115.539       -6.309       54.047       40.892       31.455     2921.049     1672.149      989.402        1.094        0.279      127.518       19.926        0.024      345.078       22.352      862.294
07/04/2014  01:28:00        9.547      -71.808       -6.388       52.971       39.404       21.744     2805.884     1552.646      472.803        0.506        0.242       72.440       12.385        0.029      345.169       22.506      862.296
07/04/2014  01:29:00     -108.793     -128.310       -5.310       76.359       60.201       35.083     5830.691     3624.193     1230.793        1.950        0.534      168.224       36.417        0.047      345.089       22.369      862.316
07/04/2014  01:30:00      -39.661      -16.743       16.299       58.707       45.167       30.712     3446.564     2040.072      943.206        0.427        0.321       43.050       38.029        0.780      345.019       22.251      862.289
07/04/2014  01:31:00      -10.544       26.855       28.317       19.279       30.841       20.503      371.697      951.159      420.368        0.169        0.087       28.851       16.618        0.332      344.975       22.175      862.258
07/04/2014  01:32:00      -53.108      -19.736       -7.806       18.577       18.865       13.646      345.101      355.889      186.209        0.208        0.044       56.656        6.303        0.012      345.050       22.306      862.281
07/04/2014  01:33:00      -17.762      -75.161        2.457       38.783       42.213       23.375     1504.126     1781.953      546.413        0.490        0.192       77.231       30.225        0.153      345.043       22.293      862.280
07/04/2014  01:34:00      -35.312      -78.441       -3.368       33.726       41.322       23.085     1137.455     1707.509      532.928        0.539        0.169       86.023       17.735        0.043      345.061       22.325      862.277
07/04/2014  01:35:00      -15.840      -27.068       -0.936       37.605       20.719       15.635     1414.167      429.277      244.466        0.154        0.104       31.362        3.269        0.011      344.970       22.166      862.282
07/04/2014  01:36:00        3.930       -2.490      -11.522       19.493       13.495       14.300      379.990      182.110      204.487        0.046        0.038        4.653       13.430        8.331      344.913       22.068      862.296
07/04/2014  01:37:00      -14.068       50.187       -9.810       27.709       30.185       13.626      767.813      911.157      185.681        0.234        0.093       52.121       12.538        0.058      344.892       22.034      862.304
07/04/2014  01:38:00      -84.724      -27.080       -3.871       31.008       37.949       19.339      961.520     1440.107      373.984        0.535        0.139       88.946       17.969        0.041      344.868       21.992      862.327
07/04/2014  01:39:00      -47.446      -45.731        0.772       47.204       21.759       18.920     2228.193      473.433      357.977        0.370        0.153       65.897       20.358        0.095      344.811       21.895      862.347
07/04/2014  01:40:00        5.867      -15.177       13.578       23.995       44.754       33.639      575.746     2002.950     1131.554        0.208        0.186       16.272       35.081        4.648      344.772       21.829      862.341
07/04/2014  01:41:00      -38.287        2.290        3.726       24.396       17.472       15.764      595.152      305.269      248.498        0.132        0.057       38.355        7.513        0.038      344.790       21.859      862.366
07/04/2014  01:42:00      -31.520      -80.630        3.991       30.305       60.917       14.200      918.413     3710.872      201.627        0.617        0.242       86.572       16.348        0.036      344.879       22.012      862.381
07/04/2014  01:43:00      -15.615      -83.255        0.908       34.959       40.504       20.241     1222.120     1640.546      409.684        0.522        0.164       84.706       16.857        0.040      344.859       21.976      862.368
07/04/2014  01:44:00        2.406       -0.806       -0.735       20.840       12.344       13.784      434.289      152.380      190.001        0.039        0.039        2.537        8.393       10.943      344.722       21.743      862.372
07/04/2014  01:45:00      -67.399      -17.800       -4.518       60.630       29.859       16.927     3676.019      891.563      286.524        0.487        0.243       69.710        7.371        0.011      344.730       21.755      862.397
07/04/2014  01:46:00      -79.949      -20.993        7.779       53.805       34.022       19.662     2894.932     1157.469      386.606        0.567        0.222       82.659       24.861        0.090      344.501       21.364      862.410
07/04/2014  01:47:00       -8.210      -14.863        3.568       17.638       23.736       16.485      311.108      563.419      271.772        0.072        0.057       16.980        9.429        0.308      344.705       21.712      862.391
07/04/2014  01:48:00      -74.806        9.876        5.247       24.220       10.874       13.627      586.597      118.247      185.694        0.331        0.045       75.455        9.030        0.014      344.781       21.845      862.400
07/04/2014  01:49:00     -118.870       14.358      -12.423       28.886       25.153       16.213      834.417      632.671      262.874        0.811        0.086      119.734       13.446        0.013      344.578       21.496      862.427
07/04/2014  01:50:00      -25.079        6.002        5.446       46.434       18.442       16.314     2156.144      340.103      266.147        0.173        0.138       25.787       23.674        0.843      344.356       21.118      862.403
07/04/2014  01:51:00       81.959       49.486       20.470       28.171       22.771       21.453      793.614      518.532      460.215        0.568        0.089       95.740       12.661        0.017      344.462       21.298      862.329
07/04/2014  01:52:00       13.904       -9.533        0.781       36.334       18.616       19.789     1320.141      346.568      391.599        0.117        0.103       16.858       11.487        0.464      344.377       21.151      862.340
07/04/2014  01:53:00      -38.709       -0.120       -7.184       21.993       12.434        9.354      483.701      154.608       87.502        0.114        0.036       38.709        9.467        0.060      344.464       21.301      862.394
07/04/2014  01:54:00       -6.849       -8.162       -8.987       22.961        7.849        4.570      527.212       61.611       20.887        0.040        0.030       10.655        4.908        0.212      344.610       21.552      862.415
07/04/2014  01:55:00        4.733        8.123        3.920        5.551        6.328        5.963       30.818       40.050       35.560        0.011        0.005        9.401        4.834        0.264      344.631       21.587      862.413
07/04/2014  01:56:00       24.471       23.620        9.304       18.736       13.364        7.200      351.025      178.603       51.839        0.091        0.029       34.010        4.132        0.015      344.467       21.306      862.412
07/04/2014  01:57:00       77.046       56.931       20.744        7.121       18.581        9.646       50.714      345.270       93.050        0.505        0.024       95.798        7.592        0.006      344.629       21.585      862.402
07/04/2014  01:58:00       32.564       46.403       -8.892       23.337       17.196       10.426      544.629      295.686      108.696        0.212        0.047       56.689       10.268        0.033      344.701       21.706      862.417
07/04/2014  01:59:00        2.907        0.990       -2.839        9.667       21.959        8.674       93.453      482.182       75.245        0.033        0.033        3.071        8.654        7.943      344.494       21.353      862.433
07/04/2014  02:00:00        7.440      -22.902        2.761       15.695       17.270        9.577      246.325      298.260       91.725        0.061        0.032       24.080        8.986        0.139      344.341       21.091      862.429
07/04/2014  02:01:00       19.363        4.577       -0.107        7.930        6.215        7.988       62.879       38.630       63.814        0.028        0.008       19.897        4.179        0.044      344.353       21.111      862.415
07/04/2014  02:02:00        6.736      -18.609       -3.883        9.168       11.583        3.365       84.059      134.161       11.327        0.032        0.011       19.790        1.741        0.008      344.485       21.340      862.435
07/04/2014  02:03:00      -19.660      -29.755       -4.739        8.822        8.298       10.170       77.824       68.850      103.424        0.077        0.013       35.663        3.070        0.007      344.603       21.538      862.450
07/04/2014  02:04:00       35.140        3.801        7.708       25.472       24.703       11.697      648.834      610.260      136.819        0.135        0.070       35.345       17.492        0.245      344.596       21.529      862.437
07/04/2014  02:05:00       60.855       55.384       20.757       41.263       23.605       18.234     1702.623      557.192      332.462        0.490        0.130       82.285       14.496        0.031      344.416       21.220      862.406
07/04/2014  02:06:00       33.198      -26.705       18.560       40.284       54.738       26.098     1622.819     2996.225      681.129        0.373        0.265       42.606       35.708        0.702      344.255       20.945      862.411
07/04/2014  02:07:00       85.781     -122.606      -22.406       34.595       40.279       23.858     1196.836     1622.428      569.191        1.314        0.169      149.635       16.465        0.012      344.562       21.469      862.434
07/04/2014  02:08:00      -18.958      -67.997      -20.289       40.413       38.322       21.748     1633.208     1468.582      472.990        0.448        0.179       70.590       15.632        0.049      344.585       21.509      862.446
07/04/2014  02:09:00       23.661      -88.080       -8.210       38.365       37.901       26.706     1471.866     1436.470      713.208        0.600        0.181       91.203       21.516        0.056      344.644       21.608      862.449
07/04/2014  02:10:00       26.524      -57.516       -4.983       32.583       46.122       24.661     1061.646     2127.278      608.146        0.392        0.190       63.337       20.135        0.101      344.639       21.600      862.448
07/04/2014  02:11:00      -22.158       10.816        8.840       19.386       12.496       11.810      375.819      156.156      139.475        0.068        0.034       24.657       12.673        0.264      344.387       21.169      862.452
07/04/2014  02:12:00      -32.387       12.476       -3.107       22.870       15.090       11.851      523.019      227.702      140.442        0.105        0.045       34.707        5.260        0.023      344.410       21.210      862.480
07/04/2014  02:13:00       26.340       19.838        2.256       15.469       15.362        7.779      239.279      235.990       60.509        0.081        0.027       32.975        8.632        0.069      344.381       21.160      862.488
07/04/2014  02:14:00       41.692        7.112       17.315       20.854       38.681       15.300      434.910     1496.206      234.079        0.213        0.108       42.294       16.920        0.160      344.428       21.241      862.481
07/04/2014  02:15:00       -9.488      -28.011      -14.883       17.237       15.635        8.163      297.128      244.442       66.629        0.085        0.030       29.574        5.823        0.039      344.259       20.950      862.477
07/04/2014  02:16:00      -13.442        6.130       -3.748        9.893        7.821        4.738       97.870       61.164       22.447        0.021        0.009       14.774        2.531        0.029      344.341       21.091      862.476
07/04/2014  02:17:00      -41.643       22.291       -2.068       16.392       12.351        8.700      268.684      152.552       75.681        0.137        0.025       47.234        6.212        0.017      344.212       20.871      862.480
07/04/2014  02:18:00      -45.177       14.615       -2.107       36.659       11.718       12.595     1343.881      137.317      158.638        0.195        0.082       47.482       16.373        0.119      344.088       20.659      862.496
07/04/2014  02:19:00       56.783       53.939       15.696       21.870       15.493       18.188      478.288      240.031      330.795        0.371        0.052       78.318       15.302        0.038      344.277       20.981      862.484
07/04/2014  02:20:00       14.861       32.830       29.904       29.964       26.659       24.023      897.865      710.700      577.110        0.219        0.109       36.037       21.891        0.369      344.139       20.745      862.489
07/04/2014  02:21:00      -12.786       -7.096        0.909       11.502       14.463       10.775      132.304      209.167      116.111        0.034        0.023       14.623        6.588        0.203      344.044       20.584      862.528
07/04/2014  02:22:00       -3.846       16.175        7.502        5.747       11.781       10.393       33.029      138.797      108.015        0.031        0.014       16.626        6.297        0.143      344.082       20.649      862.543
07/04/2014  02:23:00       25.383       17.534       16.833        6.818        8.265       11.511       46.484       68.316      132.495        0.074        0.012       30.850        6.203        0.040      343.980       20.476      862.559
07/04/2014  02:24:00        2.012       -6.502       -4.565        7.550        9.907        7.579       57.000       98.145       57.441        0.014        0.011        6.806        5.866        0.743      343.996       20.503      862.567
07/04/2014  02:25:00       17.411       -1.796       10.176       28.374       30.141       20.324      805.066      908.458      413.066        0.127        0.106       17.504       12.148        0.482      344.111       20.698      862.564
07/04/2014  02:26:00        2.529       14.940        7.832       22.432       16.132       13.135      503.174      260.231      172.528        0.061        0.047       15.152       13.045        0.741      343.871       20.288      862.557
07/04/2014  02:27:00      -14.707      -46.904       28.651       26.852       28.486       21.544      721.015      811.439      464.128        0.262        0.100       49.156        5.088        0.011      344.133       20.736      862.570
07/04/2014  02:28:00       47.004       -1.642       -1.220       19.553       25.929       12.378      382.321      672.326      153.210        0.171        0.060       47.032       12.382        0.069      344.016       20.536      862.562
07/04/2014  02:29:00       46.015      -51.754       11.970       35.242       36.125       27.358     1242.032     1305.042      748.487        0.412        0.165       69.252       23.627        0.116      344.249       20.935      862.554
07/04/2014  02:30:00      -21.098      -57.971       -9.746       62.987       25.084       15.635     3967.312      629.207      244.469        0.437        0.242       61.691       17.752        0.083      344.315       21.047      862.561
07/04/2014  02:31:00      -42.748     -102.043        2.074       31.685       27.487       23.885     1003.926      755.519      570.508        0.729        0.116      110.635       14.347        0.017      344.376       21.152      862.551
07/04/2014  02:32:00      -56.943      -83.993       -7.671       52.777       64.175       27.531     2785.391     4118.452      757.981        0.901        0.383      101.476       21.478        0.045      344.298       21.016      862.538
07/04/2014  02:33:00     -100.327      -64.951       -3.551       30.021       27.651       17.529      901.246      764.557      307.250        0.813        0.099      119.516       15.492        0.017      344.237       20.915      862.539
07/04/2014  02:34:00      -80.180      -48.718        2.598       40.694       19.216       13.004     1655.990      369.238      169.095        0.550        0.110       93.820       13.724        0.021      344.051       20.596      862.541
07/04/2014  02:35:00      -25.247      -73.014        4.617       30.239       40.621       17.019      914.405     1650.068      289.648        0.442        0.143       77.256       20.377        0.070      344.095       20.671      862.528
07/04/2014  02:36:00      -51.847     -118.160      -10.950       19.942       44.387       14.861      397.690     1970.203      220.859        0.968        0.129      129.034       11.834        0.008      344.278       20.982      862.529
07/04/2014  02:37:00      -70.895      -49.180       -1.264       28.642       24.233       15.105      820.363      587.252      228.165        0.454        0.082       86.283       13.285        0.024      344.171       20.800      862.531
07/04/2014  02:38:00       -3.209      -41.926       -5.790       26.579       19.238       13.407      706.432      370.104      179.759        0.153        0.063       42.048       11.476        0.074      344.162       20.785      862.521
07/04/2014  02:39:00      -19.146      -33.363       -1.938       31.669       11.047       12.057     1002.951      122.039      145.366        0.138        0.064       38.466       12.115        0.099      344.228       20.897      862.509
07/04/2014  02:40:00      -42.899      -36.255        0.374       28.227       16.213        9.838      796.761      262.868       96.779        0.216        0.058       56.168        9.697        0.030      343.918       20.368      862.516
07/04/2014  02:41:00      -22.683      -96.014       -5.151       16.765       28.365       13.417      281.062      804.570      180.009        0.551        0.063       98.657       11.979        0.015      344.253       20.939      862.524
07/04/2014  02:42:00      -29.470      -36.585        3.376       28.283       28.286       14.908      799.956      800.090      222.243        0.202        0.091       46.978       12.960        0.076      344.094       20.669      862.522
07/04/2014  02:43:00      -31.754      -26.285        3.002       20.219       17.036       13.148      408.810      290.241      172.863        0.129        0.044       41.221       12.182        0.087      343.981       20.477      862.533
07/04/2014  02:44:00      -33.624       -2.002       -1.655       18.445       17.836       10.472      340.211      318.123      109.661        0.095        0.038       33.683        9.933        0.087      343.743       20.068      862.557
07/04/2014  02:45:00      -50.150       -0.633        3.405       24.274       17.790       12.548      589.248      316.490      157.464        0.179        0.053       50.154       11.159        0.050      343.514       19.680      862.577
07/04/2014  02:46:00      -10.578      -21.065        1.667       18.104       12.035        8.969      327.765      144.841       80.442        0.056        0.028       23.572        5.539        0.055      343.636       19.886      862.584
07/04/2014  02:47:00       -4.390       -7.113        0.408       11.655       13.469        9.148      135.848      181.408       83.685        0.024        0.020        8.359        8.225        0.968      343.816       20.196      862.580
07/04/2014  02:48:00       14.946       23.190       -7.324        9.825        7.984        8.814       96.536       63.737       77.682        0.053        0.012       27.589        2.088        0.006      343.876       20.297      862.585
07/04/2014  02:49:00       -8.666        1.412       -4.519       10.112       10.798        6.378      102.260      116.593       40.682        0.018        0.013        8.780        6.026        0.471      343.795       20.157      862.602
07/04/2014  02:50:00      -11.640       15.917       -3.277       14.725       13.301       10.043      216.817      176.927      100.865        0.045        0.025       19.719        9.520        0.233      343.808       20.181      862.603
07/04/2014  02:51:00        6.813       35.365       -0.945        7.964        8.729        5.330       63.422       76.204       28.406        0.073        0.008       36.015        4.207        0.014      343.792       20.155      862.590
07/04/2014  02:52:00      -11.805       41.498       -7.415       15.692        6.805        4.691      246.243       46.303       22.005        0.112        0.016       43.145        4.150        0.009      343.815       20.193      862.598
07/04/2014  02:53:00      -10.181       50.261      -14.072       14.531        7.858        4.987      211.156       61.756       24.873        0.156        0.015       51.282        3.249        0.004      344.019       20.544      862.604
07/04/2014  02:54:00        8.974       35.643       -7.320        9.651        8.552        7.403       93.137       73.139       54.804        0.081        0.011       36.755        6.259        0.029      344.072       20.632      862.597
07/04/2014  02:55:00        4.325       26.996       -5.255        7.567        8.883        3.539       57.257       78.906       12.525        0.046        0.007       27.340        1.503        0.003      344.037       20.574      862.589
07/04/2014  02:56:00       10.984       -0.231       -2.153        4.534        7.510        4.571       20.561       56.396       20.892        0.011        0.005       10.986        4.176        0.144      343.980       20.473      862.586
07/04/2014  02:57:00       11.805       -4.228        3.602        4.449        3.889        3.756       19.798       15.125       14.105        0.011        0.002       12.539        1.968        0.025      343.840       20.235      862.579
07/04/2014  02:58:00       16.000       12.108        1.594        7.931       10.094        4.513       62.908      101.885       20.371        0.030        0.009       20.065        4.150        0.043      343.949       20.423      862.572
07/04/2014  02:59:00       -7.708        5.547       -0.770       10.688        7.249        3.611      114.238       52.548       13.041        0.014        0.009        9.497        3.507        0.136      344.081       20.647      862.571
07/04/2014  03:00:00      -59.938      -10.497      -11.373       17.378        7.989        8.001      302.012       63.829       64.020        0.213        0.021       60.851        6.181        0.010      343.678       19.960      862.580
07/04/2014  03:01:00      -68.394      -14.098       -7.463       13.439       10.539        7.040      180.612      111.065       49.566        0.264        0.017       69.832        1.989        0.001      343.258       19.242      862.586
07/04/2014  03:02:00      -71.987       -9.367       -7.972       16.944       12.758       13.792      287.112      162.769      190.207        0.299        0.032       72.593        9.665        0.018      343.179       19.110      862.582
07/04/2014  03:03:00      -54.943      -22.140       -2.264       20.834       10.389        9.271      434.070      107.935       85.951        0.207        0.031       59.236        9.322        0.025      343.250       19.229      862.576
07/04/2014  03:04:00      -83.440      -25.296       -7.054        8.987       10.426        5.684       80.769      108.700       32.311        0.394        0.011       87.190        3.213        0.001      343.316       19.341      862.567
07/04/2014  03:05:00      -58.129        1.159       -3.810        9.588        6.232        6.146       91.933       38.832       37.772        0.178        0.008       58.140        3.434        0.003      343.237       19.208      862.545
07/04/2014  03:06:00      -41.720       -7.407       -7.586        6.217       10.706        4.257       38.645      114.610       18.118        0.101        0.009       42.372        1.727        0.002      343.463       19.592      862.538
07/04/2014  03:07:00      -54.860      -15.244       -6.711       12.944        9.043        6.374      167.551       81.784       40.622        0.179        0.014       56.939        4.199        0.005      343.690       19.980      862.535
07/04/2014  03:08:00      -62.074       -6.962       -7.539       11.636        8.687        8.209      135.387       75.470       67.389        0.212        0.014       62.463        5.318        0.007      343.268       19.259      862.538
07/04/2014  03:09:00      -50.596       -1.212       -4.417        6.324        7.780        5.312       39.987       60.533       28.220        0.135        0.006       50.611        3.046        0.004      343.190       19.126      862.540
07/04/2014  03:10:00      -64.525      -12.129      -12.387       10.986       11.812        5.756      120.698      139.517       33.131        0.238        0.015       65.655        0.949        0.000      343.124       19.014      862.547
07/04/2014  03:11:00      -79.177       -1.631       -9.502       19.780       14.995       12.847      391.248      224.847      165.036        0.357        0.039       79.194       12.218        0.024      342.964       18.743      862.563
07/04/2014  03:12:00      -67.071        6.369      -11.758       23.109       17.615       15.064      534.032      310.296      226.915        0.287        0.054       67.373       13.419        0.040      342.868       18.579      862.563
07/04/2014  03:13:00      -32.953       -6.926       -8.457       10.091       14.056        8.609      101.830      197.559       74.112        0.079        0.019       33.673        7.756        0.053      342.964       18.743      862.546
07/04/2014  03:14:00      -56.657      -29.661       -9.219       13.481        9.897        9.721      181.733       97.954       94.504        0.227        0.019       63.951        3.664        0.003      342.945       18.710      862.538
07/04/2014  03:15:00     -101.747      -42.598       -6.720       26.385       21.363       14.675      696.163      456.369      215.356        0.679        0.068      110.304        8.428        0.006      342.817       18.493      862.544
07/04/2014  03:16:00      -81.474      -26.142      -15.887       24.306       27.419       17.766      590.765      751.820      315.613        0.462        0.083       85.565       13.941        0.027      342.753       18.383      862.539
07/04/2014  03:17:00      -74.784      -48.341      -12.951       34.670       26.810       21.220     1201.987      718.764      450.280        0.523        0.119       89.048       19.533        0.048      342.651       18.209      862.532
07/04/2014  03:18:00      -95.053      -24.595      -21.776       20.145       30.088       14.175      405.829      905.297      200.932        0.581        0.076       98.183       11.074        0.013      342.628       18.169      862.523
07/04/2014  03:19:00      -94.469      -40.241      -18.546       12.561       15.518       12.075      157.781      240.795      145.801        0.572        0.027      102.683        6.376        0.004      342.562       18.058      862.533
07/04/2014  03:20:00      -84.580      -31.527       -8.172       16.812       19.791       12.447      282.627      391.688      154.938        0.452        0.041       90.264       10.716        0.014      342.627       18.171      862.537
07/04/2014  03:21:00      -59.224      -22.709      -16.200       14.303       15.491       14.323      204.586      239.986      205.157        0.247        0.032       63.429        9.697        0.023      342.821       18.500      862.534
07/04/2014  03:22:00        4.761      -13.204        7.283       34.235       14.289       11.374     1172.008      204.166      129.359        0.088        0.075       14.036        9.919        0.499      342.831       18.517      862.530
07/04/2014  03:23:00        8.908      -12.692        6.223       12.839       16.823       10.882      164.834      283.027      118.417        0.042        0.028       15.506        8.130        0.275      342.772       18.414      862.524
07/04/2014  03:24:00       -0.252      -13.170        1.646       11.956       17.939        9.437      142.946      321.796       89.066        0.036        0.028       13.172       10.006        0.577      342.853       18.555      862.530
07/04/2014  03:25:00      -36.501      -15.904       -2.530       12.477       13.192       10.885      155.684      174.018      118.485        0.102        0.022       39.815        5.229        0.017      342.768       18.407      862.539
07/04/2014  03:26:00      -58.156      -16.831       -7.261       15.900       15.051        9.381      252.799      226.539       87.995        0.214        0.028       60.543        6.628        0.012      342.752       18.383      862.538
07/04/2014  03:27:00     -101.787      -43.466      -17.356       16.129       17.162       15.507      260.133      294.540      240.478        0.667        0.040      110.679        6.329        0.003      342.584       18.096      862.546
07/04/2014  03:28:00      -88.547      -50.786       -8.637       26.080       34.655       19.487      680.182     1200.945      379.727        0.638        0.113      102.078       15.365        0.023      342.501       17.956      862.544
07/04/2014  03:29:00      -67.678        9.621       -8.523       22.506       18.718       16.797      506.500      350.369      282.156        0.294        0.057       68.359       11.503        0.028      342.582       18.093      862.523
07/04/2014  03:30:00      -50.881       10.696      -11.622       10.368       18.211       11.680      107.501      331.650      136.425        0.171        0.029       51.993       11.940        0.053      342.786       18.440      862.517
07/04/2014  03:31:00      -39.422      -21.794       -5.992       14.383       17.522       14.844      206.877      307.017      220.341        0.140        0.037       45.045        4.732        0.011      342.739       18.360      862.519
07/04/2014  03:32:00      -50.150      -36.041       -6.402       14.544       14.559        8.685      211.533      211.952       75.429        0.218        0.025       61.757        5.994        0.009      342.687       18.273      862.512
07/04/2014  03:33:00      -17.095      -34.411       -1.782       31.317       10.740       16.168      980.752      115.341      261.401        0.142        0.068       38.424       16.918        0.194      342.732       18.348      862.523
07/04/2014  03:34:00       -9.887      -28.267      -14.459       16.879       13.097       11.527      284.908      171.519      132.880        0.085        0.029       29.947        7.241        0.058      342.844       18.536      862.531
07/04/2014  03:35:00      -34.781      -14.061        0.109       41.410       12.209       10.720     1714.754      149.059      114.914        0.169        0.099       37.516       11.630        0.096      342.699       18.290      862.533
07/04/2014  03:36:00      -68.184      -15.402       -5.178       11.103       13.440       12.427      123.279      180.633      154.423        0.269        0.023       69.901        4.940        0.005      342.671       18.244      862.542
07/04/2014  03:37:00      -77.158       -3.895      -11.776       24.751       11.665       10.087      612.596      136.062      101.753        0.348        0.043       77.256       11.561        0.022      342.580       18.088      862.536
07/04/2014  03:38:00      -52.699       13.842        0.046       20.280        8.940        7.888      411.275       79.926       62.219        0.176        0.028       54.486        9.544        0.031      342.689       18.273      862.530
07/04/2014  03:39:00      -27.086       -0.887        1.692       13.320       14.937        9.270      177.423      223.111       85.940        0.061        0.024       27.101        9.491        0.123      342.823       18.504      862.529
07/04/2014  03:40:00      -55.241      -13.442       -9.586        9.256       10.729        8.793       85.671      115.113       77.308        0.180        0.014       56.853        6.141        0.012      342.708       18.307      862.539
07/04/2014  03:41:00      -77.070      -11.097      -14.241       12.370       11.303        6.491      153.023      127.747       42.130        0.329        0.016       77.865        3.134        0.002      342.619       18.155      862.550
07/04/2014  03:42:00      -63.275       -1.392       -8.807       18.648       16.949       12.139      347.740      287.277      147.350        0.243        0.039       63.290        9.658        0.023      342.674       18.249      862.564
07/04/2014  03:43:00      -52.219       -5.229       -4.603       12.741       20.966       12.305      162.330      439.555      151.407        0.176        0.038       52.480       10.593        0.041      342.744       18.367      862.554
07/04/2014  03:44:00      -58.974       11.057       -7.453       13.143       13.011        9.895      172.739      169.278       97.912        0.205        0.022       60.001        6.011        0.010      342.836       18.524      862.554
07/04/2014  03:45:00      -46.148       29.797       -8.646        9.957       18.537        8.017       99.133      343.604       64.272        0.180        0.025       54.932        6.744        0.015      343.038       18.867      862.556
07/04/2014  03:46:00      -24.572       45.669       -6.958       21.118       20.488       12.871      445.986      419.753      165.663        0.188        0.052       51.859       12.993        0.063      343.297       19.309      862.540
07/04/2014  03:47:00        0.772       56.948       -0.936       17.528       22.191       11.798      307.238      492.451      139.197        0.209        0.047       56.953       10.002        0.031      343.411       19.502      862.529
07/04/2014  03:48:00       10.515       66.977       -1.787       22.587       18.922       17.167      510.169      358.040      294.710        0.288        0.058       67.798       14.709        0.047      343.653       19.917      862.535
07/04/2014  03:49:00       -0.005       59.695       -4.470       23.042       26.400       13.250      530.920      696.972      175.562        0.249        0.070       59.695       11.561        0.038      343.695       19.990      862.527
07/04/2014  03:50:00      -24.109        9.509       -0.284       37.098       21.496       16.709     1376.249      462.061      279.201        0.139        0.106       25.916       14.263        0.303      343.233       19.200      862.525
07/04/2014  03:51:00     -165.485       -1.698      -14.087       56.118       30.405       29.731     3149.193      924.481      883.956        1.627        0.248      165.493       24.854        0.023      342.654       18.215      862.537
07/04/2014  03:52:00     -193.324      -29.745      -22.354       49.010       41.534       31.363     2401.977     1725.053      983.612        2.193        0.256      195.599       20.078        0.011      342.587       18.100      862.539
07/04/2014  03:53:00     -153.767      -35.901      -15.257       55.154       36.011       23.108     3041.977     1296.816      533.957        1.502        0.244      157.902       19.455        0.015      342.828       18.509      862.550
07/04/2014  03:54:00     -124.131       37.176      -15.191       30.367       52.471       20.116      922.140     2753.251      404.644        1.055        0.204      129.578       20.531        0.025      343.473       19.610      862.553
07/04/2014  03:55:00     -101.085       59.361      -21.682       32.972       47.912       18.528     1087.134     2295.588      343.294        0.897        0.186      117.226       22.933        0.038      343.932       20.393      862.550
07/04/2014  03:56:00      -36.043       34.285      -12.792       26.665       32.019       16.112      711.014     1025.211      259.585        0.232        0.100       49.745       15.578        0.098      343.872       20.289      862.535
07/04/2014  03:57:00        7.786       30.870       12.068       18.905       22.795       22.071      357.409      519.592      487.121        0.126        0.068       31.837       16.502        0.269      343.273       19.268      862.548
07/04/2014  03:58:00      -47.058       -8.758       -0.850       39.520       24.211       12.886     1561.837      586.155      166.052        0.230        0.116       47.866       13.568        0.080      343.309       19.331      862.546
07/04/2014  03:59:00     -129.042      -36.637       -5.555       22.630       23.918       16.583      512.122      572.084      275.012        0.969        0.068      134.142        9.254        0.005      342.774       18.418      862.541
07/04/2014  04:00:00     -102.142      -30.289        6.213       55.115       38.901       27.779     3037.717     1513.301      771.666        0.835        0.266      106.538       25.514        0.057      342.752       18.381      862.552
07/04/2014  04:01:00      -90.397       -2.776       -9.269       36.348       25.251       18.968     1321.205      637.610      359.784        0.529        0.116       90.440       21.366        0.056      342.721       18.330      862.560
07/04/2014  04:02:00      -75.229       16.298       -2.357       30.593       14.685       10.552      935.903      215.655      111.345        0.360        0.063       76.974       12.704        0.027      343.002       18.807      862.559
07/04/2014  04:03:00       -9.163       23.207       10.670        9.763       14.087       13.853       95.323      198.445      191.893        0.061        0.024       24.950        2.745        0.012      342.790       18.446      862.550
07/04/2014  04:04:00        8.164        6.719        7.449       16.060       13.855       11.942      257.910      191.958      142.613        0.038        0.030       10.573       13.525        1.636      343.051       18.891      862.544
07/04/2014  04:05:00        1.358       -3.456        0.797       13.075        8.062        9.570      170.956       64.994       91.585        0.017        0.016        3.714        7.495        4.074      342.944       18.710      862.538
07/04/2014  04:06:00      -24.610      -17.419        1.317       11.092       14.271        7.067      123.029      203.674       49.943        0.064        0.019       30.151        3.264        0.012      343.170       19.093      862.549
07/04/2014  04:07:00      -63.633      -41.418        2.824       29.743       27.613       19.507      884.636      762.467      380.541        0.390        0.101       75.925        5.632        0.006      342.833       18.519      862.565
07/04/2014  04:08:00     -112.759      -81.859        0.861       49.654       34.381       21.836     2465.471     1182.058      476.810        1.177        0.206      139.339       17.101        0.015      342.779       18.428      862.563
07/04/2014  04:09:00      -85.815      -56.355        8.836       62.779       31.573       22.681     3941.140      996.852      514.412        0.803        0.273      102.665       27.348        0.071      342.791       18.447      862.553
07/04/2014  04:10:00      -85.124      -94.089        0.867       57.904       39.827       27.913     3352.925     1586.166      779.143        1.091        0.286      126.881       25.541        0.041      342.802       18.467      862.552
07/04/2014  04:11:00     -120.817      -80.312       -4.706       30.334       25.109       17.980      920.173      630.474      323.276        1.147        0.094      145.075       13.360        0.008      342.766       18.407      862.552
07/04/2014  04:12:00      -76.395      -27.997        0.998       31.984       27.660       19.273     1022.965      765.077      371.449        0.439        0.108       81.364       18.205        0.050      342.675       18.250      862.529
07/04/2014  04:13:00      -51.825      -24.358       -4.177       13.643       12.476       14.180      186.119      155.642      201.080        0.192        0.027       57.264        8.660        0.023      342.716       18.321      862.506
07/04/2014  04:14:00      -74.717       -8.097      -10.449       11.649       13.896        9.584      135.703      193.106       91.851        0.309        0.021       75.154        5.293        0.005      342.681       18.261      862.504
07/04/2014  04:15:00      -22.830       -5.368       -1.680       31.021       20.390       12.490      962.326      415.766      156.010        0.104        0.077       23.453       10.756        0.210      342.523       17.993      862.489
07/04/2014  04:16:00     -105.179       28.055      -11.966       54.338       28.183       21.177     2952.580      794.257      448.485        0.809        0.210      108.856       24.439        0.050      342.639       18.189      862.483
07/04/2014  04:17:00     -107.356       15.600      -12.115       47.495       48.440       28.698     2255.731     2346.398      823.584        0.867        0.271      108.484       22.577        0.043      342.634       18.180      862.492
07/04/2014  04:18:00     -111.541       25.538       -5.211       58.735       39.044       35.917     3449.816     1524.457     1290.027        0.969        0.313      114.427       34.146        0.089      342.529       18.003      862.502
07/04/2014  04:19:00      -82.490       17.934       -5.227       31.986       36.640       28.689     1023.112     1342.489      823.076        0.517        0.159       84.417       13.828        0.027      342.545       18.031      862.506
07/04/2014  04:20:00      -69.966      -10.200        1.207       43.854       41.811       23.123     1923.182     1748.169      534.677        0.460        0.210       70.705       23.336        0.109      342.411       17.801      862.509
07/04/2014  04:21:00     -150.883      -34.000      -11.112       39.872       37.695       21.285     1589.798     1420.877      453.068        1.375        0.173      154.666       14.318        0.009      342.380       17.748      862.507
07/04/2014  04:22:00     -148.633       12.711       -2.158       52.147       44.083       28.092     2719.350     1943.289      789.144        1.385        0.273      149.176       30.461        0.042      342.343       17.687      862.513
07/04/2014  04:23:00     -174.151       13.119      -17.552       23.834       22.542       15.828      568.045      508.140      250.537        1.607        0.066      174.644        7.482        0.002      342.387       17.760      862.514
07/04/2014  04:24:00     -125.839      -21.925       -5.189       40.187       36.401       25.251     1615.010     1325.040      637.608        0.996        0.179      127.735       25.073        0.039      342.295       17.605      862.515
07/04/2014  04:25:00     -124.333       26.304      -16.885       60.419       31.818       24.034     3650.441     1012.369      577.649        1.084        0.262      127.085       18.924        0.022      342.227       17.489      862.522
07/04/2014  04:26:00      -31.928       -3.399        1.048       46.967       27.624       18.881     2205.939      763.068      356.495        0.218        0.166       32.108       21.519        0.449      342.182       17.414      862.513
07/04/2014  04:27:00      -62.547      -16.037       -2.310       46.942       26.635       23.001     2203.523      709.447      529.050        0.381        0.172       64.570       20.778        0.104      342.259       17.543      862.504
07/04/2014  04:28:00      -42.065        5.501        0.173       51.487       29.652       21.877     2650.934      879.240      478.604        0.290        0.200       42.423       23.338        0.303      342.238       17.508      862.505
07/04/2014  04:29:00      -63.514       -8.383        0.712       40.940       26.109       18.038     1676.111      681.663      325.378        0.339        0.134       64.065       21.490        0.113      342.348       17.694      862.510
07/04/2014  04:30:00      -58.099        2.790       -0.713       22.588       25.206       14.385      510.206      635.330      206.941        0.237        0.068       58.166        9.997        0.030      342.394       17.772      862.505
07/04/2014  04:31:00      -38.521       -1.085        4.491       22.954       22.679       16.179      526.880      514.356      261.776        0.140        0.065       38.537        6.439        0.028      342.288       17.594      862.503
07/04/2014  04:32:00      -51.859        6.250      -11.911       68.553       30.932       22.433     4699.553      956.818      503.250        0.451        0.308       52.234       31.181        0.356      342.289       17.593      862.508
07/04/2014  04:33:00     -102.979        7.923       -7.544       62.407       45.338       29.880     3894.670     2055.516      892.816        0.878        0.342      103.283       28.083        0.074      342.284       17.586      862.512
07/04/2014  04:34:00     -135.723       13.182       -8.284       63.463       51.526       31.232     4027.594     2654.879      975.457        1.316        0.383      136.361       29.994        0.048      342.282       17.582      862.519
07/04/2014  04:35:00     -151.561       28.525      -13.755       47.797       36.893       23.807     2284.550     1361.069      566.789        1.409        0.211      154.222       21.803        0.020      342.297       17.606      862.529
07/04/2014  04:36:00     -124.893       19.356       -6.039       55.338       36.406       26.747     3062.320     1325.405      715.394        1.056        0.255      126.384       24.973        0.039      342.400       17.784      862.523
07/04/2014  04:37:00      -79.680       -7.847        2.714       40.730       34.533       24.567     1658.963     1192.511      603.540        0.494        0.173       80.066       20.887        0.068      342.358       17.711      862.529
07/04/2014  04:38:00      -62.802       -5.000        1.616       26.254       26.364       17.502      689.286      695.079      306.306        0.283        0.085       63.001       12.337        0.038      342.410       17.801      862.542
07/04/2014  04:39:00       -4.455       14.227       11.883       13.692       17.328       11.631      187.481      300.246      135.288        0.049        0.031       14.909        8.642        0.336      342.269       17.559      862.544
07/04/2014  04:40:00        0.607       -4.557        4.535       10.337       14.132       11.804      106.844      199.715      139.337        0.024        0.022        4.598       10.744        5.461      342.308       17.626      862.550
07/04/2014  04:41:00      -34.328      -20.081       -3.662       25.636       11.440        8.043      657.194      130.879       64.695        0.122        0.043       39.770        4.617        0.013      342.398       17.781      862.549
07/04/2014  04:42:00      -35.135       -4.463        0.763       19.708       19.154       20.460      388.404      366.889      418.604        0.121        0.059       35.418       15.876        0.201      342.410       17.801      862.548
07/04/2014  04:43:00      -91.691      -41.676      -12.560       26.909       31.114       15.782      724.111      968.065      249.069        0.612        0.097      100.719       11.272        0.013      342.350       17.698      862.556
07/04/2014  04:44:00     -100.405      -51.655      -22.788       48.445       27.200       22.730     2346.871      739.820      516.648        0.844        0.180      112.913       21.894        0.038      342.184       17.416      862.570
07/04/2014  04:45:00      -96.376      -43.626       -2.495       51.362       36.982       24.652     2638.016     1367.646      607.699        0.790        0.231      105.790       20.689        0.038      342.168       17.389      862.569
07/04/2014  04:46:00      -45.677       -8.710        7.008       55.199       29.854       21.920     3046.924      891.247      480.476        0.331        0.221       46.500       24.665        0.281      342.064       17.212      862.551
07/04/2014  04:47:00      -58.072      -27.153        5.973       32.895       34.299       17.599     1082.091     1176.393      309.711        0.336        0.128       64.107       16.531        0.066      342.163       17.381      862.556
07/04/2014  04:48:00      -79.376      -16.850        1.097       32.870       30.326       19.640     1080.434      919.645      385.735        0.449        0.119       81.145       19.675        0.059      342.225       17.486      862.544
07/04/2014  04:49:00     -116.225      -53.240       -2.735       30.433       20.186       14.433      926.152      407.477      208.326        0.895        0.077      127.839       11.630        0.008      342.292       17.599      862.541
07/04/2014  04:50:00     -106.065      -38.998       -4.928       19.497       24.166       13.669      380.127      584.001      186.850        0.697        0.058      113.007       10.438        0.009      342.323       17.650      862.549
07/04/2014  04:51:00      -69.563      -31.567        3.739       32.335       30.781       18.216     1045.534      947.469      331.826        0.409        0.116       76.391       18.999        0.062      342.228       17.491      862.552
07/04/2014  04:52:00      -68.892       -5.300        1.521       43.347       25.928       18.617     1879.000      672.237      346.593        0.384        0.145       69.096       21.322        0.095      342.157       17.369      862.542
07/04/2014  04:53:00      -99.589       14.865       -7.266       57.333       34.743       25.389     3287.119     1207.105      644.580        0.766        0.257      100.692       24.925        0.061      342.160       17.374      862.540
07/04/2014  04:54:00     -135.286       20.123      -11.693       44.849       40.888       29.766     2011.464     1671.859      886.033        1.171        0.228      136.775       18.820        0.019      342.235       17.503      862.548
07/04/2014  04:55:00     -140.576       20.942       -9.333       50.913       37.931       25.435     2592.126     1438.768      646.957        1.248        0.234      142.128       25.115        0.031      342.274       17.568      862.552
07/04/2014  04:56:00     -147.067        4.805       -8.101       64.739       33.529       23.157     4191.198     1124.172      536.226        1.378        0.293      147.146       30.450        0.043      342.327       17.660      862.553
07/04/2014  04:57:00      -91.967       -5.737       -8.416       26.625       37.447       19.890      708.866     1402.243      395.606        0.553        0.125       92.146       13.589        0.022      342.241       17.513      862.554
07/04/2014  04:58:00      -59.977      -36.568       -4.097       36.389       29.500       20.280     1324.161      870.239      411.276        0.378        0.130       70.246       16.222        0.053      342.231       17.496      862.574
07/04/2014  04:59:00      -69.285      -34.131        2.415       35.288       35.357       18.431     1245.243     1250.152      339.686        0.440        0.142       77.236       14.337        0.034      342.269       17.562      862.584
07/04/2014  05:00:00      -53.385      -48.822       -1.620       34.116       17.844       15.265     1163.881      318.392      233.014        0.348        0.086       72.344        7.779        0.012      342.309       17.629      862.588
07/04/2014  05:01:00      -80.734      -27.538       -4.977       12.712       13.893        9.707      161.597      193.014       94.227        0.387        0.022       85.302        5.915        0.005      342.314       17.638      862.592
07/04/2014  05:02:00      -67.089      -32.422       -7.265       14.067       12.733        8.193      197.894      162.127       67.131        0.302        0.021       74.513        6.342        0.007      342.408       17.795      862.592
07/04/2014  05:03:00      -79.897      -50.446      -13.213       15.317       15.438       10.424      234.611      238.331      108.652        0.484        0.029       94.490        5.074        0.003      342.423       17.821      862.611
07/04/2014  05:04:00     -119.119      -49.223      -14.667       16.695       18.943        9.545      278.722      358.829       91.101        0.878        0.036      128.888        3.456        0.001      342.389       17.763      862.608
07/04/2014  05:05:00     -150.520      -38.684      -11.198       22.770       25.513       15.570      518.457      650.938      242.432        1.284        0.071      155.411        8.196        0.003      342.325       17.655      862.603
07/04/2014  05:06:00     -127.613      -41.234       -0.752       33.377       31.194       19.666     1114.028      973.050      386.739        1.023        0.124      134.109       11.823        0.008      342.199       17.441      862.610
07/04/2014  05:07:00      -95.564      -27.496       -0.588       39.097       29.976       19.729     1528.600      898.546      389.253        0.635        0.141       99.441       20.084        0.041      342.110       17.292      862.614
07/04/2014  05:08:00      -96.254      -17.417       -1.925       44.053       37.231       23.169     1940.678     1386.132      536.805        0.672        0.193       97.817       23.343        0.057      342.155       17.367      862.617
07/04/2014  05:09:00     -131.411      -54.195       -8.769       23.213       28.166       19.139      538.845      793.303      366.316        1.099        0.085      142.148        9.191        0.004      342.192       17.429      862.622
07/04/2014  05:10:00     -107.407      -36.386        3.621       25.714       33.016       19.202      661.192     1090.026      368.699        0.750        0.106      113.403       17.129        0.023      342.112       17.294      862.627
07/04/2014  05:11:00      -83.718      -35.436        1.736       27.634       26.644       17.386      763.651      709.878      302.265        0.502        0.089       90.909       13.495        0.022      342.039       17.171      862.649
07/04/2014  05:12:00      -83.019      -47.043        1.073       26.190       23.636       14.259      685.909      558.680      203.310        0.528        0.072       95.421       12.538        0.017      342.077       17.233      862.665
07/04/2014  05:13:00      -83.328      -42.430       -1.089       44.469       25.788       15.210     1977.510      664.998      231.338        0.581        0.144       93.509       12.353        0.017      342.076       17.233      862.672
07/04/2014  05:14:00      -53.226       -9.695        7.928       32.201       31.599       15.457     1036.897      998.477      238.915        0.263        0.114       54.102       12.692        0.055      342.071       17.223      862.670
07/04/2014  05:15:00      -96.155      -32.737       -1.785       50.175       33.850       18.178     2517.498     1145.793      330.454        0.716        0.200      101.575       21.654        0.045      341.984       17.077      862.672
07/04/2014  05:16:00      -67.983       -8.525        5.998       26.798       44.517       17.328      718.118     1981.762      300.264        0.386        0.150       68.515        9.586        0.020      341.991       17.088      862.667
07/04/2014  05:17:00     -102.907      -34.362        2.623       36.065       33.448       19.159     1300.652     1118.750      367.056        0.728        0.139      108.493       18.341        0.029      341.913       16.955      862.671
07/04/2014  05:18:00      -73.752      -26.061        0.623       41.013       33.506       21.267     1682.092     1122.684      452.268        0.469        0.163       78.221       17.466        0.050      341.884       16.907      862.664
07/04/2014  05:19:00     -111.664      -13.486       -7.062       43.096       26.585       21.530     1857.243      706.741      463.557        0.786        0.151      112.476       17.609        0.025      341.979       17.067      862.664
07/04/2014  05:20:00     -142.581      -12.452      -13.677       34.003       36.667       21.989     1156.233     1344.485      483.533        1.183        0.149      143.124       16.254        0.013      342.011       17.122      862.671
07/04/2014  05:21:00     -132.193       -0.483      -13.343       56.370       48.701       29.133     3177.631     2371.771      848.710        1.202        0.320      132.194       26.805        0.041      341.937       16.995      862.675
07/04/2014  05:22:00     -191.690       19.873      -14.567       44.313       38.191       26.246     1963.668     1458.537      688.858        2.073        0.206      192.717       24.882        0.017      342.051       17.189      862.666
07/04/2014  05:23:00     -182.473       39.361      -19.999       52.586       53.140       35.152     2765.288     2823.847     1235.672        2.103        0.341      186.670       31.902        0.029      342.019       17.134      862.658
07/04/2014  05:24:00     -160.967       29.997      -13.656       59.765       45.233       33.274     3571.905     2046.005     1107.149        1.686        0.336      163.738       27.295        0.028      342.015       17.127      862.648
07/04/2014  05:25:00     -182.083       50.849      -15.011       54.850       40.037       29.200     3008.510     1602.952      852.651        2.071        0.273      189.050       11.395        0.004      342.081       17.238      862.644
07/04/2014  05:26:00     -130.148       36.549      -18.723       64.401       38.275       31.640     4147.445     1465.012     1001.101        1.262        0.331      135.183       32.306        0.057      342.116       17.301      862.649
07/04/2014  05:27:00     -170.695       37.958      -19.867       51.138       37.605       25.350     2615.113     1414.110      642.615        1.782        0.234      174.864       16.693        0.009      342.191       17.427      862.648
07/04/2014  05:28:00     -177.268       46.277      -18.351       60.276       36.988       29.874     3633.162     1368.115      892.449        1.990        0.295      183.209       20.146        0.012      342.259       17.542      862.644
07/04/2014  05:29:00     -190.193       29.751      -21.649       45.498       39.341       26.877     2070.111     1547.733      722.395        2.093        0.217      192.506       14.528        0.006      342.248       17.524      862.650
07/04/2014  05:30:00     -169.010       26.166      -12.096       53.532       41.073       22.324     2865.720     1686.997      498.347        1.722        0.253      171.023       12.040        0.005      342.242       17.513      862.662
07/04/2014  05:31:00     -132.564       15.828      -11.640       45.019       33.872       25.248     2026.688     1147.280      637.476        1.088        0.191      133.505       21.384        0.026      342.232       17.499      862.665
07/04/2014  05:32:00      -95.093       23.113       -2.408       50.282       35.728       27.020     2528.251     1276.500      730.071        0.706        0.227       97.862       28.080        0.082      342.041       17.172      862.685
07/04/2014  05:33:00      -94.663      -29.498       -9.594       32.513       43.038       18.586     1057.112     1852.284      345.421        0.659        0.163       99.153       15.201        0.024      342.010       17.120      862.697
07/04/2014  05:34:00     -108.989      -48.285       -8.677       31.729       32.747       23.496     1006.731     1072.364      552.052        0.846        0.132      119.205       17.261        0.021      341.899       16.930      862.707
07/04/2014  05:35:00      -88.514       -2.198        0.102       40.655       35.796       21.894     1652.803     1281.379      479.327        0.563        0.171       88.541       22.446        0.064      341.842       16.835      862.719
07/04/2014  05:36:00      -53.029       10.551        9.275       33.242       42.522       26.181     1105.050     1808.158      685.435        0.330        0.180       54.069       29.162        0.291      341.784       16.736      862.723
07/04/2014  05:37:00      -55.394        1.123        1.565       20.237       27.188       17.951      409.530      739.175      322.232        0.227        0.074       55.405       17.879        0.104      341.821       16.798      862.736
07/04/2014  05:38:00      -42.295      -18.196       -1.078       15.010       17.735       11.298      225.313      314.547      127.650        0.139        0.033       46.043        9.596        0.043      341.880       16.899      862.751
07/04/2014  05:39:00      -67.121        5.218       -2.106       24.056       25.964       14.350      578.697      674.134      205.916        0.300        0.073       67.324       13.706        0.041      341.815       16.789      862.759
07/04/2014  05:40:00      -86.739      -13.378       -6.453       33.498       16.864       14.315     1122.129      284.394      204.930        0.468        0.081       87.765       19.187        0.048      341.791       16.751      862.765
07/04/2014  05:41:00     -116.470       -4.417      -12.213       25.182       18.629       14.264      634.120      347.040      203.457        0.746        0.059      116.554       13.498        0.013      341.837       16.826      862.785
07/04/2014  05:42:00      -78.279       -9.591       -3.840       24.395       17.749       12.060      595.131      315.022      145.451        0.364        0.053       78.864        6.780        0.007      341.818       16.796      862.797
07/04/2014  05:43:00     -108.194      -62.024       -1.684       27.028       29.358       14.802      730.520      861.910      219.107        0.868        0.091      124.711       12.050        0.009      341.926       16.978      862.801
07/04/2014  05:44:00     -110.066      -60.090        1.235       45.678       23.639       19.788     2086.451      558.810      391.571        0.938        0.152      125.400       21.208        0.029      341.905       16.943      862.820
07/04/2014  05:45:00      -72.338      -72.773        2.035       53.382       34.316       23.429     2849.670     1177.617      548.936        0.755        0.229      102.609       20.458        0.040      341.872       16.886      862.825
07/04/2014  05:46:00      -96.606      -60.139        0.025       53.260       36.067       27.973     2836.610     1300.814      782.506        0.893        0.246      113.796       32.363        0.081      342.047       17.184      862.822
07/04/2014  05:47:00     -112.256      -55.991       -6.226       33.700       23.829       18.138     1135.666      567.838      328.993        0.890        0.102      125.445       15.337        0.015      341.843       16.838      862.823
07/04/2014  05:48:00      -86.694       -8.594       -7.697       26.869       30.733       12.521      721.932      944.499      156.780        0.474        0.091       87.119       10.356        0.014      341.878       16.896      862.830
07/04/2014  05:49:00     -109.611        0.710       -5.469       35.829       28.841       15.742     1283.690      831.789      247.820        0.720        0.118      109.613       15.717        0.021      341.949       17.016      862.835
07/04/2014  05:50:00     -162.244       38.901      -16.627       53.532       34.689       23.471     2865.630     1203.357      550.896        1.637        0.231      166.843       14.892        0.008      342.035       17.162      862.835
07/04/2014  05:51:00     -146.241       18.558      -18.670       36.425       37.291       24.882     1326.812     1390.591      619.131        1.271        0.167      147.414       15.362        0.011      341.989       17.084      862.836
07/04/2014  05:52:00     -130.149       -1.824      -13.739       41.940       34.029       24.482     1758.940     1157.977      599.386        1.032        0.176      130.162       17.028        0.017      342.063       17.210      862.845
07/04/2014  05:53:00     -114.486      -14.682       -6.917       45.750       36.394       22.983     2093.018     1324.548      528.236        0.866        0.197      115.423       22.239        0.037      341.983       17.076      862.863
07/04/2014  05:54:00     -130.204      -35.877       -6.516       44.987       33.889       23.676     2023.829     1148.454      560.571        1.101        0.187      135.057       23.008        0.029      341.867       16.877      862.876
07/04/2014  05:55:00     -136.285        4.356        1.817       67.908       42.002       35.152     4611.532     1764.140     1235.678        1.310        0.381      136.354       37.590        0.076      341.709       16.610      862.891
07/04/2014  05:56:00     -144.640      -21.872       -9.231       45.214       34.238       29.033     2044.285     1172.240      842.905        1.277        0.203      146.284       23.799        0.026      341.674       16.549      862.898
07/04/2014  05:57:00     -149.986      -16.002       -6.587       44.688       29.389       25.710     1996.997      863.693      660.998        1.316        0.176      150.838       24.772        0.027      341.774       16.721      862.902
07/04/2014  05:58:00      -92.627       -5.061       -9.049       36.678       30.762       17.105     1345.297      946.304      292.584        0.564        0.129       92.765       10.322        0.012      341.755       16.687      862.901
07/04/2014  05:59:00     -111.965       -1.934      -13.597       13.257       17.811       11.661      175.755      317.221      135.970        0.668        0.031      111.982        6.965        0.004      341.842       16.835      862.899
07/04/2014  06:00:00      -84.205       -8.469       -4.196       27.388       17.600       14.024      750.095      309.754      196.663        0.422        0.063       84.630       15.076        0.032      341.800       16.764      862.903
07/04/2014  06:01:00      -91.544       -1.643       -5.439       27.847       26.884       19.091      775.483      722.749      364.472        0.514        0.093       91.559       15.021        0.027      341.776       16.723      862.904
07/04/2014  06:02:00     -101.683      -31.950       -5.802       37.790       30.864       21.158     1428.084      952.563      447.642        0.711        0.141      106.585       17.383        0.027      341.765       16.706      862.910
07/04/2014  06:03:00      -97.574       -2.800       -2.878       42.589       28.557       21.647     1813.784      815.507      468.610        0.632        0.155       97.614       22.136        0.051      341.769       16.712      862.925
07/04/2014  06:04:00      -65.618      -37.280       -3.689       41.979       21.064       19.900     1762.234      443.706      396.025        0.416        0.130       75.469       22.177        0.086      341.802       16.768      862.929
07/04/2014  06:05:00     -106.658      -31.122       -2.938       25.759       18.999       18.221      663.513      360.980      332.006        0.685        0.068      111.106       13.697        0.015      341.859       16.865      862.924
07/04/2014  06:06:00      -92.176      -24.515       -7.202       20.987       16.616       11.257      440.459      276.090      126.715        0.500        0.042       95.380        4.108        0.002      341.889       16.915      862.909
07/04/2014  06:07:00      -17.439      -22.200        4.988       25.069       27.797       14.604      628.435      772.657      213.282        0.122        0.081       28.230       14.453        0.262      341.916       16.962      862.904
07/04/2014  06:08:00      -15.213       -4.989        6.244       21.031       25.614       20.072      442.290      656.085      402.883        0.090        0.075       16.010       13.356        0.696      341.788       16.745      862.899
07/04/2014  06:09:00      -65.922       -9.904        1.201       30.251       20.480       14.114      915.144      419.435      199.192        0.299        0.077       66.662       15.379        0.053      341.923       16.973      862.909
07/04/2014  06:10:00     -100.825      -18.338       -2.465       43.183       23.475       17.656     1864.765      551.096      311.735        0.662        0.136      102.479       13.932        0.018      341.836       16.826      862.927
07/04/2014  06:11:00     -115.699      -31.210        2.457       31.168       24.149       19.708      971.471      583.184      388.397        0.815        0.097      119.835       16.410        0.019      341.844       16.840      862.943
07/04/2014  06:12:00      -60.383      -53.612       -0.744       36.328       26.338       15.348     1319.750      693.692      235.557        0.438        0.112       80.749       12.030        0.022      341.884       16.908      862.951
07/04/2014  06:13:00      -64.889      -60.463       -3.047       26.489       23.267       17.019      701.646      541.340      289.646        0.470        0.077       88.692       16.524        0.035      341.895       16.924      862.962
07/04/2014  06:14:00      -41.921      -20.567        7.601       37.114       17.651       16.675     1377.427      311.547      278.065        0.210        0.098       46.695       19.225        0.170      341.997       17.098      862.969
07/04/2014  06:15:00       -9.771      -48.699        5.536       25.655       25.537       14.749      658.183      652.162      217.538        0.201        0.076       49.670       13.836        0.078      341.973       17.057      862.978
07/04/2014  06:16:00      -55.923      -33.856        2.083       26.268       17.932       14.210      689.990      321.543      201.938        0.275        0.061       65.373       10.192        0.024      341.953       17.025      862.981
07/04/2014  06:17:00      -25.973      -20.269        9.270       36.047       17.472       13.364     1299.373      305.267      178.603        0.148        0.089       32.946       18.869        0.328      341.997       17.098      862.988
07/04/2014  06:18:00      -84.103      -53.440       -7.657       35.124       22.467       13.039     1233.725      504.765      170.007        0.595        0.095       99.645        9.344        0.009      341.902       16.937      863.007
07/04/2014  06:19:00      -78.607      -30.149       -4.293       21.434       17.759       14.806      459.436      315.390      219.227        0.405        0.050       84.190       11.959        0.020      341.791       16.749      863.025
07/04/2014  06:20:00      -44.417      -33.313       -5.544       27.005       15.672       11.170      729.292      245.624      124.776        0.211        0.055       55.521       10.943        0.039      341.876       16.892      863.024
07/04/2014  06:21:00      -15.141      -34.425        4.066       22.573       17.953       13.802      509.557      322.323      190.494        0.123        0.051       37.608       11.782        0.098      341.907       16.946      863.028
07/04/2014  06:22:00      -34.688      -36.113       -3.421       20.053       14.081       10.936      402.121      198.275      119.596        0.162        0.036       50.074        9.779        0.038      341.966       17.046      863.027
07/04/2014  06:23:00        0.301      -37.959        1.248       14.602       12.857       10.180      213.216      165.313      103.633        0.096        0.024       37.961        4.334        0.013      341.921       16.970      863.007
07/04/2014  06:24:00       -6.325      -29.757        7.556       27.312       30.600       15.117      745.936      936.348      228.515        0.145        0.096       30.422       14.643        0.232      342.093       17.263      862.997
07/04/2014  06:25:00      -49.758      -24.802        5.263       27.573       25.474       15.826      760.272      648.915      250.448        0.239        0.083       55.596       15.147        0.074      342.105       17.281      863.008
07/04/2014  06:26:00      -77.983      -20.731        3.713       22.512       24.482       11.485      506.801      599.391      131.900        0.388        0.062       80.692       10.682        0.018      342.008       17.116      863.009
07/04/2014  06:27:00      -97.475       -0.300       -5.693       31.905       26.162       18.205     1017.950      684.470      331.429        0.578        0.102       97.475       16.429        0.028      341.838       16.828      863.019
07/04/2014  06:28:00      -53.002      -28.365        4.216       27.091       22.944       15.528      733.943      526.433      241.124        0.257        0.075       60.115       13.045        0.047      341.829       16.813      863.028
07/04/2014  06:29:00      -35.601      -33.068        4.082       20.331       15.451       12.292      413.368      238.736      151.101        0.159        0.040       48.589       11.969        0.061      341.949       17.016      863.025
07/04/2014  06:30:00      -23.232      -33.315       -2.198       23.609       10.640        8.068      557.373      113.203       65.100        0.119        0.037       40.615        6.811        0.028      341.957       17.031      863.022
07/04/2014  06:31:00      -26.219      -23.590        3.506       20.839       13.565        9.499      434.270      184.021       90.231        0.098        0.035       35.269        9.995        0.080      342.107       17.286      863.016
07/04/2014  06:32:00      -42.257      -27.538       -3.716       15.274       14.820       10.536      233.287      219.646      110.998        0.156        0.028       50.438        7.876        0.024      342.104       17.280      863.028
07/04/2014  06:33:00      -90.015      -36.430       -3.359       13.506       20.830       12.829      182.404      433.879      164.592        0.511        0.039       97.107        6.762        0.005      342.091       17.257      863.036
07/04/2014  06:34:00      -56.311      -52.457       -2.941       26.860       18.251       13.617      721.439      333.088      185.419        0.359        0.062       76.959        9.648        0.016      342.104       17.278      863.046
07/04/2014  06:35:00      -13.392      -23.010        7.031       16.232       12.457        9.361      263.476      155.181       87.628        0.063        0.025       26.624        9.532        0.128      342.211       17.462      863.047
07/04/2014  06:36:00      -38.150      -35.801        1.107       21.605       11.869       10.382      466.796      140.880      107.781        0.173        0.036       52.317        5.518        0.011      342.205       17.451      863.039
07/04/2014  06:37:00      -29.632      -29.050        0.896       22.357       14.248       11.897      499.848      203.008      141.543        0.128        0.042       41.497       10.453        0.063      342.220       17.475      863.035
07/04/2014  06:38:00      -61.819      -52.811       -2.704       29.450       17.095       14.774      867.321      292.251      218.259        0.400        0.069       81.306       11.830        0.021      342.136       17.336      863.035
07/04/2014  06:39:00      -58.965      -64.935        1.163       25.763       20.820       12.392      663.711      433.476      153.567        0.447        0.063       87.712       10.654        0.015      342.143       17.346      863.042
07/04/2014  06:40:00      -45.953      -45.242       -0.649       27.132       23.257       17.608      736.130      540.894      310.029        0.287        0.079       64.487       18.233        0.080      342.151       17.361      863.040
07/04/2014  06:41:00      -21.211      -28.966        3.649       31.327       22.710       16.612      981.404      515.754      275.964        0.154        0.089       35.901       20.072        0.313      342.358       17.712      863.043
07/04/2014  06:42:00      -24.601      -11.972       12.319       21.122       12.573       13.066      446.132      158.082      170.726        0.084        0.039       27.359       14.714        0.289      342.474       17.909      863.038
07/04/2014  06:43:00      -62.331      -15.143       -7.276       11.548        9.561        7.728      133.361       91.409       59.717        0.223        0.014       64.144        4.266        0.004      342.273       17.567      863.038
07/04/2014  06:44:00      -57.532      -36.794       -4.746       15.367       11.065        8.746      236.157      122.442       76.498        0.256        0.022       68.291        7.387        0.012      342.301       17.614      863.030
07/04/2014  06:45:00       -8.763      -15.077       12.021       27.058       17.758       15.426      732.135      315.348      237.964        0.087        0.064       17.438        9.970        0.327      342.250       17.529      863.028
07/04/2014  06:46:00        7.327       -5.494       20.112       25.737       16.063       15.166      662.394      258.027      230.019        0.082        0.058        9.158        9.810        1.148      342.466       17.895      863.024
07/04/2014  06:47:00       -3.327      -16.622       20.164       14.023       18.054       13.252      196.648      325.959      175.622        0.070        0.035       16.952       12.738        0.565      342.663       18.231      863.016
07/04/2014  06:48:00      -23.196      -22.805        8.394       16.574       15.588        8.853      274.704      242.970       78.377        0.086        0.030       32.529       10.022        0.095      342.517       17.981      863.026
07/04/2014  06:49:00      -32.982      -26.209        2.123       15.355        9.291        9.324      235.783       86.323       86.942        0.109        0.020       42.128        2.602        0.004      342.448       17.864      863.035
07/04/2014  06:50:00       -4.511      -21.582        9.005       23.921       16.767       13.447      572.196      281.129      180.830        0.080        0.052       22.048       10.572        0.230      342.524       17.994      863.062
07/04/2014  06:51:00        1.895       -9.454        7.068       22.643       20.270       24.407      512.698      410.891      595.704        0.083        0.076        9.642       17.591        3.329      342.620       18.159      863.067
07/04/2014  06:52:00      -41.703       -0.075       -0.590       11.548        5.175        7.216      133.356       26.786       52.067        0.098        0.011       41.703        6.851        0.027      342.355       17.706      863.070
07/04/2014  06:53:00      -36.153        1.178       -0.756       11.024        8.114        7.255      121.534       65.839       52.631        0.077        0.012       36.173        5.235        0.021      342.384       17.755      863.062
07/04/2014  06:54:00       -9.009        6.011       21.274       11.443       10.838       12.131      130.947      117.452      147.167        0.048        0.020       10.831        9.291        0.736      343.310       19.331      863.058
07/04/2014  06:55:00        9.309       10.975       12.839       15.727       10.874       19.897      247.332      118.239      395.895        0.057        0.038       14.391       15.586        1.173      342.667       18.237      863.060
07/04/2014  06:56:00       30.513      -22.374        6.844       24.424       22.690       21.573      596.518      514.857      465.407        0.153        0.079       37.837       10.383        0.075      342.192       17.430      863.064
07/04/2014  06:57:00       32.638       -8.830       14.825       25.490       18.846       21.272      649.763      355.169      452.503        0.141        0.073       33.811       15.645        0.214      342.546       18.031      863.081
07/04/2014  06:58:00       48.224      -20.267        3.021       33.118       27.796       27.133     1096.828      772.595      736.219        0.268        0.130       52.310       16.836        0.104      342.081       17.243      863.081
07/04/2014  06:59:00        0.500       16.999       19.412       19.628       19.086       17.033      385.242      364.282      290.116        0.085        0.052       17.006        9.283        0.298      342.652       18.213      863.076
07/04/2014  07:00:00       -6.852        9.290       15.869       10.424       15.226       11.702      108.656      231.825      136.948        0.043        0.024       11.544        7.419        0.413      343.183       19.115      863.056
07/04/2014  07:01:00        5.222        2.683        4.084       14.584       14.258       14.156      212.693      203.290      200.388        0.033        0.031        5.871        9.247        2.480      342.749       18.378      863.048
07/04/2014  07:02:00       10.677       -6.515       12.675       26.433       13.981       21.201      698.695      195.474      449.491        0.083        0.067       12.508       12.611        1.017      342.831       18.515      863.049
07/04/2014  07:03:00       27.389        4.459       22.397       29.725       10.811       20.700      883.592      116.875      428.502        0.135        0.071       27.750       13.340        0.231      342.637       18.187      863.066
07/04/2014  07:04:00       45.198      -14.431       13.829       21.503       24.756       26.944      462.377      612.852      725.966        0.212        0.090       47.446       13.546        0.082      342.416       17.811      863.086
07/04/2014  07:05:00       55.693      -20.048        1.311       26.444       26.695       26.909      699.299      712.639      724.093        0.282        0.107       59.192       14.336        0.059      342.288       17.594      863.094
07/04/2014  07:06:00       40.196       -0.743       22.167       38.243       26.536       32.342     1462.538      704.165     1045.981        0.266        0.161       40.203       23.654        0.346      342.668       18.240      863.103
07/04/2014  07:07:00       11.665        3.668       19.434       16.593       17.949       20.947      275.342      322.174      438.776        0.078        0.052       12.229       13.455        1.211      342.824       18.505      863.103
07/04/2014  07:08:00       -7.313        1.747        7.861       11.330       12.244       14.799      128.373      149.906      218.996        0.031        0.025        7.519        3.202        0.181      343.093       18.962      863.109
07/04/2014  07:09:00       -0.048       12.721        3.520       13.212       13.889       17.465      174.555      192.895      305.028        0.042        0.034       12.721        9.848        0.599      343.020       18.838      863.099
07/04/2014  07:10:00       32.644       -5.670       14.405       18.838        9.563       16.118      354.871       91.443      259.804        0.101        0.035       33.133       10.218        0.095      342.744       18.369      863.109
07/04/2014  07:11:00       45.624       11.687       19.650       17.391       15.706       23.122      302.450      246.679      534.633        0.184        0.054       47.097       10.699        0.052      342.608       18.136      863.101
07/04/2014  07:12:00       49.981       20.703        5.006       27.743       16.586       18.563      769.694      275.090      344.597        0.217        0.069       54.099       12.411        0.053      342.835       18.523      863.094
07/04/2014  07:13:00       62.253       28.080       18.041       46.245       24.788       26.373     2138.577      614.451      695.547        0.422        0.172       68.293       27.169        0.158      343.046       18.882      863.094
07/04/2014  07:14:00       43.133       21.025        1.738       22.618       16.765       16.502      511.567      281.067      272.323        0.169        0.053       47.984       10.254        0.046      342.999       18.803      863.095
07/04/2014  07:15:00       28.741        2.725        4.848       11.823        7.247       11.507      139.794       52.525      132.401        0.059        0.016       28.870        3.300        0.013      342.998       18.801      863.107
07/04/2014  07:16:00       23.844        7.871       10.436       16.821        9.957       13.217      282.940       99.146      174.701        0.065        0.028       25.110        3.506        0.019      343.110       18.991      863.118
07/04/2014  07:17:00       13.266       -0.163      -13.220       14.326       26.574       21.521      205.234      706.202      463.163        0.086        0.069       13.267       17.611        1.762      342.915       18.659      863.133
07/04/2014  07:18:00        7.369       10.362       22.663       12.004       12.363       12.271      144.092      152.842      150.575        0.056        0.022       12.715        5.771        0.206      343.562       19.761      863.155
07/04/2014  07:19:00       -1.673        5.965       25.905       25.861       16.505       13.976      668.778      272.399      195.316        0.092        0.057        6.195        6.013        0.942      343.471       19.606      863.165
07/04/2014  07:20:00       10.023        0.449       19.008       21.333       21.836       22.135      455.085      476.800      489.973        0.094        0.071       10.033       10.390        1.072      343.392       19.471      863.177
07/04/2014  07:21:00       29.389      -10.182        4.025       25.876       15.771       24.464      669.546      248.715      598.489        0.125        0.076       31.103       16.727        0.289      343.072       18.927      863.172
07/04/2014  07:22:00       45.054        6.713       16.081       24.470       21.689       27.296      598.768      470.425      745.088        0.207        0.091       45.551       12.873        0.080      342.902       18.636      863.176
07/04/2014  07:23:00       17.462        8.856       16.009       19.146       13.976       23.560      366.579      195.319      555.074        0.088        0.056       19.579        9.791        0.250      343.337       19.378      863.184
07/04/2014  07:24:00        1.030        8.076       30.580       14.539       19.036       23.215      211.376      362.363      538.952        0.106        0.056        8.142        8.082        0.985      343.660       19.928      863.196
07/04/2014  07:25:00       -7.045       13.742        9.914       12.030       23.691       19.566      144.726      561.264      382.846        0.071        0.054       15.443       16.361        1.123      343.532       19.709      863.210
07/04/2014  07:26:00       14.953        2.386       21.492       20.638       16.977       19.650      425.924      288.228      386.110        0.090        0.055       15.142        3.827        0.064      343.539       19.723      863.223
07/04/2014  07:27:00        8.714       -6.842       18.526       29.976       14.155       16.692      898.552      200.367      278.627        0.092        0.069       11.079       11.811        1.136      343.466       19.599      863.233
07/04/2014  07:28:00       20.857      -14.389        9.652       25.849       21.378       26.779      668.165      457.040      717.141        0.129        0.092       25.339       21.126        0.695      343.392       19.472      863.232
07/04/2014  07:29:00        1.994       22.108       34.453       20.451       25.116       22.893      418.258      630.824      524.096        0.163        0.079       22.198       15.569        0.492      343.638       19.893      863.233
07/04/2014  07:30:00       12.638       17.537       35.384       25.522       21.048       23.657      651.377      443.036      559.659        0.169        0.083       21.617       19.489        0.813      343.487       19.635      863.225
07/04/2014  07:31:00       49.365       14.945        4.390       28.900       18.846       18.194      835.200      355.178      331.013        0.210        0.076       51.578       15.443        0.090      342.972       18.755      863.220
07/04/2014  07:32:00       18.598        1.088       27.075       22.898       19.952       18.404      524.300      398.101      338.719        0.117        0.063       18.630       12.602        0.458      343.730       20.049      863.215
07/04/2014  07:33:00       14.154       -4.029       19.425       23.304       16.985       21.179      543.095      288.480      448.532        0.094        0.064       14.716       17.968        1.491      343.765       20.108      863.213
07/04/2014  07:34:00       51.697      -20.290        8.920       37.346       35.047       22.630     1394.698     1228.261      512.122        0.315        0.157       55.536       21.479        0.150      343.251       19.232      863.210
07/04/2014  07:35:00       44.739        7.506       33.981       36.207       28.334       25.072     1310.934      802.788      628.598        0.298        0.137       45.365       20.632        0.207      343.325       19.359      863.217
07/04/2014  07:36:00       27.780        3.417       15.055       17.261       16.147       22.052      297.939      260.732      486.292        0.103        0.052       27.989       14.296        0.261      343.442       19.557      863.207
07/04/2014  07:37:00       31.762        7.379       14.131       24.826       15.432       23.466      616.315      238.132      550.646        0.133        0.070       32.608       13.908        0.182      343.346       19.394      863.208
07/04/2014  07:38:00       30.147        8.663        3.513       16.487       17.900       19.558      271.821      320.422      382.511        0.099        0.049       31.367       14.336        0.209      343.253       19.236      863.198
07/04/2014  07:39:00       52.267       26.229        7.560       37.503       26.426       21.185     1406.453      698.309      448.783        0.301        0.128       58.479       18.197        0.097      343.443       19.559      863.204
07/04/2014  07:40:00       60.744       25.106       24.194       42.292       43.947       29.157     1788.618     1931.375      850.119        0.474        0.229       65.728       22.361        0.116      343.599       19.825      863.200
07/04/2014  07:41:00       31.334       31.147       32.125       33.258       19.025       19.014     1106.062      361.959      361.535        0.241        0.091       44.181        9.974        0.051      343.567       19.769      863.214
07/04/2014  07:42:00        4.502       17.766       13.701       23.574       26.901       16.264      555.730      723.673      264.513        0.103        0.077       18.327       12.880        0.494      343.644       19.901      863.216
07/04/2014  07:43:00       23.842        6.413       22.075       30.697       26.665       30.997      942.297      711.012      960.840        0.186        0.131       24.690       15.292        0.384      343.772       20.122      863.234
07/04/2014  07:44:00       38.777       -4.543       29.277       37.832       28.284       27.442     1431.284      799.980      753.057        0.268        0.149       39.042       23.945        0.376      343.525       19.698      863.237
07/04/2014  07:45:00       55.974      -22.420       12.710       22.091       25.526       23.564      488.020      651.585      555.277        0.275        0.085       60.297       12.543        0.043      343.251       19.230      863.246
07/04/2014  07:46:00       39.216       -6.511       20.536       33.658       26.269       21.609     1132.853      690.041      466.965        0.215        0.114       39.753       20.836        0.275      343.572       19.779      863.255
07/04/2014  07:47:00       44.208       -6.006       26.403       22.913       26.200       22.635      524.994      686.449      512.344        0.221        0.086       44.614       17.609        0.156      343.776       20.127      863.265
07/04/2014  07:48:00       25.101       29.352       11.846       18.449       16.289       21.047      340.352      265.317      442.980        0.134        0.052       38.621       15.030        0.151      343.519       19.689      863.272
07/04/2014  07:49:00       49.253        5.930        2.026       22.875       26.621       19.398      523.256      708.673      376.299        0.204        0.080       49.609       15.021        0.092      343.598       19.823      863.271
07/04/2014  07:50:00       51.746       20.908       16.935       31.596       32.324       27.205      998.294     1044.864      740.097        0.309        0.139       55.811       19.196        0.118      344.019       20.543      863.275
07/04/2014  07:51:00      109.947       67.287       25.516       26.686       35.363       29.761      712.132     1250.538      885.725        1.006        0.142      128.903       17.927        0.019      343.764       20.106      863.259
07/04/2014  07:52:00       38.493       17.495       15.877       34.821       43.265       26.991     1212.495     1871.870      728.537        0.293        0.191       42.282       23.887        0.319      343.970       20.456      863.263
07/04/2014  07:53:00       17.531       19.705       20.407       40.275       33.759       19.924     1622.107     1139.648      396.967        0.213        0.158       26.374       19.603        0.552      344.392       21.179      863.262
07/04/2014  07:54:00       82.518       69.452       13.578       29.207       24.523       23.650      853.065      601.401      559.307        0.692        0.101      107.855       15.306        0.020      343.867       20.281      863.270
07/04/2014  07:55:00       60.732       39.515        6.319       20.062       18.429       21.939      402.466      339.617      481.335        0.326        0.061       72.456       10.339        0.020      343.913       20.361      863.264
07/04/2014  07:56:00       50.940       43.258        2.700       21.807       23.919       30.007      475.532      572.113      900.398        0.321        0.097       66.829       16.658        0.062      343.813       20.189      863.275
07/04/2014  07:57:00       43.571       25.480        5.252       25.043       19.243       23.892      627.167      370.280      570.819        0.207        0.078       50.475       14.844        0.086      343.781       20.136      863.285
07/04/2014  07:58:00       24.281       24.103        7.505       14.560       15.586       18.489      211.994      242.929      341.858        0.101        0.040       34.213        1.572        0.002      343.898       20.335      863.278
07/04/2014  07:59:00        9.942       42.241        1.087       23.928       38.031       14.191      572.567     1446.378      201.372        0.205        0.111       43.395       11.618        0.072      343.999       20.507      863.281
07/04/2014  08:00:00       -4.597       38.880        7.478       14.472       36.913       20.376      209.445     1362.558      415.177        0.179        0.099       39.151       17.857        0.208      344.529       21.412      863.275
07/04/2014  08:01:00       59.880       39.600       24.105       35.446       28.665       21.677     1256.408      821.668      469.892        0.414        0.127       71.790       20.736        0.083      344.220       20.885      863.279
07/04/2014  08:02:00       28.271       24.444       24.197       35.866       21.813       22.276     1286.397      475.786      496.222        0.212        0.113       37.373       20.641        0.305      344.440       21.260      863.288
07/04/2014  08:03:00       47.309       50.225       23.858       31.379       21.269       25.805      984.670      452.376      665.916        0.372        0.105       68.998       20.780        0.091      344.205       20.859      863.293
07/04/2014  08:04:00       31.965       40.316       11.523       17.224       15.973       24.162      296.676      255.137      583.796        0.196        0.057       51.451        5.745        0.012      344.246       20.928      863.302
07/04/2014  08:05:00       31.556       29.533        6.241       16.447       17.343       19.127      270.496      300.763      365.829        0.142        0.047       43.220       13.420        0.096      344.230       20.900      863.310
07/04/2014  08:06:00      -17.439       11.827       27.112       15.303       13.888        9.700      234.177      192.869       94.088        0.085        0.026       21.071        3.805        0.033      344.887       22.026      863.315
07/04/2014  08:07:00        5.708       -5.388        9.139       11.904       12.420       18.338      141.704      154.246      336.274        0.039        0.032        7.849       10.677        1.850      344.580       21.500      863.316
07/04/2014  08:08:00       16.891       -2.375        9.515       25.509       22.389       23.986      650.729      501.249      575.330        0.105        0.086       17.057       15.153        0.789      344.662       21.641      863.310
07/04/2014  08:09:00       35.830       13.457       24.076       19.897       15.719       21.469      395.891      247.088      460.936        0.157        0.055       38.273       10.833        0.080      344.662       21.640      863.307
07/04/2014  08:10:00       24.601        2.390       18.982       19.878       17.584       19.719      395.118      309.201      388.850        0.103        0.055       24.717       13.702        0.307      344.719       21.738      863.306
07/04/2014  08:11:00       15.963        5.573       25.629       28.713       22.918       20.633      824.456      525.257      425.702        0.136        0.089       16.907       14.999        0.787      344.595       21.525      863.300
07/04/2014  08:12:00       13.198       13.456       26.767       25.531       17.658       17.326      651.832      311.803      300.187        0.117        0.063       18.848       16.861        0.800      344.989       22.200      863.298
07/04/2014  08:13:00        9.467        7.923       23.935       25.739       16.688       13.983      662.486      278.494      195.518        0.093        0.057       12.345       14.209        1.325      345.267       22.678      863.297
07/04/2014  08:14:00       22.051       18.046       22.069       31.245       18.058       18.657      976.240      326.096      348.075        0.147        0.083       28.494       11.150        0.153      345.100       22.391      863.296
07/04/2014  08:15:00        9.913       22.487       10.346       19.588       20.445       18.298      383.709      418.014      334.815        0.092        0.057       24.575       12.899        0.276      344.999       22.218      863.306
07/04/2014  08:16:00        1.840       28.566        9.422       16.631       20.393       24.809      276.600      415.875      615.495        0.111        0.065       28.625       18.806        0.432      344.772       21.828      863.315
07/04/2014  08:17:00       16.216       34.556       -6.727       17.209       13.377       14.312      296.140      178.948      204.838        0.109        0.034       38.172        9.081        0.057      344.407       21.204      863.328
07/04/2014  08:18:00       -1.053       10.417       19.814       12.368       13.669       19.921      152.957      186.832      396.832        0.062        0.037       10.470       13.326        1.620      345.410       22.921      863.335
07/04/2014  08:19:00       -1.390       19.852       16.619       15.794       23.529       22.179      249.460      553.628      491.906        0.098        0.065       19.900       17.799        0.800      345.204       22.568      863.340
07/04/2014  08:20:00       -0.615      -16.026       19.484       32.957       23.081       25.744     1086.149      532.747      662.754        0.146        0.114       16.038       21.058        1.724      345.214       22.587      863.343
07/04/2014  08:21:00       -6.564       -7.634       11.383       18.422       16.607       14.572      339.372      275.792      212.354        0.053        0.041       10.068       11.254        1.250      345.197       22.557      863.347
07/04/2014  08:22:00      -16.921        6.887       27.057       17.745       21.215       16.470      314.901      450.057      271.247        0.105        0.052       18.269        9.661        0.280      345.642       23.320      863.356
07/04/2014  08:23:00      -39.755       16.684       17.094       19.981       14.157       15.936      399.226      200.422      253.963        0.150        0.043       43.114       12.323        0.082      344.978       22.182      863.355
07/04/2014  08:24:00      -20.308       12.781       25.048       16.894       15.222       12.695      285.411      231.709      161.164        0.094        0.034       23.995        6.518        0.074      345.629       23.297      863.354
07/04/2014  08:25:00        6.786       35.091       14.215       16.283       24.939       22.130      265.140      621.955      489.740        0.143        0.069       35.741       18.783        0.276      345.471       23.026      863.352
07/04/2014  08:26:00       56.070       45.619       19.991       35.404       18.511       27.437     1253.409      342.659      752.764        0.399        0.117       72.283       10.294        0.020      345.225       22.602      863.339
07/04/2014  08:27:00       47.707       29.974       21.150       30.898       24.360       22.250      954.709      593.424      495.080        0.283        0.102       56.342       10.997        0.038      345.183       22.531      863.346
07/04/2014  08:28:00       36.997       48.551        8.979       31.522       29.060       27.893      993.637      844.498      778.046        0.321        0.131       61.041       15.216        0.062      345.200       22.560      863.342
07/04/2014  08:29:00       38.354       29.368       17.236       30.303       28.129       37.833      918.293      791.222     1431.330        0.289        0.157       48.306       23.661        0.240      345.525       23.118      863.345
07/04/2014  08:30:00       36.348       53.383       14.764       32.487       42.701       27.673     1055.422     1823.389      765.792        0.402        0.182       64.583       21.484        0.111      345.195       22.552      863.349
07/04/2014  08:31:00       89.164       73.388       12.445       26.031       22.938       26.500      677.592      526.166      702.241        0.770        0.095      115.481       17.642        0.023      344.737       21.769      863.359
07/04/2014  08:32:00       73.337       63.603       -0.490       20.722       27.916       25.927      429.392      779.311      672.206        0.565        0.094       97.075       10.059        0.011      344.864       21.987      863.352
07/04/2014  08:33:00       49.445       54.278        8.894       28.224       29.128       27.015      796.571      848.439      729.831        0.392        0.119       73.423       21.321        0.084      344.980       22.185      863.347
07/04/2014  08:34:00       38.316       42.385       12.649       42.127       29.246       25.574     1774.702      855.354      654.027        0.335        0.164       57.136       20.305        0.126      345.518       23.106      863.356
07/04/2014  08:35:00        6.372       10.141       13.038       21.433       21.274       20.086      459.358      452.565      403.452        0.081        0.066       11.977       13.697        1.308      345.903       23.766      863.364
07/04/2014  08:36:00       12.189       13.129       26.074       25.548       19.082       27.333      652.715      364.126      747.075        0.138        0.088       17.915       17.435        0.947      346.185       24.251      863.371
07/04/2014  08:37:00      -26.704       -9.927       38.678       20.883       40.112       23.541      436.092     1608.950      554.177        0.245        0.130       28.490       28.601        1.008      345.517       23.104      863.380
07/04/2014  08:38:00      -12.327      -26.043       23.913       43.687       31.120       25.226     1908.588      968.471      636.348        0.246        0.176       28.813       20.460        0.504      345.538       23.142      863.379
07/04/2014  08:39:00       11.493      -52.339       32.492       24.802       51.924       34.743      615.129     2696.146     1207.084        0.422        0.226       53.586       29.868        0.311      345.904       23.769      863.382
07/04/2014  08:40:00       -9.608      -70.629       11.150       26.436       24.869       32.230      698.849      618.491     1038.804        0.378        0.118       71.280       20.270        0.081      345.310       22.748      863.388
07/04/2014  08:41:00      -28.462      -35.194       -3.770       15.612       25.594       16.033      243.729      655.049      257.046        0.161        0.058       45.262       14.032        0.096      345.169       22.509      863.390
07/04/2014  08:42:00       -0.751       17.744       21.067       35.985       20.595       25.627     1294.893      424.166      656.765        0.157        0.119       17.760       18.694        1.108      345.699       23.416      863.390
07/04/2014  08:43:00        8.632       33.805       13.271       25.713       25.956       25.580      661.160      673.728      654.350        0.169        0.099       34.890       20.926        0.360      345.528       23.123      863.384
07/04/2014  08:44:00       12.330       21.434        9.921       21.310       19.414       28.594      454.114      376.913      817.606        0.118        0.082       24.727       17.265        0.487      346.040       24.002      863.375
07/04/2014  08:45:00        3.885       10.829       19.911       19.800       13.109       16.847      392.029      171.834      283.814        0.069        0.042       11.505       15.373        1.785      345.982       23.904      863.371
07/04/2014  08:46:00       -0.433        4.162       26.375       32.036       14.633       15.103     1026.282      214.133      228.104        0.109        0.073        4.185        7.908        3.571      346.253       24.368      863.365
07/04/2014  08:47:00       34.278       28.399       35.328       47.020       39.871       22.586     2210.907     1589.668      510.148        0.377        0.216       44.514       19.426        0.190      346.054       24.026      863.374
07/04/2014  08:48:00       52.069       52.200       20.512       30.761       32.283       26.927      946.259     1042.181      725.089        0.428        0.136       73.729       20.177        0.075      345.605       23.255      863.371
07/04/2014  08:49:00       35.261       22.250       29.988       40.654       29.898       27.285     1652.731      893.896      744.486        0.296        0.165       41.694       10.710        0.066      346.158       24.204      863.376
07/04/2014  08:50:00      129.914       80.554       12.953       36.088       37.202       33.142     1302.379     1384.003     1098.365        1.366        0.189      152.861       21.936        0.021      345.389       22.885      863.377
07/04/2014  08:51:00       60.841       64.774       13.301       55.936       38.182       34.483     3128.876     1457.828     1189.097        0.692        0.289       88.867       18.682        0.044      345.842       23.661      863.377
07/04/2014  08:52:00       39.670       32.093       25.709       29.812       26.579       23.944      888.784      706.417      573.325        0.272        0.108       51.026       13.056        0.065      346.423       24.660      863.374
07/04/2014  08:53:00       29.464       20.563       24.487       25.068       20.455       19.886      628.418      418.424      395.448        0.167        0.072       35.930        7.618        0.045      346.380       24.586      863.382
07/04/2014  08:54:00       15.608       34.177       59.522       35.997       50.883       39.930     1295.783     2589.105     1594.442        0.522        0.274       37.572       33.995        0.819      346.487       24.769      863.381
07/04/2014  08:55:00       57.542       73.862       31.072       28.809       24.791       34.459      829.931      614.583     1187.457        0.618        0.132       93.630       12.563        0.018      345.608       23.258      863.390
07/04/2014  08:56:00       52.365       72.642       46.831       50.017       47.593       34.322     2501.734     2265.139     1177.989        0.808        0.297       89.548       14.706        0.027      345.895       23.753      863.394
07/04/2014  08:57:00       -1.159       40.980       74.066       28.810       50.414       28.666      829.993     2541.556      821.743        0.568        0.210       40.996       26.812        0.428      346.571       24.916      863.398
07/04/2014  08:58:00      -12.917      -14.723       58.031       28.115       46.316       25.892      790.466     2145.134      670.403        0.368        0.180       19.586       29.326        2.242      346.538       24.859      863.397
07/04/2014  08:59:00      -10.105       13.400       52.135       17.514       30.253       21.304      306.733      915.245      453.878        0.234        0.084       16.783       21.598        1.656      347.040       25.722      863.392
07/04/2014  09:00:00      -11.726       25.105       61.145       25.620       38.700       26.203      656.361     1497.666      686.609        0.367        0.142       27.709       24.901        0.808      346.480       24.758      863.385
07/04/2014  09:01:00        2.610       15.943       54.438       22.343       19.459       11.920      499.189      378.634      142.078        0.212        0.051       16.155        7.225        0.200      346.897       25.477      863.379
07/04/2014  09:02:00      -56.875       23.758       43.166       43.500       26.987       22.880     1892.246      728.325      523.485        0.440        0.157       61.637       18.162        0.087      346.059       24.035      863.376
07/04/2014  09:03:00      -19.081       13.361       54.987       20.049       23.975       19.637      401.951      574.795      385.607        0.246        0.068       23.294       16.882        0.525      346.715       25.163      863.382
07/04/2014  09:04:00       -7.931        2.286       39.629        9.861       10.829        9.432       97.244      117.273       88.956        0.097        0.015        8.254        4.945        0.359      347.455       26.438      863.379
07/04/2014  09:05:00        9.317       12.757       27.042       29.356       20.411       19.902      861.752      416.628      396.109        0.133        0.084       15.797       12.887        0.666      346.856       25.406      863.376
07/04/2014  09:06:00       15.995       42.508       10.878       21.918       34.833       22.953      480.384     1213.370      526.837        0.220        0.111       45.418       20.459        0.203      346.228       24.325      863.371
07/04/2014  09:07:00       28.409       25.531       16.516       26.390       22.976       22.550      696.422      527.878      508.501        0.173        0.087       38.196       13.422        0.123      346.477       24.753      863.366
07/04/2014  09:08:00       32.114       37.139       12.012       42.319       49.580       23.566     1790.932     2458.131      555.350        0.368        0.240       49.098       18.889        0.148      346.639       25.032      863.368
07/04/2014  09:09:00       64.247       29.275       12.168       64.691       34.034       32.854     4184.926     1158.325     1079.354        0.578        0.321       70.602       37.792        0.287      346.831       25.362      863.367
07/04/2014  09:10:00       20.391       65.569       11.769       30.254       40.962       35.321      915.318     1677.894     1247.577        0.435        0.192       68.667       29.725        0.187      346.588       24.946      863.371
07/04/2014  09:11:00       69.095       60.776        6.003       26.800       25.884       30.614      718.263      669.985      937.189        0.541        0.116       92.020       22.116        0.058      346.046       24.013      863.372
07/04/2014  09:12:00       78.428       57.463       -2.018       36.885       35.591       30.271     1360.511     1266.719      916.345        0.650        0.177       97.226       13.016        0.018      346.228       24.325      863.373
07/04/2014  09:13:00       38.955       63.243        2.851       36.629       30.152       26.690     1341.686      909.119      712.376        0.424        0.148       74.277       17.820        0.058      346.569       24.910      863.372
07/04/2014  09:14:00        6.133       20.085       55.343       44.479       44.985       34.707     1978.409     2023.661     1204.596        0.435        0.260       21.000       19.336        0.848      346.983       25.624      863.369
07/04/2014  09:15:00       30.690      -74.837       44.014       39.540       63.290       32.404     1563.429     4005.658     1050.026        0.755        0.331       80.885       34.516        0.182      346.285       24.424      863.358
07/04/2014  09:16:00       10.304       31.570       41.989       43.604       32.567       27.686     1901.288     1060.635      766.491        0.330        0.186       33.209       18.507        0.311      346.941       25.552      863.363
07/04/2014  09:17:00       51.093       30.059       26.330       47.552       31.175       34.800     2261.177      971.874     1211.046        0.432        0.222       59.279       25.721        0.188      346.516       24.820      863.360
07/04/2014  09:18:00       49.606       71.595       -1.846       47.687       48.776       33.386     2274.069     2379.132     1114.625        0.668        0.288       87.101       26.777        0.095      346.387       24.597      863.358
07/04/2014  09:19:00       73.182       57.469       10.444       49.436       35.973       29.551     2443.925     1294.085      873.243        0.669        0.231       93.050       25.618        0.076      346.223       24.317      863.352
07/04/2014  09:20:00      105.917       21.992       45.814       80.756       48.933       43.645     6521.454     2394.470     1904.889        1.231        0.541      108.176       42.446        0.154      346.508       24.806      863.348
07/04/2014  09:21:00        3.027       70.919      102.458       55.024       66.599       45.613     3027.640     4435.467     2080.562        1.254        0.477       70.984       45.212        0.406      346.646       25.044      863.331
07/04/2014  09:22:00       65.134       82.366       70.835       53.729       39.961       47.337     2886.777     1596.853     2240.759        1.138        0.336      105.007       35.073        0.112      346.308       24.463      863.334
07/04/2014  09:23:00       33.754       50.890       62.114       50.108       39.265       29.740     2510.848     1541.722      884.482        0.626        0.247       61.066       24.252        0.158      346.689       25.118      863.343
07/04/2014  09:24:00      104.653       90.251       53.236       52.452       35.225       49.326     2751.208     1240.803     2433.044        1.418        0.321      138.194       35.480        0.066      346.260       24.380      863.326
07/04/2014  09:25:00       44.832        9.112       19.326       52.108       44.118       26.314     2715.269     1946.431      692.418        0.391        0.268       45.749       19.349        0.179      346.723       25.178      863.323
07/04/2014  09:26:00       83.340       45.718       14.294       55.407       36.009       29.425     3069.888     1296.616      865.835        0.724        0.262       95.057       22.908        0.058      346.718       25.168      863.307
07/04/2014  09:27:00      150.527       64.596        4.803       52.742       46.452       46.231     2781.746     2157.778     2137.326        1.696        0.354      163.802       20.667        0.016      346.456       24.716      863.299
07/04/2014  09:28:00      118.113       78.570       16.067       59.324       47.411       41.291     3519.379     2247.835     1704.977        1.393        0.374      141.859       27.537        0.038      346.534       24.851      863.299
07/04/2014  09:29:00       97.712       58.000       11.215       55.939       44.882       42.191     3129.189     2014.351     1780.100        0.998        0.346      113.629       23.019        0.041      346.380       24.587      863.287
07/04/2014  09:30:00       73.266       52.720       20.859       50.524       37.824       35.461     2552.660     1430.620     1257.482        0.691        0.262       90.262       14.827        0.027      346.672       25.088      863.291
07/04/2014  09:31:00       30.283       30.399       40.999       54.897       48.178       30.069     3013.700     2321.095      904.153        0.488        0.312       42.909       22.896        0.285      346.894       25.469      863.284
07/04/2014  09:32:00       73.393       48.550       25.024       57.966       44.716       42.868     3360.043     1999.505     1837.668        0.778        0.360       87.998       37.751        0.184      346.716       25.165      863.290
07/04/2014  09:33:00       91.599       64.826       36.802       41.973       34.871       32.894     1761.727     1215.990     1082.001        0.900        0.203      112.217       28.394        0.064      346.421       24.658      863.294
07/04/2014  09:34:00       73.858       23.051       -2.346       33.016       36.323       33.186     1090.080     1319.393     1101.326        0.475        0.176       77.372       25.596        0.109      346.622       25.001      863.290
07/04/2014  09:35:00       26.150       12.805       40.154       38.495       41.280       33.760     1481.866     1704.019     1139.762        0.339        0.216       29.117       23.474        0.650      347.295       26.161      863.281
07/04/2014  09:36:00       51.847       19.763       33.513       49.985       50.284       29.295     2498.536     2528.438      858.174        0.504        0.294       55.485       20.064        0.131      347.111       25.845      863.277
07/04/2014  09:37:00      133.476       80.498        8.668       46.961       46.231       43.435     2205.323     2137.337     1886.621        1.530        0.311      155.870       23.748        0.023      346.617       24.993      863.281
07/04/2014  09:38:00       76.239       86.476       56.469       57.308       46.277       53.249     3284.254     2141.543     2835.424        1.237        0.413      115.284       38.995        0.114      346.995       25.644      863.263
07/04/2014  09:39:00       42.628       40.092       64.390       47.776       47.291       42.820     2282.593     2236.395     1833.549        0.696        0.318       58.520       38.208        0.426      347.190       25.980      863.276
07/04/2014  09:40:00       65.644       79.744       69.815       69.001       47.588       51.366     4761.084     2264.662     2638.505        1.260        0.483      103.287       47.850        0.215      346.823       25.349      863.252
07/04/2014  09:41:00       42.996       51.781       13.026       28.796       35.476       21.689      829.227     1258.539      470.402        0.363        0.128       67.305       18.000        0.072      346.596       24.956      863.255
07/04/2014  09:42:00       64.789       65.213        3.902       53.008       36.706       33.740     2809.795     1347.306     1138.383        0.688        0.265       91.926       26.704        0.084      347.020       25.687      863.235
07/04/2014  09:43:00       -0.714       35.422       -6.127       74.516       37.111       27.478     5552.683     1377.262      755.060        0.449        0.384       35.429       15.450        0.190      346.932       25.535      863.230
07/04/2014  09:44:00       -9.168       23.524       12.615       35.439       27.468       27.772     1255.941      754.487      771.260        0.179        0.139       25.248       21.148        0.702      347.515       26.541      863.219
07/04/2014  09:45:00       -6.893       19.434       34.156       31.773       40.483       26.285     1009.537     1638.887      690.927        0.247        0.167       20.620       22.557        1.197      347.938       27.271      863.211
07/04/2014  09:46:00       40.646       34.469       36.038       47.747       31.302       39.371     2279.807      979.842     1550.037        0.447        0.240       53.294       23.220        0.190      347.534       26.574      863.208
07/04/2014  09:47:00       82.801       42.471       21.526       23.949       29.276       32.511      573.542      857.089     1056.991        0.580        0.124       93.058       11.740        0.016      346.803       25.313      863.221
07/04/2014  09:48:00       72.419       27.370      -15.849       42.403       20.692       20.743     1797.985      428.173      430.263        0.445        0.133       77.418       12.100        0.024      346.751       25.222      863.217
07/04/2014  09:49:00       21.116       33.076       40.532       31.596       60.651       46.306      998.324     3678.492     2144.210        0.500        0.341       39.241       44.508        1.286      347.408       26.357      863.212
07/04/2014  09:50:00       32.096       83.063       99.952       51.897       44.096       40.992     2693.304     1944.444     1680.305        1.212        0.316       89.048       23.079        0.067      347.129       25.875      863.205
07/04/2014  09:51:00       59.503       48.527       54.739       35.821       61.690       39.009     1283.146     3805.697     1521.721        0.775        0.331       76.782       37.779        0.242      346.942       25.553      863.208
07/04/2014  09:52:00       48.656       50.456       48.647       38.725       29.971       31.313     1499.640      898.260      980.505        0.533        0.169       70.094       20.234        0.083      347.126       25.869      863.199
07/04/2014  09:53:00       21.076       19.384       48.469       31.325       41.645       31.522      981.253     1734.302      993.646        0.344        0.185       28.635       13.175        0.212      347.321       26.206      863.186
07/04/2014  09:54:00       49.003       49.534       19.732       34.832       26.686       26.827     1213.247      712.164      719.675        0.394        0.132       69.677       18.852        0.073      347.218       26.028      863.174
07/04/2014  09:55:00       81.905       77.023       16.085       37.079       29.378       30.358     1374.886      863.088      921.608        0.803        0.158      112.432       18.315        0.027      347.178       25.960      863.160
07/04/2014  09:56:00       31.237       32.325       40.638       47.595       83.046       63.953     2265.291     6896.593     4090.006        0.846        0.663       44.952       55.612        1.531      347.766       26.973      863.143
07/04/2014  09:57:00       87.036      -39.168       26.251       64.072       82.676       56.453     4105.219     6835.277     3186.997        1.196        0.706       95.443       64.708        0.460      347.472       26.466      863.133
07/04/2014  09:58:00       67.121      -16.437       30.775       60.835       74.762       45.551     3700.918     5589.293     2074.908        0.854        0.568       69.104       41.002        0.352      347.561       26.619      863.132
07/04/2014  09:59:00       42.631      -36.220       35.777       64.914       68.196       46.164     4213.842     4650.688     2131.107        0.770        0.550       55.939       37.888        0.459      347.665       26.799      863.128
07/04/2014  10:00:00       88.918       59.457       71.639       68.655       68.600       56.373     4713.543     4705.987     3177.894        1.458        0.630      106.966       59.608        0.311      347.343       26.243      863.133
07/04/2014  10:01:00       94.810       53.820       52.919       83.108       64.508       43.436     6906.894     4161.336     1886.712        1.382        0.648      109.021       30.212        0.077      347.564       26.624      863.123
07/04/2014  10:02:00       71.000       48.977       68.182       69.105       63.546       51.820     4775.526     4038.122     2685.363        1.179        0.575       86.254       44.876        0.271      347.642       26.760      863.127
07/04/2014  10:03:00       54.989       99.702       88.916       74.447       60.076       55.065     5542.390     3609.077     3032.146        1.652        0.609      113.861       46.192        0.165      347.688       26.838      863.111
07/04/2014  10:04:00       15.521       63.942       66.475       53.403       50.362       47.754     2851.906     2536.356     2280.453        0.821        0.383       65.799       15.535        0.056      348.095       27.541      863.118
07/04/2014  10:05:00       91.447       45.381       35.997       52.904       49.274       44.602     2798.860     2427.928     1989.298        0.947        0.361      102.088       31.960        0.098      347.850       27.119      863.108
07/04/2014  10:06:00       62.978      -92.125       17.883       67.280      101.450       47.453     4526.540    10292.165     2251.756        1.492        0.854      111.594       36.004        0.104      347.912       27.225      863.091
07/04/2014  10:07:00       -0.818       18.148       54.879       29.055       46.837       35.696      844.192     2193.720     1274.214        0.383        0.216       18.166       32.165        3.135      348.564       28.353      863.099
07/04/2014  10:08:00      157.991       35.338       32.912       94.961       64.184       67.688     9017.560     4119.572     4581.725        2.250        0.886      161.895       36.987        0.052      347.594       26.674      863.105
07/04/2014  10:09:00      168.808      102.282       53.560       66.162       59.919       50.929     4377.347     3590.292     2593.740        2.619        0.528      197.377       28.523        0.021      347.384       26.311      863.103
07/04/2014  10:10:00      110.398       83.218       85.120       60.534       68.329       51.123     3664.383     4668.800     2613.560        1.865        0.547      138.250       32.882        0.057      347.602       26.689      863.090
07/04/2014  10:11:00       59.646       60.930       60.258       54.384       65.936       46.464     2957.620     4347.535     2158.866        1.018        0.473       85.265       37.920        0.198      347.934       27.263      863.098
07/04/2014  10:12:00       18.234       27.491       55.476       36.054       60.526       41.353     1299.875     3663.352     1710.048        0.542        0.334       32.989       37.064        1.262      348.471       28.192      863.080
07/04/2014  10:13:00      -20.262       -5.179       61.230       21.982       67.886       44.333      483.230     4608.467     1965.451        0.562        0.353       20.914       50.727        5.883      348.184       27.696      863.072
07/04/2014  10:14:00       30.271       22.018       63.810       56.708       78.448       46.319     3215.760     6154.065     2145.472        0.849        0.576       37.431       50.436        1.816      348.054       27.469      863.066
07/04/2014  10:15:00       81.433      102.449       75.161       74.509       84.808       72.507     5551.529     7192.351     5257.266        2.039        0.900      130.870       60.213        0.212      347.885       27.177      863.042
07/04/2014  10:16:00      192.617      123.636       66.218       76.466       68.072       56.960     5846.982     4633.752     3244.485        3.525        0.686      228.883       42.135        0.034      347.718       26.888      863.049
07/04/2014  10:17:00      106.074       90.098       39.667       81.079       49.553       59.483     6573.764     2455.491     3538.244        1.675        0.628      139.174       50.003        0.129      347.922       27.242      863.052
07/04/2014  10:18:00      107.599       82.567       18.354       48.333       41.881       50.561     2336.060     1754.036     2556.372        1.269        0.332      135.627       24.961        0.034      347.856       27.129      863.046
07/04/2014  10:19:00      124.274       83.479       21.672       77.236       46.613       41.174     5965.356     2172.746     1695.322        1.636        0.492      149.709       21.325        0.020      347.993       27.363      863.044
07/04/2014  10:20:00       55.287       39.103       37.699       58.544       50.649       48.104     3427.352     2565.326     2313.964        0.716        0.415       67.718       41.529        0.376      348.332       27.951      863.041
07/04/2014  10:21:00      122.947       68.787       33.421       89.652       54.698       50.548     8037.507     2991.864     2555.144        1.727        0.679      140.882       25.244        0.032      348.340       27.964      863.031
07/04/2014  10:22:00      111.251       69.482       30.099       61.309       51.818       45.735     3758.810     2685.088     2091.654        1.332        0.427      131.166       23.419        0.032      348.167       27.665      863.039
07/04/2014  10:23:00       99.327      108.797       95.028       65.509       61.588       55.006     4291.461     3793.104     3025.649        2.092        0.556      147.318       33.404        0.051      348.063       27.484      863.035
07/04/2014  10:24:00      166.367      116.389       49.779       46.309       41.336       49.407     2144.503     1708.681     2441.048        2.500        0.315      203.037       21.397        0.011      347.808       27.043      863.048
07/04/2014  10:25:00       85.744       93.593       74.797       77.717       59.209       45.090     6040.009     3505.735     2033.078        1.664        0.579      126.932       33.247        0.069      348.316       27.923      863.055
07/04/2014  10:26:00       -0.568       90.184      114.480       46.966       56.514       31.880     2205.824     3193.793     1016.317        1.383        0.321       90.186       32.791        0.132      348.318       27.928      863.049
07/04/2014  10:27:00       90.962      136.126       43.180       65.694       69.514       67.201     4315.666     4832.202     4516.040        2.116        0.683      163.720       51.033        0.097      348.164       27.659      863.043
07/04/2014  10:28:00       78.009      150.567      -32.379       45.854       48.190       27.098     2102.622     2322.306      734.306        1.748        0.258      169.575       18.240        0.012      347.588       26.667      863.056
07/04/2014  10:29:00       59.832       64.257       10.687       66.650       39.636       47.679     4442.216     1571.041     2273.253        0.805        0.414       87.800       46.536        0.281      347.731       26.913      863.035
07/04/2014  10:30:00       82.628       89.559       -0.606       36.984       35.188       37.635     1367.819     1238.180     1416.384        0.943        0.201      121.853       21.721        0.032      347.683       26.830      863.033
07/04/2014  10:31:00       99.416       79.377       20.745       52.050       43.320       46.943     2709.181     1876.664     2203.636        1.170        0.339      127.218       25.067        0.039      348.001       27.379      863.035
07/04/2014  10:32:00       55.043      -19.977       -2.262       44.423       72.978       43.875     1973.384     5325.830     1925.038        0.633        0.461       58.556       37.381        0.408      348.188       27.703      863.041
07/04/2014  10:33:00       41.505     -168.653      -13.332       46.096       73.850       34.117     2124.864     5453.767     1163.961        1.954        0.437      173.685        5.013        0.001      347.877       27.163      863.049
07/04/2014  10:34:00       19.786     -132.209      -19.714       83.858       41.211       32.965     7032.165     1698.322     1086.665        1.404        0.491      133.681       38.099        0.081      347.915       27.229      863.054
07/04/2014  10:35:00      -39.630      -69.562        3.060       96.959       60.342       38.453     9401.076     3641.102     1478.664        1.047        0.726       80.059       41.440        0.268      348.283       27.866      863.043
07/04/2014  10:36:00      -10.795      -73.338      -29.375       57.585       52.524       33.519     3316.075     2758.745     1123.515        0.678        0.360       74.129       19.254        0.067      348.325       27.940      863.044
07/04/2014  10:37:00      -74.742      -71.065        6.824       77.381       53.044       36.213     5987.807     2813.663     1311.377        1.040        0.506      103.134       33.496        0.105      348.162       27.657      863.050
07/04/2014  10:38:00      -44.538      -45.396       18.454       46.410       48.768       31.684     2153.902     2378.286     1003.885        0.496        0.277       63.596       30.963        0.237      348.490       28.226      863.059
07/04/2014  10:39:00      -25.473      -60.397       12.066       49.417       48.651       38.456     2441.996     2366.919     1478.842        0.536        0.314       65.549       34.989        0.285      348.326       27.943      863.070
07/04/2014  10:40:00      -23.614      -46.304        3.442       42.401       51.155       23.655     1797.872     2616.862      559.561        0.384        0.249       51.978       19.826        0.145      348.152       27.639      863.062
07/04/2014  10:41:00       12.507       15.908       29.833       23.800       23.653       21.864      566.417      559.447      478.044        0.145        0.080       20.236       14.629        0.523      349.224       29.496      863.075
07/04/2014  10:42:00      -27.275        4.187        0.374       43.623       32.799       36.785     1902.952     1075.784     1353.172        0.255        0.217       27.595       34.661        1.578      348.570       28.362      863.086
07/04/2014  10:43:00       -8.239        4.788       -4.640       56.871       29.006       27.742     3234.258      841.365      769.629        0.248        0.242        9.530       25.161        6.971      348.351       27.984      863.089
07/04/2014  10:44:00        6.811      102.354       14.479       53.035       80.857       43.816     2812.756     6537.917     1919.852        1.100        0.564      102.580       47.888        0.218      348.827       28.807      863.092
07/04/2014  10:45:00      -28.535      110.415        9.988       38.213       66.282       37.788     1460.217     4393.343     1427.964        1.019        0.364      114.042       33.324        0.085      348.862       28.870      863.089
07/04/2014  10:46:00       -0.440       99.944        9.449       44.152       55.536       34.722     1949.442     3084.268     1205.647        0.816        0.312       99.945       31.863        0.102      348.874       28.888      863.088
07/04/2014  10:47:00       50.821       49.176       63.317       44.310       57.575       33.736     1963.359     3314.862     1138.096        0.771        0.321       70.718       34.640        0.240      349.120       29.316      863.070
07/04/2014  10:48:00       54.008       38.631        6.693       49.430       36.819       29.106     2443.369     1355.636      847.149        0.455        0.232       66.402       24.464        0.136      348.234       27.780      863.073
07/04/2014  10:49:00        9.149      -15.080       -3.349       27.150       34.448       21.150      737.116     1186.663      447.314        0.135        0.119       17.638       13.229        0.563      348.412       28.088      863.059
07/04/2014  10:50:00       -8.351       34.723       22.955       27.308       46.155       29.330      745.732     2130.292      860.272        0.277        0.187       35.713       11.836        0.110      349.034       29.167      863.052
07/04/2014  10:51:00       -8.242        0.549       27.838       12.445       18.969       19.231      154.869      359.833      369.844        0.086        0.044        8.260       15.387        3.470      349.293       29.615      863.046
07/04/2014  10:52:00       62.247       36.275       30.292       96.350       83.655       48.971     9283.384     6998.150     2398.115        1.239        0.934       72.046       21.456        0.089      348.836       28.822      863.043
07/04/2014  10:53:00       72.385       52.708       27.754       77.178       43.739       46.721     5956.374     1913.105     2182.884        0.942        0.503       89.542       27.225        0.092      349.204       29.459      863.040
07/04/2014  10:54:00       64.706       81.034       18.814       51.699       34.910       39.593     2672.736     1218.731     1567.612        0.828        0.273      103.698       21.202        0.042      348.805       28.769      863.040
07/04/2014  10:55:00      135.537      129.697       93.154      104.693       64.134       77.133    10960.543     4113.179     5949.481        3.244        1.051      187.594       72.417        0.149      348.486       28.214      863.035
07/04/2014  10:56:00      135.835       71.392       27.848       78.928       52.060       45.851     6229.592     2710.268     2102.290        1.768        0.552      153.454       37.065        0.058      348.441       28.138      863.047
07/04/2014  10:57:00       96.673       48.854        5.133       51.763       40.011       45.072     2679.371     1600.843     2031.467        0.903        0.316      108.316       22.611        0.044      348.482       28.210      863.045
07/04/2014  10:58:00       61.470       25.402       57.839       66.260       87.547       52.260     4390.411     7664.412     2731.082        1.128        0.739       66.511       45.409        0.466      348.963       29.043      863.050
07/04/2014  10:59:00       62.050       32.387       68.427       62.506       80.745       60.551     3906.986     6519.793     3666.481        1.183        0.705       69.994       48.067        0.472      348.974       29.062      863.048
07/04/2014  11:00:00       31.365       52.668       90.973       70.733       66.465       41.778     5003.118     4417.598     1745.389        1.160        0.558       61.300       39.725        0.420      348.949       29.019      863.065
07/04/2014  11:01:00       66.935       74.634       29.964       60.313       45.060       45.164     3637.666     2030.368     2039.830        0.933        0.385      100.252       41.349        0.170      348.851       28.848      863.064
07/04/2014  11:02:00       17.194      -11.593       17.138       37.343       52.467       24.725     1394.523     2752.786      611.304        0.274        0.238       20.737       19.092        0.848      349.205       29.463      863.075
07/04/2014  11:03:00      -11.324      -15.554       45.531       35.490       74.398       36.265     1259.541     5535.118     1315.132        0.528        0.405       19.239       35.394        3.384      349.447       29.882      863.080
07/04/2014  11:04:00        2.121        8.551       59.726       56.539      111.059       72.302     3196.647    12334.076     5227.651        1.220        1.038        8.810       71.622       66.090      348.969       29.052      863.080
07/04/2014  11:05:00       39.819      -18.249       31.863       61.277      105.056       63.313     3754.896    11036.742     4008.536        1.086        0.940       43.802       62.962        2.066      348.988       29.087      863.092
07/04/2014  11:06:00       12.949      -12.912       36.994       50.467       92.925       46.058     2546.876     8635.018     2121.297        0.750        0.665       18.287       56.119        9.418      348.662       28.522      863.087
07/04/2014  11:07:00        8.681       -8.200       38.417       23.405       32.449       25.459      547.775     1052.931      648.140        0.193        0.112       11.941       21.405        3.213      349.641       30.220      863.097
07/04/2014  11:08:00      -11.178        8.661       42.781       32.912       36.892       26.806     1083.169     1361.044      718.554        0.260        0.158       14.140       23.552        2.774      349.562       30.082      863.090
07/04/2014  11:09:00       -4.665       12.349       13.341       34.769       30.453       27.280     1208.872      927.405      744.200        0.162        0.144       13.201       18.207        1.902      349.532       30.031      863.089
07/04/2014  11:10:00       59.486      -17.069       11.187      114.760       52.499       43.261    13169.932     2756.104     1871.537        1.087        0.890       61.886       12.851        0.043      349.129       29.330      863.082
07/04/2014  11:11:00       24.073      -99.140       18.953       69.653       84.722       61.045     4851.583     7177.895     3726.468        1.326        0.788      102.021       46.559        0.208      349.137       29.343      863.073
07/04/2014  11:12:00      -26.166      -50.709        4.741       96.220       60.976       45.272     9258.258     3718.069     2049.563        0.915        0.751       57.062       40.036        0.492      348.936       28.995      863.053
07/04/2014  11:13:00       58.369      -40.198       34.764       82.155      109.327       75.484     6749.481    11952.285     5697.814        1.531        1.220       70.872       76.247        1.157      348.859       28.862      863.074
07/04/2014  11:14:00       49.732      -51.731       14.128       52.477       66.582       53.408     2753.819     4433.123     2852.442        0.769        0.502       71.760       47.523        0.439      348.945       29.012      863.068
07/04/2014  11:15:00      130.664      -87.757       44.608      122.876      135.077       77.394    15098.617    18245.697     5989.773        3.304        1.967      157.399       99.546        0.400      348.849       28.842      863.059
07/04/2014  11:16:00      162.692     -101.162       63.755       95.753      188.163       96.649     9168.620    35405.223     9341.097        4.733        2.696      191.579      118.800        0.385      348.833       28.815      863.029
07/04/2014  11:17:00      122.069     -155.182       -6.089       60.576       95.190       56.068     3669.397     9061.173     3143.621        2.744        0.794      197.439       64.783        0.108      348.508       28.252      863.053
07/04/2014  11:18:00       30.120       -5.011       42.669       37.535       92.898       51.578     1408.876     8630.084     2660.323        0.772        0.635       30.534       62.559        4.198      348.851       28.851      863.051
07/04/2014  11:19:00       83.291      -89.744        6.426       84.203       98.486       62.625     7090.185     9699.454     3921.908        1.787        1.036      122.440       66.751        0.297      349.198       29.449      863.056
07/04/2014  11:20:00       50.542      -20.856       44.809       71.103       88.827       65.095     5055.660     7890.257     4237.423        1.109        0.859       54.676       70.726        1.673      349.562       30.082      863.052
07/04/2014  11:21:00      150.727     -157.827      -34.377       59.381       63.312       52.184     3526.089     4008.396     2723.220        2.953        0.513      218.238       33.516        0.024      348.783       28.725      863.054
07/04/2014  11:22:00       70.576      -99.801       20.990       60.890       77.646       47.827     3707.610     6028.879     2287.426        1.370        0.601      122.235       58.076        0.226      349.111       29.299      863.051
07/04/2014  11:23:00       34.436       76.202       69.697       47.901       63.414       66.047     2294.491     4021.316     4362.140        1.126        0.534       83.622       53.606        0.411      349.090       29.264      863.043
07/04/2014  11:24:00       38.067       46.277       38.198       37.796       31.327       25.932     1428.542      981.352      672.485        0.407        0.154       59.922       18.504        0.095      349.089       29.263      863.023
07/04/2014  11:25:00      113.569       87.489       16.589       70.569       42.826       50.468     4980.045     1834.098     2547.021        1.509        0.468      143.360       29.152        0.041      348.857       28.857      863.006
07/04/2014  11:26:00      161.456      124.492       -4.901       59.828       46.785       43.945     3579.400     2188.797     1931.204        2.464        0.385      203.878       17.984        0.008      348.866       28.871      862.995
07/04/2014  11:27:00      134.894       96.567       -0.914       67.900       55.253       46.547     4610.400     3052.939     2166.592        1.867        0.491      165.897       23.557        0.020      348.691       28.570      863.000
07/04/2014  11:28:00       47.829       29.815       23.256       47.449       24.289       27.244     2251.407      589.974      742.211        0.365        0.179       56.361       14.805        0.069      349.157       29.380      862.974
07/04/2014  11:29:00       66.793       86.871       65.195       64.905       55.805       68.923     4212.599     3114.147     4750.439        1.417        0.604      109.581       47.686        0.189      349.361       29.732      862.954
07/04/2014  11:30:00       85.995       86.889      118.532       97.959      101.029       88.275     9595.992    10206.803     7792.482        2.829        1.380      122.249       82.373        0.454      349.028       29.152      862.945
07/04/2014  11:31:00      113.071        0.608       61.302       99.472      128.627       76.861     9894.583    16544.790     5907.565        2.444        1.617      113.072       73.458        0.422      349.058       29.206      862.944
07/04/2014  11:32:00       87.944      -19.298       36.392       51.623       61.014       44.248     2664.954     3722.676     1957.894        0.889        0.417       90.037       39.458        0.192      348.896       28.928      862.972
07/04/2014  11:33:00      183.548       89.256       41.103      106.829       67.223       65.226    11412.529     4518.888     4254.388        3.176        1.009      204.099       49.669        0.059      348.889       28.912      862.960
07/04/2014  11:34:00       58.279       68.842       44.200       38.991       32.298       48.932     1520.306     1043.134     2394.362        0.752        0.248       90.197       22.054        0.060      348.744       28.664      862.953
07/04/2014  11:35:00       93.909       73.456       45.106       67.750       37.471       46.796     4590.042     1404.098     2189.885        1.222        0.409      119.226       40.309        0.114      348.785       28.735      862.939
07/04/2014  11:36:00       19.426      102.184       20.735       35.623       54.886       48.984     1269.032     3012.496     2399.478        0.896        0.334      104.014       42.782        0.169      349.076       29.239      862.925
07/04/2014  11:37:00       17.037       62.502        2.672       33.973       51.663       28.579     1154.186     2669.069      816.744        0.442        0.232       64.782       27.625        0.182      349.031       29.161      862.905
07/04/2014  11:38:00       77.045       71.660       -3.469       44.310       40.703       32.911     1963.400     1656.704     1083.152        0.789        0.235      105.219       29.412        0.078      348.876       28.891      862.906
07/04/2014  11:39:00      147.575      125.563       17.336       61.101       54.822       50.496     3733.353     3005.484     2549.891        2.357        0.464      193.764       30.373        0.025      348.932       28.986      862.909
07/04/2014  11:40:00      157.575      100.857       12.642       68.823       49.463       42.775     4736.573     2446.580     1829.719        2.209        0.451      187.089       25.251        0.018      348.880       28.898      862.894
07/04/2014  11:41:00      106.290       72.612        7.848       66.690       65.236       43.417     4447.541     4255.731     1885.079        1.361        0.529      128.724       26.631        0.043      349.007       29.118      862.887
07/04/2014  11:42:00       15.711      -23.325       31.868       61.538       90.802       47.786     3786.981     8244.943     2283.462        0.806        0.716       28.123       51.235        3.319      349.338       29.693      862.888
07/04/2014  11:43:00       61.082      -25.311       26.127       46.890       61.574       35.656     2198.710     3791.335     1271.358        0.616        0.363       66.119       25.409        0.148      349.099       29.280      862.887
07/04/2014  11:44:00       45.324      -51.699       19.336       42.103       75.371       36.601     1772.651     5680.843     1339.634        0.695        0.440       68.753       41.992        0.373      349.539       30.042      862.878
07/04/2014  11:45:00       60.310      -24.295       39.653       68.440       52.202       40.848     4683.987     2725.028     1668.574        0.744        0.454       65.020       40.111        0.381      349.444       29.878      862.871
07/04/2014  11:46:00        1.543       42.510       30.086       36.217       34.428       36.823     1311.655     1185.309     1355.927        0.328        0.193       42.537        9.317        0.048      349.535       30.036      862.857
07/04/2014  11:47:00      122.310       52.655       32.755       85.867       57.186       43.549     7373.164     3270.207     1896.480        1.567        0.627      133.162       37.299        0.078      349.304       29.634      862.849
07/04/2014  11:48:00      140.258       78.901       23.808       78.691       68.946       62.592     6192.351     4753.503     3917.790        2.066        0.743      160.927       40.065        0.062      349.346       29.706      862.827
07/04/2014  11:49:00       95.705      104.507       26.064       76.997       64.389       60.498     5928.577     4145.946     3660.034        1.725        0.687      141.708       38.608        0.074      349.278       29.587      862.822
07/04/2014  11:50:00      161.057      110.556       13.019       73.598       64.440       48.045     5416.604     4152.561     2308.321        2.510        0.594      195.351       27.945        0.020      349.115       29.302      862.820
07/04/2014  11:51:00      234.146      133.588       33.049       87.544       69.797       61.199     7664.009     4871.598     3745.272        4.502        0.814      269.574       13.015        0.002      349.051       29.191      862.808
07/04/2014  11:52:00      100.429       69.062       -2.004       80.494       48.590       48.992     6479.302     2360.956     2400.168        1.305        0.562      121.883       34.419        0.080      349.003       29.112      862.813
07/04/2014  11:53:00       -7.161       79.689        5.146       51.426       49.830       42.705     2644.683     2483.054     1823.715        0.669        0.348       80.011       36.457        0.208      349.369       29.747      862.796
07/04/2014  11:54:00       -7.651       47.539       19.977       20.623       59.643       26.537      425.307     3557.329      704.233        0.370        0.234       48.151       30.570        0.403      349.982       30.811      862.778
07/04/2014  11:55:00       -0.828       11.413       40.498       17.764       20.179        9.819      315.570      407.200       96.413        0.129        0.041       11.443        8.051        0.495      350.182       31.157      862.769
07/04/2014  11:56:00       19.619       30.559       46.386       26.271       30.073       12.204      690.177      904.358      148.936        0.261        0.087       36.314       13.659        0.141      349.783       30.467      862.750
07/04/2014  11:57:00       44.397       69.293       44.236       39.680       33.893       34.584     1574.525     1148.753     1196.056        0.632        0.196       82.296       27.779        0.114      349.381       29.769      862.745
07/04/2014  11:58:00       25.135       40.523       49.212       24.463       32.542       21.211      598.435     1059.013      449.895        0.340        0.105       47.686        8.353        0.031      349.756       30.419      862.728
07/04/2014  11:59:00       33.336       34.616       33.492       44.751       48.593       61.555     2002.653     2361.295     3788.997        0.579        0.408       48.058       40.799        0.721      349.587       30.126      862.714
07/04/2014  12:00:00       71.078       47.228       39.854       40.452       68.911       54.483     1636.365     4748.729     2968.425        0.911        0.468       85.338       32.567        0.146      349.412       29.822      862.708
07/04/2014  12:01:00       27.616       30.281       19.460       49.724       38.928       39.772     2472.504     1515.361     1581.795        0.381        0.278       40.983       18.779        0.210      349.833       30.553      862.699
07/04/2014  12:02:00       29.473       10.946       39.017       54.754       47.718       31.539     2998.015     2276.994      994.679        0.439        0.313       31.440       20.988        0.446      350.020       30.877      862.688
07/04/2014  12:03:00       10.370       51.045       65.957       43.816       63.766       47.966     1919.855     4066.137     2300.702        0.767        0.414       52.088       36.470        0.490      349.785       30.469      862.662
07/04/2014  12:04:00       45.625       74.556        4.559       59.143       62.350       47.191     3497.895     3887.559     2227.004        0.864        0.481       87.409       38.560        0.195      349.775       30.451      862.662
07/04/2014  12:05:00      202.141       96.401       31.653       84.611       47.111       49.585     7159.067     2219.485     2458.656        3.149        0.592      223.951       28.161        0.016      349.469       29.916      862.642
07/04/2014  12:06:00      180.442      104.322        6.448       70.413       56.870       48.522     4957.960     3234.197     2354.401        2.701        0.527      208.428       30.632        0.022      349.601       30.145      862.624
07/04/2014  12:07:00       95.489       66.677        7.174       78.877       67.639       56.843     6221.598     4575.001     3231.119        1.382        0.701      116.464       37.696        0.105      350.011       30.860      862.618
07/04/2014  12:08:00       53.068      141.788      -11.441       55.304      151.142       54.952     3058.526    22843.953     3019.726        2.598        1.446      151.394       64.911        0.184      349.253       29.544      862.632
07/04/2014  12:09:00       35.275       29.132       18.482       34.121       23.642       22.259     1164.238      558.959      495.471        0.233        0.111       45.749        7.830        0.029      349.773       30.446      862.632
07/04/2014  12:10:00      -36.892        4.127       19.013       27.742       28.589       18.518      769.598      817.342      342.932        0.183        0.096       37.122       13.036        0.123      349.898       30.664      862.600
07/04/2014  12:11:00      -14.231       44.878       23.271       33.567       36.375       27.559     1126.727     1323.136      759.506        0.298        0.160       47.080       25.401        0.291      350.156       31.112      862.588
07/04/2014  12:12:00      -68.484       -5.997        9.005       63.588       53.287       35.414     4043.407     2839.455     1254.140        0.647        0.407       68.746       37.886        0.304      349.965       30.781      862.568
07/04/2014  12:13:00      -47.882      -41.599        9.057       72.195       46.867       37.102     5212.164     2196.490     1376.529        0.644        0.439       63.428       21.131        0.111      349.767       30.437      862.557
07/04/2014  12:14:00      -79.456       27.445        4.678       55.290       58.657       34.479     3057.035     3440.594     1188.817        0.739        0.384       84.062       30.123        0.128      349.851       30.585      862.549
07/04/2014  12:15:00      -20.245      113.901        8.813       42.100       80.641       41.621     1772.384     6502.952     1732.306        1.173        0.500      115.686       44.733        0.150      349.790       30.476      862.553
07/04/2014  12:16:00       -5.301      132.212       -4.724       39.563       72.788       44.267     1565.227     5298.046     1959.611        1.318        0.441      132.318       29.669        0.050      349.628       30.196      862.556
07/04/2014  12:17:00       -7.155      150.771      -12.217       49.869      126.604       49.086     2486.916    16028.503     2409.468        2.193        1.046      150.941       61.556        0.166      349.492       29.959      862.548
07/04/2014  12:18:00       69.394      150.359       -7.027       46.537       97.196       45.635     2165.687     9447.107     2082.533        2.058        0.685      165.600       54.677        0.109      349.388       29.777      862.528
07/04/2014  12:19:00       30.190      120.140        4.504       62.431       70.008       36.658     3897.656     4901.093     1343.846        1.275        0.507      123.875       34.289        0.077      349.622       30.185      862.526
07/04/2014  12:20:00       31.867       96.412       -2.288       56.289       88.129       44.172     3168.501     7766.679     1951.196        1.160        0.644      101.542       33.112        0.106      349.492       29.960      862.526
07/04/2014  12:21:00      -41.342       15.599      -42.584       35.977       46.738       28.563     1294.380     2184.420      815.834        0.403        0.215       44.187       16.149        0.134      349.493       29.962      862.522
07/04/2014  12:22:00     -137.293       26.446       -4.260       87.487       54.282       37.974     7654.044     2946.513     1442.011        1.580        0.602      139.817       43.193        0.095      349.620       30.181      862.510
07/04/2014  12:23:00     -159.388      -28.119       -0.481       83.469       72.513       34.117     6967.153     5258.070     1163.996        1.979        0.669      161.850       27.106        0.028      349.468       29.917      862.504
07/04/2014  12:24:00      -91.187      161.989      -10.227       59.769       78.612       45.530     3572.393     6179.788     2072.995        2.324        0.591      185.891       46.798        0.063      349.807       30.505      862.490
07/04/2014  12:25:00      -36.359       80.024        7.304       43.953       81.741       35.187     1931.878     6681.520     1238.142        0.881        0.493       87.897       43.144        0.241      350.137       31.081      862.469
07/04/2014  12:26:00      -25.824      131.756        8.521       32.125       70.723       39.050     1032.034     5001.683     1524.892        1.283        0.378      134.263       38.042        0.080      350.141       31.087      862.438
07/04/2014  12:27:00      -56.223      153.995       -2.169       84.342       93.477       50.093     7113.609     8737.964     2509.290        2.262        0.918      163.938       57.498        0.123      349.835       30.554      862.423
07/04/2014  12:28:00      -46.945       86.622      -15.704       31.514       77.513       36.096      993.146     6008.217     1302.907        0.913        0.415       98.525       33.119        0.113      349.590       30.129      862.423
07/04/2014  12:29:00      -88.664       43.858      -13.183       51.538       62.624       34.522     2656.206     3921.715     1191.756        0.886        0.388       98.919       41.919        0.180      349.665       30.260      862.411
07/04/2014  12:30:00      -60.211       43.022        5.378       48.445       39.402       38.865     2346.889     1552.529     1510.502        0.546        0.270       74.002       31.661        0.183      350.010       30.859      862.431
07/04/2014  12:31:00      -12.996        7.706       28.865       34.186       43.281       24.618     1168.697     1873.231      606.034        0.235        0.182       15.109       11.408        0.570      350.508       31.725      862.435
07/04/2014  12:32:00       -8.427       10.355       36.760       36.739       21.215       20.881     1349.755      450.073      436.003        0.188        0.112       13.351       20.406        2.336      350.813       32.256      862.438
07/04/2014  12:33:00      -48.541        6.764       -0.444       51.106       22.341       23.775     2611.797      499.133      565.258        0.304        0.184       49.010       24.370        0.247      349.795       30.486      862.439
07/04/2014  12:34:00      -38.980      -33.190       23.860       33.526       38.065       26.252     1123.960     1448.922      689.186        0.323        0.163       51.195       21.306        0.173      350.085       30.989      862.447
07/04/2014  12:35:00      -17.616      -41.837       -3.859       68.560       43.017       47.767     4700.405     1850.450     2281.689        0.545        0.442       45.394       38.354        0.714      349.966       30.784      862.452
07/04/2014  12:36:00       13.985       -2.218        4.557       46.886       42.781       38.030     2198.342     1830.251     1446.286        0.285        0.274       14.160       21.234        2.249      350.353       31.454      862.447
07/04/2014  12:37:00      -15.722       -9.486       19.196       28.918       44.527       23.681      836.237     1982.631      560.788        0.204        0.169       18.362       24.175        1.733      350.599       31.884      862.434
07/04/2014  12:38:00       69.611       27.454       49.783       43.004       42.332       35.873     1849.326     1792.013     1286.838        0.650        0.246       74.829       20.739        0.077      350.245       31.268      862.425
07/04/2014  12:39:00        8.408      -12.173       12.437       29.493       31.759       31.789      869.854     1008.620     1010.566        0.163        0.144       14.794       25.971        3.082      350.274       31.319      862.418
07/04/2014  12:40:00      -62.674       20.492        9.573       63.345       38.670       32.281     4012.550     1495.342     1042.078        0.549        0.327       65.939       36.104        0.300      350.536       31.774      862.409
07/04/2014  12:41:00      -18.495       43.685       24.537       45.136       44.149       34.012     2037.284     1949.143     1156.810        0.400        0.257       47.439       34.332        0.524      350.913       32.429      862.416
07/04/2014  12:42:00     -216.920      -61.717       -9.239       95.217       85.149       51.870     9066.343     7250.383     2690.548        3.497        0.950      225.529       52.366        0.054      350.075       30.968      862.412
07/04/2014  12:43:00     -119.899     -114.343       -0.816       91.139       60.033       37.655     8306.249     3604.009     1417.878        2.039        0.666      165.680       48.987        0.087      350.226       31.231      862.420
07/04/2014  12:44:00     -166.268      -57.782       -5.710      124.208      118.890       44.249    15427.732    14134.762     1957.947        3.126        1.576      176.022       47.105        0.072      349.966       30.780      862.417
07/04/2014  12:45:00      -94.553      -20.943       32.019      183.247       95.958       57.420    33579.586     9208.023     3297.090        2.824        2.304       96.845       79.194        0.669      350.260       31.292      862.399
07/04/2014  12:46:00       -6.752      -19.014       25.122       52.351       56.818       39.215     2740.633     3228.321     1537.843        0.427        0.375       20.178       34.964        3.003      350.586       31.861      862.379
07/04/2014  12:47:00     -138.417      -60.133      -11.034      107.901      110.856       49.018    11642.595    12289.158     2402.780        2.461        1.317      150.914       34.610        0.053      350.153       31.105      862.344
07/04/2014  12:48:00     -263.489      148.645      -22.614      161.684      175.266       86.251    26141.651    30718.083     7439.298        7.816        3.215      302.526       93.365        0.095      349.957       30.763      862.322
07/04/2014  12:49:00      -72.568       42.721        5.473       86.208       71.491       47.144     7431.736     5110.902     2222.522        1.094        0.738       84.209       46.890        0.310      349.847       30.577      862.298
07/04/2014  12:50:00     -164.867      -52.852      -10.853       63.241       62.122       40.026     3999.422     3859.199     1602.099        1.977        0.473      173.131       36.823        0.045      349.852       30.582      862.274
07/04/2014  12:51:00     -314.721       21.053      -18.802      184.319      112.091       54.706    33973.573    12564.499     2992.785        7.468        2.477      315.424       69.955        0.049      350.010       30.855      862.328
07/04/2014  12:52:00      -92.094       85.818      -11.187      185.855       81.241       50.154    34542.036     6600.091     2515.415        2.981        2.183      125.881       55.200        0.192      349.605       30.155      862.282
07/04/2014  12:53:00     -131.486      117.271       -8.523       69.261       99.109       53.975     4797.018     9822.589     2913.329        2.432        0.877      176.184       56.021        0.101      350.036       30.902      862.226
07/04/2014  12:54:00      -71.405      218.357       -9.075       66.823       91.323       49.104     4465.306     8339.848     2411.159        3.404        0.761      229.735       54.279        0.056      350.312       31.383      862.172
07/04/2014  12:55:00     -149.983      271.947      -26.189       98.046       99.885       60.174     9613.062     9976.958     3620.891        6.017        1.161      310.564       48.959        0.025      350.259       31.286      862.138
07/04/2014  12:56:00     -405.411      -42.915      -30.564      170.066      223.603       78.837    28922.292    49998.444     6215.282       12.612        4.257      407.677       68.744        0.028      350.396       31.525      862.062
07/04/2014  12:57:00     -486.263     -208.230      -20.465      157.139      117.680       75.034    24692.748    13848.582     5630.032       16.219        2.209      528.972       63.014        0.014      350.344       31.435      862.066
07/04/2014  12:58:00     -622.851     -104.719      -39.122      240.266      174.839      101.263    57727.680    30568.507    10254.100       24.948        4.928      631.593      108.384        0.029      350.405       31.540      861.985
07/04/2014  12:59:00     -769.229     -165.078      -46.595      254.186      233.582      114.013    64610.390    54560.356    12999.025       37.663        6.608      786.743      128.145        0.027      350.040       30.908      861.980
07/04/2014  13:00:00     -415.890     -209.508       -2.213      261.341      183.091      100.723    68299.198    33522.340    10145.165       16.440        5.598      465.680      133.746        0.082      350.015       30.864      862.078
07/04/2014  13:01:00     -373.360     -248.922      -26.996      247.644      174.195       95.204    61327.493    30343.818     9063.877       15.140        5.037      448.732       94.397        0.044      349.971       30.788      862.119
07/04/2014  13:02:00     -220.694     -188.761      -23.674      130.283       93.627       61.733    16973.620     8765.972     3810.976        5.722        1.478      290.408       40.169        0.019      350.059       30.941      862.210
07/04/2014  13:03:00     -175.383     -167.251        2.783      124.349      116.819       67.360    15462.623    13646.563     4537.402        4.619        1.682      242.347       72.565        0.090      350.085       30.987      862.186
07/04/2014  13:04:00     -190.028     -176.580       -6.331       93.723      104.052       56.030     8784.045    10826.853     3139.353        4.504        1.138      259.406       43.696        0.028      350.015       30.864      862.188
07/04/2014  13:05:00      -49.691     -113.577       15.947       75.140      102.281       51.941     5646.005    10461.367     2697.884        1.721        0.940      123.972       50.842        0.168      350.309       31.377      862.213
07/04/2014  13:06:00      -53.721      -96.016       25.121       68.221      111.609       53.510     4654.110    12456.573     2863.363        1.635        0.999      110.023       69.607        0.400      350.273       31.314      862.213
07/04/2014  13:07:00       36.087     -100.362       58.565      130.339      140.970       82.621    16988.288    19872.482     6826.311        2.924        2.184      106.653       96.345        0.816      350.563       31.819      862.209
07/04/2014  13:08:00       40.518     -155.736       -2.450       97.893      119.922       64.788     9583.035    14381.342     4197.471        2.703        1.408      160.921       71.381        0.197      350.311       31.381      862.212
07/04/2014  13:09:00       -3.143      -78.290        4.806       60.393       70.913       37.302     3647.313     5028.658     1391.457        0.811        0.503       78.353       37.953        0.235      350.651       31.973      862.209
07/04/2014  13:10:00       47.218      -56.279       38.645       68.857       83.549       50.088     4741.309     6980.448     2508.821        1.056        0.712       73.464       41.712        0.322      350.384       31.510      862.179
07/04/2014  13:11:00       53.024     -132.341       -9.983       70.910       51.689       45.818     5028.221     2671.712     2099.305        1.511        0.490      142.568       36.700        0.066      350.205       31.197      862.179
07/04/2014  13:12:00       10.330     -141.672        1.218      139.793      116.880       72.574    19542.184    13660.925     5266.958        2.932        1.924      142.048       66.452        0.219      350.204       31.192      862.206
07/04/2014  13:13:00      -62.787      -84.452       12.719       69.880       81.767       44.666     4883.206     6685.880     1995.077        1.240        0.678      105.234       44.804        0.181      350.436       31.599      862.218
07/04/2014  13:14:00      -12.814      -24.402       29.133       48.563       46.726       36.848     2358.360     2183.338     1357.808        0.375        0.295       27.562       35.751        1.682      350.987       32.558      862.230
07/04/2014  13:15:00     -220.987      -62.135        1.107      122.821      141.877       50.288    15084.935    20129.166     2528.931        4.521        1.887      229.556       42.300        0.034      350.239       31.254      862.237
07/04/2014  13:16:00     -190.070     -263.110       -8.060      162.555      122.453       65.374    26424.239    14994.649     4273.757        7.555        2.285      324.582       71.010        0.048      350.180       31.152      862.235
07/04/2014  13:17:00     -142.504     -121.117       13.389      109.893       76.496       57.951    12076.441     5851.706     3358.367        2.822        1.064      187.021       50.854        0.074      350.432       31.589      862.186
07/04/2014  13:18:00     -120.336     -119.198      -11.186      103.811       84.886       37.025    10776.647     7205.580     1370.878        2.408        0.968      169.378       33.673        0.040      350.666       31.996      862.210
07/04/2014  13:19:00      -72.353     -136.993       15.160       84.383       81.576       45.868     7120.574     6654.574     2103.919        2.005        0.794      154.926       43.237        0.078      350.429       31.586      862.184
07/04/2014  13:20:00     -330.656      -82.451      -10.312      137.297      103.815       67.292    18850.393    10777.593     4528.269        7.519        1.708      340.781       65.448        0.037      350.127       31.059      862.165
07/04/2014  13:21:00     -315.174     -236.122       -3.671      209.430      162.922       97.126    43860.914    26543.439     9433.495       11.746        3.992      393.813      118.549        0.091      350.173       31.137      862.167
07/04/2014  13:22:00     -284.719       -5.232        5.453      191.263      145.543       83.115    36581.463    21182.728     6908.129        7.289        3.234      284.767       92.622        0.106      350.375       31.490      862.130
07/04/2014  13:23:00     -284.303      -90.526      -11.740      194.441      146.909       85.928    37807.154    21582.141     7383.587        7.796        3.339      298.368       87.642        0.086      350.517       31.737      862.109
07/04/2014  13:24:00     -460.801      -98.113      -11.106      204.590      161.166       97.513    41856.953    25974.321     9508.700       14.970        3.867      471.130      107.513        0.052      350.124       31.053      862.119
07/04/2014  13:25:00     -261.597     -119.814        3.939      154.771      155.868       77.541    23954.113    24294.974     6012.676        6.852        2.713      287.730       78.725        0.075      350.251       31.275      862.148
07/04/2014  13:26:00     -248.726       65.682      -21.848      187.804      116.075       50.171    35270.200    13473.345     2517.166        5.895        2.563      257.252       60.597        0.055      350.119       31.046      862.168
07/04/2014  13:27:00     -204.868     -169.365        3.192      166.541      163.070       66.228    27735.822    26591.951     4386.126        6.468        2.936      265.811       75.863        0.081      350.247       31.267      862.170
07/04/2014  13:28:00     -275.023     -235.121       -0.069      144.231      154.141       76.988    20802.576    23759.334     5927.212        9.070        2.524      361.828       71.748        0.039      350.287       31.337      862.057
07/04/2014  13:29:00     -166.936      -49.376        8.651      152.742      145.472       73.788    23330.253    21162.116     5444.726        4.015        2.497      174.085       87.136        0.251      350.621       31.919      862.075
07/04/2014  13:30:00     -384.746      -67.517      -12.298      239.934      148.323       77.376    57568.434    21999.699     5986.981       11.913        4.278      390.625       86.062        0.049      350.633       31.940      862.052
07/04/2014  13:31:00     -211.547     -105.641       15.572      138.009      141.001       69.833    19046.358    19881.409     4876.634        4.997        2.190      236.457       73.345        0.096      350.722       32.095      862.050
07/04/2014  13:32:00     -224.859     -211.823       26.199      234.316      131.963       97.621    54904.022    17414.300     9529.839        8.897        4.092      308.918      124.304        0.162      350.531       31.761      862.027
07/04/2014  13:33:00     -443.577     -139.884      -15.216      219.671      205.407       95.382    48255.422    42191.882     9097.794       15.804        4.977      465.111      110.718        0.057      350.348       31.442      862.006
07/04/2014  13:34:00     -417.061      -95.143       -1.032      229.530      190.503       96.661    52684.147    36291.484     9343.393       14.064        4.916      427.776      111.351        0.068      350.492       31.693      862.005
07/04/2014  13:35:00     -458.190       -9.857      -24.249      209.541      217.009       88.735    43907.525    47092.851     7873.883       15.473        4.944      458.296       79.296        0.030      350.372       31.484      862.048
07/04/2014  13:36:00     -572.018     -188.908      -21.656      187.384      144.131       75.490    35112.879    20773.652     5698.815       21.246        3.079      602.404       87.520        0.021      350.104       31.018      862.071
07/04/2014  13:37:00     -203.458      -86.682        1.497      143.330      118.997       61.660    20543.349    14160.172     3801.937        4.370        1.925      221.154       64.186        0.084      350.417       31.564      862.084
07/04/2014  13:38:00     -290.275      -24.170      -19.907      313.630      158.339       76.805    98363.651    25071.219     5898.954       10.727        6.467      291.280       94.920        0.106      350.372       31.487      862.070
07/04/2014  13:39:00     -321.088     -143.526       12.257      213.203      168.733       85.790    45455.316    28470.756     7359.849       10.255        4.064      351.706       89.048        0.064      350.440       31.603      862.032
07/04/2014  13:40:00     -303.975     -146.265      -19.114      141.445      135.593       74.951    20006.799    18385.402     5617.651        7.908        2.200      337.334       81.445        0.058      350.272       31.311      862.061
07/04/2014  13:41:00     -451.716      -71.502      -24.585      244.131      199.485       88.900    59600.007    39794.237     7903.138       15.851        5.365      457.340      103.320        0.051      350.278       31.321      862.029
07/04/2014  13:42:00     -185.011     -118.092        1.926      147.728      105.715       82.729    21823.602    11175.574     6844.044        4.400        1.992      219.487       89.148        0.165      350.525       31.749      862.012
07/04/2014  13:43:00     -190.529     -147.664       -1.230      135.719      160.269       78.232    18419.646    25686.170     6120.263        5.416        2.511      241.052       65.578        0.074      350.599       31.881      862.007
07/04/2014  13:44:00     -150.211       -4.930        8.727      154.712      109.364       62.929    23935.709    11960.546     3960.088        3.125        1.993      150.292       71.091        0.224      350.871       32.354      861.984
07/04/2014  13:45:00     -548.884     -177.268       -7.921      331.849      195.358      118.455   110123.465    38164.784    14031.680       24.751        8.116      576.800      151.340        0.069      350.374       31.489      861.950
07/04/2014  13:46:00     -596.000      -57.745      -31.101      231.615      248.566      109.548    53645.446    61785.296    12000.694       24.345        6.372      598.791      105.028        0.031      350.359       31.462      861.999
07/04/2014  13:47:00     -333.172       -1.253      -26.392      181.769      152.618       80.124    33040.032    23292.398     6419.881        8.722        3.138      333.175       69.999        0.044      350.465       31.647      862.008
07/04/2014  13:48:00     -337.243     -151.772       -8.735      148.614      148.920       68.473    22086.036    22177.122     4688.523        9.289        2.448      369.821       72.195        0.038      350.604       31.887      862.000
07/04/2014  13:49:00     -418.455      -29.531      -37.665      206.744      186.773       87.041    42743.148    34884.070     7576.059       13.129        4.260      419.496       93.537        0.050      350.533       31.764      862.010
07/04/2014  13:50:00     -243.816     -122.422       16.395      166.409      124.305       77.977    27691.884    15451.762     6080.448        6.195        2.461      272.825       87.124        0.102      350.744       32.132      861.969
07/04/2014  13:51:00     -336.090      -39.501        7.934      231.316      121.421       88.228    53507.154    14743.133     7784.240        9.529        3.802      338.403      100.329        0.088      350.833       32.287      861.980
07/04/2014  13:52:00     -367.352     -185.326       -3.074      211.167      152.189       98.445    44591.499    23161.344     9691.381       12.336        3.872      411.452      104.989        0.065      350.672       32.006      862.015
07/04/2014  13:53:00     -343.507     -161.669        2.299      269.901      191.232      105.459    72846.532    36569.512    11121.548       13.232        6.027      379.650      128.743        0.115      350.235       31.247      862.021
07/04/2014  13:54:00     -366.297     -130.011       17.094      283.573      205.752      112.356    80413.445    42333.910    12623.824       14.335        6.769      388.686      152.853        0.155      350.362       31.468      861.994
07/04/2014  13:55:00     -570.686      -71.882      -19.774      296.520      195.070      112.280    87924.283    38052.472    12606.866       23.489        6.929      575.195      125.563        0.048      350.139       31.080      862.033
07/04/2014  13:56:00     -373.272      -88.175      -20.351      205.768      169.775       99.179    42340.426    28823.457     9836.398       11.425        4.050      383.545       91.981        0.058      350.261       31.292      862.058
07/04/2014  13:57:00     -387.291     -125.474      -16.649      222.932      177.770      100.967    49698.578    31602.177    10194.417       12.874        4.575      407.109      115.678        0.081      350.330       31.411      862.065
07/04/2014  13:58:00     -460.762      -28.688      -23.273      205.002      192.535       94.215    42025.805    37069.686     8876.472       15.080        4.399      461.654      103.398        0.050      350.441       31.604      862.052
07/04/2014  13:59:00     -492.110     -180.628      -22.483      269.885      201.671      102.461    72838.103    40671.198    10498.256       19.964        6.200      524.213      106.453        0.041      350.534       31.765      862.055
07/04/2014  14:00:00     -520.240     -135.836       -9.771      249.609      151.150      107.721    62304.847    22846.301    11603.808       19.296        4.838      537.681      115.151        0.046      350.281       31.327      862.091
07/04/2014  14:01:00     -436.156     -121.393       -9.253      221.407      147.541       90.568    49020.996    21768.308     8202.594       14.201        3.950      452.734      104.972        0.054      350.312       31.381      862.105
07/04/2014  14:02:00     -182.380     -156.775       -1.759      156.980      137.710       85.287    24642.771    18964.068     7273.854        5.435        2.544      240.501       96.405        0.161      350.454       31.629      862.119
07/04/2014  14:03:00     -236.618     -157.493      -24.889      158.286      128.183       74.913    25054.412    16430.852     5611.892        6.425        2.355      284.240       54.320        0.037      350.324       31.401      862.120
07/04/2014  14:04:00     -195.941     -106.374       14.444      168.923       99.615       70.992    28535.036     9923.206     5039.931        4.670        2.175      222.954       74.239        0.111      350.664       31.993      862.072
07/04/2014  14:05:00     -355.476      -45.546      -24.837      147.939      111.888       60.689    21885.941    12518.914     3683.191        8.356        1.904      358.382       65.901        0.034      350.657       31.980      862.117
07/04/2014  14:06:00     -382.254      -71.946      -14.753      147.780      122.233       64.189    21838.845    14940.996     4120.218        9.620        2.045      388.966       69.209        0.032      350.527       31.753      862.134
07/04/2014  14:07:00     -439.503      -40.677      -67.403      162.604      106.539       58.293    26440.171    11350.656     3398.087       12.027        2.059      441.381       71.135        0.026      350.296       31.353      862.137
07/04/2014  14:08:00     -301.842      -65.460      -17.025      145.613      140.313       63.211    21203.098    19687.627     3995.691        7.028        2.244      308.859       64.657        0.044      350.508       31.720      862.148
07/04/2014  14:09:00     -435.755        9.791      -44.604      181.833      127.195       65.570    33063.369    16178.508     4299.449       12.275        2.677      435.865       65.018        0.022      350.455       31.629      862.128
07/04/2014  14:10:00     -299.585       -2.586      -23.522      174.588      166.685       75.685    30480.845    27783.909     5728.227        7.714        3.200      299.596       75.772        0.064      350.594       31.871      862.086
07/04/2014  14:11:00     -391.340      -81.404       -3.442      217.649      142.937       89.927    47371.004    20431.076     8086.851       11.782        3.794      399.717       97.407        0.059      350.789       32.210      862.089
07/04/2014  14:12:00     -270.842     -154.139      -10.181      145.295      126.702       71.850    21110.709    16053.456     5162.354        6.977        2.116      311.632       60.382        0.038      350.578       31.843      862.126
07/04/2014  14:13:00     -322.339     -247.514        4.182      228.163      159.965       91.136    52058.250    25588.689     8305.842       12.555        4.298      406.406      102.185        0.063      350.312       31.379      862.117
07/04/2014  14:14:00     -257.993     -131.098        5.521      211.353      151.061       77.865    44670.126    22819.389     6063.028        7.865        3.678      289.391      100.782        0.121      350.337       31.423      862.079
07/04/2014  14:15:00     -284.331     -219.008       -3.401      243.299      177.315       98.853    59194.500    31440.652     9771.820       11.460        5.020      358.900      110.205        0.094      350.594       31.870      862.069
07/04/2014  14:16:00     -355.347      -83.962       -0.807      269.454      155.438       88.383    72605.525    24161.006     7811.536       11.893        5.229      365.132      117.261        0.103      350.693       32.043      862.083
07/04/2014  14:17:00     -461.558     -160.540      -11.060      245.366      208.559       98.904    60204.462    43496.760     9781.959       17.619        5.674      488.681       99.630        0.042      350.258       31.287      862.064
07/04/2014  14:18:00     -373.644     -156.780       -4.956      184.725      144.359       81.047    34123.248    20839.559     6568.592       11.286        3.077      405.203       71.463        0.031      350.533       31.764      862.056
07/04/2014  14:19:00     -256.863     -174.220       11.243      231.288      228.827       94.435    53494.032    52361.722     8917.951       10.560        5.739      310.373      131.594        0.180      350.659       31.985      862.076
07/04/2014  14:20:00     -257.742     -194.694       18.023      215.625      154.548       83.839    46494.339    23885.192     7028.982        9.102        3.870      323.012      107.281        0.110      350.509       31.723      862.033
07/04/2014  14:21:00     -237.517     -251.904       -2.146      195.120      128.654       70.517    38071.899    16551.812     4972.635        8.973        2.980      346.222       72.725        0.044      350.519       31.738      862.038
07/04/2014  14:22:00     -527.342     -124.871        0.393      252.096      185.132      108.186    63552.611    34274.011    11704.154       20.159        5.477      541.925      120.212        0.049      350.349       31.445      862.038
07/04/2014  14:23:00     -269.894      -38.018       -7.046      114.274      132.891       60.723    13058.537    17659.912     3687.232        5.437        1.720      272.558       50.358        0.034      350.365       31.473      862.127
07/04/2014  14:24:00     -420.528      -37.452      -12.874      164.288      159.849       71.384    26990.675    25551.829     5095.694       11.802        2.882      422.192       76.367        0.033      350.188       31.166      862.098
07/04/2014  14:25:00     -392.152     -118.772       -6.611      146.496      152.270       72.624    21461.080    23186.143     5274.264       10.892        2.496      409.744       75.313        0.034      350.456       31.630      862.049
07/04/2014  14:26:00     -350.850      -90.026      -16.473      211.062      138.954       78.317    44547.026    19308.299     6133.560       10.072        3.499      362.216       72.948        0.041      350.626       31.927      862.027
07/04/2014  14:27:00     -605.191     -205.870      -22.057      250.408      165.014      102.422    62704.029    27229.600    10490.343       25.476        5.021      639.249      121.156        0.036      350.439       31.602      862.013
07/04/2014  14:28:00     -487.822     -313.957      -22.785      190.218      191.786      101.846    36182.848    36781.943    10372.655       21.018        4.167      580.120       89.046        0.024      350.262       31.292      862.021
07/04/2014  14:29:00     -439.130      -29.340      -32.410      155.891      176.347       77.470    24301.977    31098.353     6001.563       12.806        3.070      440.109       59.731        0.018      350.443       31.607      862.046
07/04/2014  14:30:00     -396.006      -75.445      -24.553      195.497      154.284       83.875    38219.269    23803.532     7035.092       11.608        3.453      403.129      101.066        0.063      350.632       31.937      862.014
07/04/2014  14:31:00     -228.326       -9.389       12.223      165.056      135.257       84.585    27243.642    18294.527     7154.662        5.252        2.635      228.519       77.536        0.115      350.797       32.223      862.042
07/04/2014  14:32:00     -337.655      -32.160      -23.380      159.788      114.015       67.223    25532.059    12999.315     4518.890        7.931        2.153      339.183       74.102        0.048      350.638       31.948      862.035
07/04/2014  14:33:00     -246.124     -211.312        4.597      241.741      148.010       99.411    58438.710    21907.076     9882.593        9.772        4.511      324.391      116.883        0.130      350.533       31.765      862.026
07/04/2014  14:34:00     -410.733     -188.251      -24.509      162.926      152.746       71.304    26544.786    23331.194     5084.243       12.984        2.748      451.818       82.030        0.033      350.453       31.625      861.995
07/04/2014  14:35:00     -191.508      -11.716       -6.139      128.617      121.174       69.536    16542.342    14683.141     4835.190        3.645        1.803      191.866       45.008        0.055      350.929       32.457      861.982
07/04/2014  14:36:00     -326.608      -43.774        9.742      198.107      137.286       81.147    39246.268    18847.431     6584.788        8.667        3.234      329.528       79.727        0.059      350.831       32.283      861.984
07/04/2014  14:37:00     -353.613      -19.954        0.505      185.848      149.976       92.096    34539.579    22492.754     8481.751        9.547        3.276      354.175       97.860        0.076      350.859       32.333      861.989
07/04/2014  14:38:00     -464.909      -81.437      -33.269      167.415      161.711       87.921    28027.937    26150.401     7730.031       14.288        3.095      471.988       72.597        0.024      350.739       32.122      861.999
07/04/2014  14:39:00     -282.671       12.885       -4.199      196.917      153.202       79.482    38776.378    23470.886     6317.352        7.431        3.428      282.965       92.014        0.106      350.946       32.485      862.011
07/04/2014  14:40:00     -355.468     -163.796       -7.941      220.779      184.167       82.525    48743.232    33917.495     6810.399       12.135        4.474      391.391      104.361        0.071      350.683       32.027      862.029
07/04/2014  14:41:00     -632.202     -155.344      -26.860      282.883      208.467      109.956    80022.991    43458.398    12090.220       28.003        6.779      651.008      107.865        0.027      350.230       31.237      861.997
07/04/2014  14:42:00     -516.485     -234.583      -16.629      203.631      208.111       91.696    41465.521    43310.200     8408.195       20.761        4.659      567.262       75.465        0.018      350.199       31.183      862.041
07/04/2014  14:43:00     -400.755     -180.667        0.337      243.324      143.707       84.036    59206.661    20651.590     7062.028       14.007        4.346      439.597      104.132        0.056      350.338       31.426      862.040
07/04/2014  14:44:00     -497.763      -92.245      -19.907      215.250      145.024       92.544    46332.389    21032.052     8564.378       16.629        3.796      506.238      104.508        0.043      350.307       31.372      861.973
07/04/2014  14:45:00     -609.495     -198.596      -22.329      217.070      184.093      105.985    47119.493    33890.388    11232.754       25.182        4.612      641.034      102.701        0.026      350.540       31.777      861.923
07/04/2014  14:46:00     -626.206     -276.073      -27.499      314.500      252.434      131.894    98910.218    63722.842    17395.997       32.454        9.001      684.361      143.101        0.044      350.310       31.375      861.924
07/04/2014  14:47:00     -563.357     -230.606      -30.723      268.689      182.216      109.318    72193.621    33202.661    11950.517       24.440        5.867      608.729      112.301        0.034      350.225       31.228      861.960
07/04/2014  14:48:00     -298.986     -190.719       -2.486      224.805      184.817       97.287    50537.409    34157.438     9464.778       10.995        4.708      354.635       94.995        0.072      350.365       31.473      861.950
07/04/2014  14:49:00     -466.764     -223.807       -5.972      249.680      145.423       90.135    62340.300    21147.928     8124.368       17.979        4.581      517.647      107.616        0.043      350.310       31.376      861.925
07/04/2014  14:50:00     -365.347     -160.988        1.968      207.427      164.914       81.917    43025.781    27196.579     6710.373       11.815        3.847      399.244       87.634        0.048      350.342       31.431      861.952
07/04/2014  14:51:00     -423.748     -157.786       -3.008      261.299      221.193       98.919    68276.944    48926.492     9785.046       16.571        6.349      452.171      118.585        0.069      350.365       31.472      861.914
07/04/2014  14:52:00     -340.413     -153.793       -1.594      219.569      191.847       77.402    48210.499    36805.217     5991.042       11.526        4.550      373.542      106.807        0.082      350.537       31.772      861.902
07/04/2014  14:53:00     -362.583     -158.600      -16.273      230.066      193.478       94.094    52930.340    37433.636     8853.769       12.803        4.961      395.753      104.406        0.070      350.644       31.959      861.907
07/04/2014  14:54:00     -348.231     -101.180      -12.343      232.646      245.519       91.290    54124.123    60279.815     8333.943       12.718        6.137      362.633      109.176        0.091      350.603       31.886      861.882
07/04/2014  14:55:00     -550.854     -282.458      -20.970      222.797      177.823      116.490    49638.588    31621.119    13569.993       23.923        4.741      619.050      117.175        0.036      350.469       31.653      861.886
07/04/2014  14:56:00     -432.085     -145.057       -2.983      212.401      170.410       93.240    45113.973    29039.655     8693.668       14.528        4.142      455.783      104.965        0.053      350.674       32.010      861.930
07/04/2014  14:57:00     -479.836     -124.531      -34.105      246.896      225.222       98.216    60957.767    50724.939     9646.386       18.410        6.066      495.732       95.679        0.037      350.359       31.462      861.934
07/04/2014  14:58:00     -489.170      -10.905      -20.327      232.988      175.787      112.613    54283.377    30900.967    12681.703       16.883        4.893      489.291      125.105        0.065      350.420       31.568      861.917
07/04/2014  14:59:00     -293.407      -42.775        2.236      274.355      176.153       83.386    75270.820    31029.748     6953.253       10.057        5.663      296.509      102.515        0.120      350.603       31.887      861.915
07/04/2014  15:00:00     -366.664      -26.837      -20.277      234.192      145.490       81.983    54846.112    21167.217     6721.179       10.914        4.137      367.644      109.720        0.089      350.591       31.866      861.918
07/04/2014  15:01:00     -413.814      -89.867      -22.159      222.764      174.742       84.143    49623.631    30534.777     7080.042       13.351        4.362      423.460       87.291        0.042      350.573       31.833      861.898
07/04/2014  15:02:00     -398.523     -113.474      -23.068      240.679      173.748      104.646    57926.247    30188.528    10950.761       13.563        4.953      414.363      112.307        0.073      350.506       31.717      861.889
07/04/2014  15:03:00     -629.674       -7.715      -38.661      250.826      148.038       99.731    62913.550    21915.316     9946.371       24.639        4.739      629.721      113.071        0.032      350.489       31.686      861.889
07/04/2014  15:04:00     -435.380     -142.247        2.532      275.209      174.440      103.297    75740.159    30429.333    10670.279       16.330        5.842      458.029      121.424        0.070      350.552       31.799      861.895
07/04/2014  15:05:00     -375.796     -242.624       12.786      255.207      176.621      111.620    65130.401    31194.995    12458.933       15.450        5.439      447.313      131.193        0.086      350.415       31.560      861.898
07/04/2014  15:06:00     -308.167     -176.306        2.087      248.658      182.281       96.934    61830.992    33226.444     9396.172       11.524        5.223      355.036      120.911        0.116      350.444       31.610      861.905
07/04/2014  15:07:00     -328.541     -133.468        1.353      219.305      138.143       86.003    48094.807    19083.400     7396.534       10.015        3.729      354.617       96.652        0.074      350.506       31.718      861.915
07/04/2014  15:08:00     -422.663     -175.981      -20.245      181.480      143.087       76.845    32935.112    20473.989     5905.186       13.466        2.966      457.836       78.206        0.029      350.236       31.247      861.892
07/04/2014  15:09:00     -362.997      -85.791        3.083      250.056      160.296      103.350    62528.013    25694.703    10681.244       11.900        4.945      372.997      129.573        0.121      350.440       31.602      861.869
07/04/2014  15:10:00     -488.404      -46.030       -7.877      204.673      121.480       94.606    41891.003    14757.370     8950.290       15.315        3.280      490.568      102.414        0.044      350.578       31.843      861.884
07/04/2014  15:11:00     -134.740     -124.036       40.976      192.170      176.429      119.187    36929.235    31127.355    14205.642        5.873        4.113      183.139      112.321        0.376      350.818       32.262      861.876
07/04/2014  15:12:00     -459.070      -81.209      -10.656      332.469      204.146       85.363   110535.409    41675.493     7286.888       18.845        7.975      466.198      112.304        0.058      350.583       31.852      861.882
07/04/2014  15:13:00     -340.078     -110.842      -11.373      199.309      149.165       81.622    39724.143    22250.162     6662.225        9.834        3.432      357.685       85.034        0.057      350.489       31.687      861.853
07/04/2014  15:14:00     -233.529      -61.801       -8.032      226.783      151.655       91.305    51430.334    22999.259     8336.613        7.058        4.138      241.568      104.994        0.189      350.731       32.110      861.836
07/04/2014  15:15:00     -197.562      -23.444       23.905      261.904      169.010      108.748    68593.729    28564.411    11826.201        7.455        5.449      198.948      127.977        0.414      350.663       31.993      861.877
07/04/2014  15:16:00     -432.883     -184.160        2.108      231.886      159.439       80.800    53771.248    25420.920     6528.705       15.350        4.286      470.429       99.866        0.045      350.490       31.691      861.881
07/04/2014  15:17:00     -466.870      -25.098      -16.267      211.312      183.732       88.662    44652.589    33757.304     7860.957       15.255        4.314      467.544       93.895        0.040      350.687       32.033      861.899
07/04/2014  15:18:00     -345.522     -129.790        6.262      201.319      197.728      106.106    40529.455    39096.427    11258.580       11.356        4.544      369.095      101.524        0.076      350.486       31.681      861.860
07/04/2014  15:19:00     -184.249      -63.167       14.223      151.466      104.516       66.236    22942.050    10923.559     4387.175        3.819        1.913      194.777       80.020        0.169      350.883       32.374      861.874
07/04/2014  15:20:00     -406.259     -221.214        7.010      284.577      220.144      117.279    80983.818    48463.240    13754.404       17.859        7.160      462.582      143.113        0.096      350.572       31.833      861.848
07/04/2014  15:21:00     -455.331     -279.532       -6.584      239.189      194.965       90.747    57211.520    38011.297     8235.009       19.447        5.173      534.289      106.482        0.040      350.357       31.458      861.875
07/04/2014  15:22:00     -377.316     -279.873        4.238      270.404      189.900      109.455    73118.112    36062.109    11980.421       17.092        6.058      469.784      129.567        0.076      350.489       31.688      861.862
07/04/2014  15:23:00     -301.291     -163.238      -14.609      175.817      167.002       83.917    30911.511    27889.792     7042.012        9.173        3.292      342.670       77.235        0.051      350.729       32.106      861.919
07/04/2014  15:24:00     -470.328     -242.112       -8.846      300.410      222.654      123.244    90246.091    49574.689    15189.116       21.743        7.750      528.987      145.395        0.076      350.490       31.691      861.869
07/04/2014  15:25:00     -632.586     -138.292      -35.255      291.552      190.995      107.448    85002.533    36478.964    11544.968       27.676        6.651      647.526      128.610        0.039      350.288       31.338      861.893
07/04/2014  15:26:00     -488.968     -136.034       -5.691      264.079      189.603      111.449    69737.928    35949.214    12420.840       18.785        5.905      507.538      121.035        0.057      350.376       31.490      861.889
07/04/2014  15:27:00     -475.526     -268.030      -30.967      254.714      201.357      109.503    64879.368    40544.731    11990.936       20.815        5.871      545.862      121.480        0.050      350.281       31.326      861.917
07/04/2014  15:28:00     -434.649     -297.510       -4.661      221.166      180.349      105.390    48914.564    32525.862    11106.998       18.498        4.627      526.718      119.761        0.052      350.196       31.178      861.851
07/04/2014  15:29:00     -565.899     -332.696      -22.970      298.940      207.989      117.655    89365.337    43259.527    13842.711       28.894        7.323      656.452      144.700        0.049      350.214       31.210      861.857
07/04/2014  15:30:00     -482.063     -384.841       -3.467      248.461      214.065      117.997    61732.909    45823.954    13923.381       25.097        6.074      616.836      143.442        0.054      350.233       31.243      861.857
07/04/2014  15:31:00     -519.704     -271.445        4.868      285.813      203.709      118.109    81689.320    41497.498    13949.720       24.044        6.857      586.323      147.238        0.063      350.164       31.122      861.886
07/04/2014  15:32:00     -476.452     -332.882      -27.820      249.854      208.294      104.220    62427.171    43386.242    10861.756       22.761        5.834      581.220      113.664        0.038      350.230       31.238      861.888
07/04/2014  15:33:00     -571.914     -297.868        1.633      228.662      207.803      104.936    52286.185    43182.281    11011.589       26.113        5.324      644.834      104.722        0.026      350.249       31.269      861.883
07/04/2014  15:34:00     -394.405     -234.623        7.319      181.907      162.180       85.382    33090.222    26302.300     7290.020       13.866        3.334      458.915       91.977        0.040      350.492       31.694      861.884
07/04/2014  15:35:00     -363.942      -93.603      -22.218      206.478      127.871       86.002    42633.078    16350.889     7396.367       10.403        3.319      375.787       90.154        0.058      350.699       32.052      861.866
07/04/2014  15:36:00     -225.200     -132.313       16.250      234.608      155.189       84.693    55040.978    24083.560     7172.905        7.738        4.315      261.193      111.193        0.181      350.756       32.154      861.907
07/04/2014  15:37:00     -482.801     -259.367      -19.317      274.328      188.664      113.462    75255.668    35594.258    12873.674       21.221        6.186      548.059      131.525        0.058      350.337       31.425      861.878
07/04/2014  15:38:00     -611.117     -378.521      -38.008      299.137      213.868      117.152    89482.897    45739.407    13724.542       33.354        7.447      718.848      152.821        0.045      350.242       31.258      861.833
07/04/2014  15:39:00     -348.107     -203.152       10.723      214.591      162.301       96.985    46049.467    26341.545     9406.041       12.217        4.090      403.050       97.760        0.059      350.372       31.485      861.841
07/04/2014  15:40:00     -359.289     -194.563      -14.789      202.230      199.241       99.120    40896.873    39696.819     9824.724       12.878        4.521      408.587       92.073        0.051      350.407       31.547      861.838
07/04/2014  15:41:00     -132.021      -52.705       25.733      211.112      159.938       97.661    44568.307    25580.127     9537.698        5.026        3.984      142.153      108.936        0.587      350.718       32.086      861.832
07/04/2014  15:42:00     -337.434     -208.870      -11.979      238.231      181.136      106.162    56754.158    32810.394    11270.292       12.922        5.042      396.848      116.704        0.086      350.529       31.758      861.802
07/04/2014  15:43:00     -409.036      -94.483      -25.026      259.891      131.820       86.591    67543.353    17376.386     7497.957       13.463        4.621      419.807      102.478        0.060      350.652       31.972      861.815
07/04/2014  15:44:00     -441.132      -77.655       -1.062      235.088      169.627       92.496    55266.188    28773.363     8555.443       14.660        4.630      447.914       85.969        0.037      350.556       31.805      861.803
07/04/2014  15:45:00     -508.991      -92.322      -26.984      185.992      165.493       92.739    34593.085    27387.930     8600.470       16.944        3.529      517.296       84.115        0.026      350.456       31.632      861.764
07/04/2014  15:46:00     -300.748     -193.093       10.482      291.698      184.327      130.653    85087.592    33976.486    17070.281       13.197        6.807      357.399      151.278        0.179      350.595       31.872      861.775
07/04/2014  15:47:00     -548.638     -295.595      -19.467      287.138      242.864      139.270    82448.173    58982.801    19396.245       27.477        8.041      623.201      143.271        0.053      350.449       31.618      861.728
07/04/2014  15:48:00     -492.024     -106.605       -6.587      264.579      200.731      117.775    70001.849    40292.860    13870.942       18.881        6.208      503.440      136.388        0.073      350.488       31.686      861.737
07/04/2014  15:49:00     -356.354     -261.474      -13.040      196.172      163.106       99.520    38483.272    26603.421     9904.174       13.525        3.750      441.992      100.174        0.051      350.720       32.088      861.728
07/04/2014  15:50:00     -425.724     -274.909       -1.834      266.917      199.528      103.229    71244.544    39811.616    10656.240       18.925        6.086      506.770      130.335        0.066      350.553       31.799      861.755
07/04/2014  15:51:00     -458.733     -138.966      -28.479      241.930      176.568       90.962    58529.924    31176.430     8274.045       16.425        4.899      479.319      105.255        0.048      350.566       31.821      861.764
07/04/2014  15:52:00     -463.504     -172.629       -6.237      241.869      167.406       95.747    58500.754    28024.840     9167.511       17.017        4.785      494.608      116.673        0.056      350.371       31.483      861.782
07/04/2014  15:53:00     -375.411      -65.047      -19.868      213.583      158.570       94.637    45617.548    25144.497     8956.083       11.263        3.986      381.005       99.728        0.069      350.512       31.728      861.793
07/04/2014  15:54:00     -312.131     -202.980       -3.349      173.609      141.074       88.370    30140.250    19901.904     7809.289        9.823        2.893      372.326       87.663        0.055      350.490       31.688      861.793
07/04/2014  15:55:00     -320.241     -111.330       -5.283      215.757      154.501       73.863    46551.149    23870.438     5455.719        9.541        3.794      339.041       97.454        0.083      350.644       31.958      861.805
07/04/2014  15:56:00     -288.450     -313.179       -2.553      218.349      192.848       97.073    47676.127    37190.399     9423.157       13.777        4.714      425.775      117.220        0.076      350.406       31.543      861.804
07/04/2014  15:57:00     -429.518     -270.902      -13.627      227.978      186.474      104.998    51973.919    34772.528    11024.653       17.790        4.889      507.813      116.630        0.053      350.315       31.386      861.809
07/04/2014  15:58:00     -433.671     -137.589       -3.210      245.506      177.640       98.145    60273.180    31555.999     9632.480       15.422        5.073      454.974      124.581        0.075      350.249       31.272      861.800
07/04/2014  15:59:00     -209.172     -105.134       20.760      267.939      114.972       82.275    71791.489    13218.482     6769.100        7.349        4.589      234.107      112.422        0.231      350.540       31.776      861.805
07/04/2014  16:00:00     -270.128     -174.361       15.640      183.840      146.515       91.720    33797.253    21466.564     8412.611        8.364        3.184      321.513       96.130        0.089      350.423       31.573      861.782
07/04/2014  16:01:00     -360.672     -228.154       12.512      276.138      227.364      115.583    76252.041    51694.220    13359.470       16.178        7.065      426.777      142.304        0.111      350.461       31.640      861.737
07/04/2014  16:02:00     -499.488     -135.811      -26.997      251.717      156.167      106.922    63361.384    24388.016    11432.231       18.391        4.959      517.623      117.145        0.051      350.244       31.264      861.780
07/04/2014  16:03:00     -462.681     -106.303      -24.263      227.407      171.805       89.493    51713.813    29517.047     8009.046       15.759        4.462      474.736      104.485        0.048      350.313       31.382      861.748
07/04/2014  16:04:00     -742.279      129.193      -58.531      204.639      149.173       83.961    41876.940    22252.574     7049.395       32.112        3.559      753.438       83.753        0.012      350.190       31.168      861.736
07/04/2014  16:05:00     -477.169     -141.842      -16.882      159.755      129.535       70.335    25521.779    16779.393     4947.081       14.766        2.362      497.805       73.280        0.022      350.354       31.454      861.712
07/04/2014  16:06:00     -290.334     -122.380       10.260      217.723      145.227       88.423    47403.243    21090.855     7818.655        8.783        3.816      315.072      101.396        0.104      350.524       31.748      861.756
07/04/2014  16:07:00     -480.140     -273.512      -14.267      313.141      207.593      110.615    98057.097    43094.875    12235.789       22.944        7.669      552.579      112.344        0.041      350.377       31.494      861.705
07/04/2014  16:08:00     -619.076     -272.215      -25.885      295.019      295.962      134.923    87036.140    87593.568    18204.122       32.540        9.642      676.281      138.681        0.042      350.390       31.516      861.731
07/04/2014  16:09:00     -568.837     -141.695      -22.504      308.114      207.364      113.038    94934.135    42999.916    12777.652       24.741        7.536      586.219      131.919        0.051      350.283       31.330      861.770
07/04/2014  16:10:00     -407.513     -163.237      -28.021      165.993      197.729       94.454    27553.526    39096.851     8921.478       13.452        3.779      438.991       88.212        0.040      350.322       31.397      861.776
07/04/2014  16:11:00     -248.669     -138.936       -2.191      158.785      140.201       72.851    25212.715    19656.362     5307.272        6.565        2.509      284.850       83.760        0.086      350.333       31.417      861.765
07/04/2014  16:12:00     -691.150      -18.302      -74.634      282.633      168.118      100.509    79881.181    28263.716    10102.053       30.090        5.912      691.393      113.394        0.027      350.270       31.306      861.712
07/04/2014  16:13:00     -497.839     -117.259      -12.644      245.172      217.908       91.793    60109.366    47484.007     8425.929       18.887        5.801      511.462       96.350        0.035      350.483       31.678      861.707
07/04/2014  16:14:00     -290.123        4.926        1.388      213.063      128.436       82.191    45395.970    16495.871     6755.321        7.641        3.432      290.164       92.569        0.102      350.657       31.981      861.752
07/04/2014  16:15:00     -411.583     -176.748       -4.492      233.450      230.263      103.485    54499.049    53021.000    10709.049       15.943        5.911      447.929      115.016        0.066      350.628       31.930      861.766
07/04/2014  16:16:00     -478.233     -250.895      -29.045      278.826      182.460      104.611    77744.024    33291.613    10943.431       20.722        6.099      540.052      119.734        0.049      350.270       31.307      861.757
07/04/2014  16:17:00     -557.817     -422.919       -1.553      266.086      210.822      141.027    70801.512    44446.051    19888.568       31.256        6.757      700.014      166.111        0.056      350.110       31.029      861.705
07/04/2014  16:18:00     -263.076     -169.512       16.324      282.945      210.744      113.534    80057.619    44413.002    12890.002       11.776        6.868      312.959      135.935        0.189      350.488       31.686      861.664
07/04/2014  16:19:00     -408.884     -161.885      -21.710      192.220      134.314       91.320    36948.595    18040.188     8339.304       12.859        3.166      439.764      108.342        0.061      350.519       31.739      861.727
07/04/2014  16:20:00     -321.524     -141.894      -16.348      212.384      147.932       79.464    45106.786    21883.860     6314.469        9.853        3.665      351.442       84.218        0.057      350.396       31.526      861.717
07/04/2014  16:21:00     -313.790     -181.022       19.150      256.974      183.386      114.951    66035.634    33630.268    13213.835       12.222        5.644      362.262      148.845        0.169      350.406       31.544      861.663
07/04/2014  16:22:00     -536.429       65.345      -37.276      242.298      226.143       87.817    58708.468    51140.585     7711.854       20.547        5.878      540.394       95.652        0.031      350.413       31.556      861.680
07/04/2014  16:23:00     -385.709      -56.721      -14.846      162.202      148.097       85.450    26309.406    21932.764     7301.753       10.387        2.777      389.857       79.048        0.041      350.463       31.642      861.716
07/04/2014  16:24:00     -310.644      -61.373        4.083      248.393      197.602       94.960    61699.146    39046.712     9017.423       10.500        5.488      316.649      107.397        0.115      350.633       31.940      861.699
07/04/2014  16:25:00     -430.384     -169.984       -0.020      254.396      235.446      124.921    64717.309    55434.613    15605.322       17.492        6.788      462.736      139.133        0.090      350.393       31.521      861.665
07/04/2014  16:26:00     -440.713      -78.699       16.960      355.449      163.111      106.139   126344.207    26605.108    11265.391       18.243        8.211      447.684      136.099        0.092      350.402       31.537      861.661
07/04/2014  16:27:00     -360.152      -77.395        5.753      197.345      124.739       75.529    38944.948    15559.731     5704.670        9.796        3.010      368.374       88.067        0.057      350.411       31.553      861.662
07/04/2014  16:28:00     -607.792     -130.003      -28.799      255.220      153.681      108.182    65137.215    23617.905    11703.389       24.378        5.023      621.540      134.412        0.047      350.212       31.206      861.680
07/04/2014  16:29:00     -460.518     -122.378       15.523      346.273      244.820      141.525   119904.712    59936.766    20029.397       21.355        9.994      476.501      168.084        0.124      350.090       30.993      861.679
07/04/2014  16:30:00     -382.785      -38.094       -1.470      200.183      158.730       83.597    40073.393    25195.141     6988.393       11.011        3.613      384.676       93.338        0.059      350.089       30.994      861.673
07/04/2014  16:31:00     -523.076      -35.604      -24.249      260.511      152.902      102.280    67865.725    23379.055    10461.197       18.857        5.085      524.286      134.375        0.066      350.237       31.250      861.651
07/04/2014  16:32:00     -496.732     -175.962       -4.630      286.759      189.364      102.495    82230.723    35858.879    10505.181       20.314        6.430      526.978      122.346        0.054      350.346       31.438      861.651
07/04/2014  16:33:00     -566.051     -169.600      -22.796      229.924      177.913      108.600    52865.100    31652.876    11793.900       22.299        4.816      590.912       96.041        0.026      350.243       31.260      861.631
07/04/2014  16:34:00     -487.277     -270.584      -12.421      219.998      233.316      106.637    48398.918    54436.435    11371.429       21.249        5.710      557.363      100.951        0.033      350.194       31.174      861.607
07/04/2014  16:35:00     -728.364     -376.618      -49.209      310.314      213.097      122.790    96294.885    45410.415    15077.399       41.575        7.839      819.973      117.225        0.020      349.990       30.820      861.625
07/04/2014  16:36:00     -327.583     -112.811       -3.938      198.357      161.434       86.237    39345.342    26060.782     7436.756        9.644        3.642      346.464       97.712        0.080      350.127       31.059      861.643
07/04/2014  16:37:00     -406.111     -258.511      -11.158      223.355      184.022       82.733    49887.243    33864.086     6844.811       16.122        4.530      481.408       99.843        0.043      350.210       31.203      861.587
07/04/2014  16:38:00     -589.789      -43.658      -25.524      291.729      210.621      117.419    85105.586    44361.310    13787.131       24.681        7.163      591.403      135.291        0.052      350.428       31.580      861.569
07/04/2014  16:39:00     -374.347      -70.195       -7.786      279.427      168.715      100.590    78079.287    28464.912    10118.266       13.087        5.833      380.871      123.527        0.105      350.325       31.403      861.585
07/04/2014  16:40:00     -546.235      -15.495      -27.292      243.558      166.656       92.912    59320.675    27774.252     8632.694       19.753        4.786      546.455      109.187        0.040      350.359       31.462      861.641
07/04/2014  16:41:00     -129.299     -105.826       15.754      179.189      146.357       99.732    32108.747    21420.434     9946.373        4.581        3.174      167.085       95.807        0.329      350.487       31.684      861.640
07/04/2014  16:42:00     -210.111      -34.376        7.553      178.661      155.835       73.710    31919.761    24284.417     5433.092        5.350        3.082      212.905       82.697        0.151      350.463       31.644      861.635
07/04/2014  16:43:00     -483.410     -266.452      -16.809      206.343      163.079       94.889    42577.284    26594.785     9004.011       19.156        3.909      551.979       98.512        0.032      350.210       31.203      861.587
07/04/2014  16:44:00     -377.425     -203.699       -8.228      213.677      187.744      109.503    45657.723    35247.864    11990.895       13.844        4.645      428.886      114.384        0.071      350.242       31.260      861.555
07/04/2014  16:45:00     -617.205     -213.393      -29.362      308.696      257.175      118.727    95293.338    66138.756    14096.194       30.141        8.776      653.053      142.261        0.047      350.127       31.059      861.528
07/04/2014  16:46:00     -424.502      -79.108       -8.613      232.658      187.776       97.434    54129.879    35259.785     9493.318       14.269        4.944      431.810       94.403        0.048      350.242       31.258      861.561
07/04/2014  16:47:00     -515.754     -229.155      -22.234      232.387      188.904      109.317    54003.739    35684.846    11950.168       21.031        5.082      564.370      116.899        0.043      350.299       31.359      861.564
07/04/2014  16:48:00     -497.639     -126.592      -14.093      205.611      171.712       91.502    42275.817    29485.141     8372.575       17.199        4.007      513.488       98.513        0.037      350.304       31.367      861.557
07/04/2014  16:49:00     -379.873     -171.517      -14.348      261.543      177.834       97.576    68404.821    31625.002     9521.085       14.172        5.478      416.799      117.547        0.080      350.231       31.238      861.576
07/04/2014  16:50:00     -391.776     -222.503       14.633      270.196      195.174      123.978    73005.980    38092.939    15370.664       16.482        6.323      450.550      136.006        0.091      350.119       31.044      861.568
07/04/2014  16:51:00     -359.266     -142.289       -4.659      183.298      189.296       84.054    33598.035    35833.013     7065.050       11.291        3.825      386.417       88.202        0.052      350.183       31.156      861.590
07/04/2014  16:52:00     -328.270     -184.090        3.006      223.425      178.546      104.955    49918.778    31878.642    11015.463       11.722        4.641      376.364      127.284        0.114      350.264       31.297      861.617
07/04/2014  16:53:00     -253.957        8.217       -9.139      180.990      145.027       64.895    32757.301    21032.819     4211.329        6.131        2.900      254.090       74.219        0.085      350.285       31.335      861.610
07/04/2014  16:54:00     -521.019     -282.249      -18.818      295.045      190.928      120.613    87051.413    36453.578    14547.425       24.474        6.903      592.558      136.638        0.053      350.105       31.020      861.607
07/04/2014  16:55:00     -564.986      -81.607      -36.801      290.584      197.749       88.994    84438.952    39104.489     7919.930       22.932        6.573      570.849      102.285        0.032      350.203       31.191      861.580
07/04/2014  16:56:00     -382.933     -210.391       -3.342      255.553      174.990      100.477    65307.266    30621.558    10095.628       14.845        5.301      436.923      118.912        0.074      350.207       31.198      861.593
07/04/2014  16:57:00     -557.521     -198.374      -12.150      184.377      133.473       87.213    33995.026    17815.161     7606.089       20.486        2.971      591.761       83.096        0.020      350.063       30.946      861.576
07/04/2014  16:58:00     -515.328     -109.355      -31.407      218.431      166.670       80.417    47711.901    27778.793     6466.841       18.022        4.098      526.803       86.983        0.027      350.215       31.210      861.579
07/04/2014  16:59:00     -314.931      -67.575       -3.797      268.455      176.170      120.982    72068.256    31035.902    14636.682       11.073        5.887      322.100      136.676        0.180      350.178       31.147      861.534
07/04/2014  17:00:00     -377.063     -156.948       10.518      228.332      154.322       89.038    52135.652    23815.289     7927.720       12.539        4.194      408.423      107.184        0.069      350.283       31.331      861.563
07/04/2014  17:01:00     -457.571     -274.231      -11.934      277.865      216.801      131.822    77209.192    47002.568    17377.000       21.313        7.079      533.455      158.176        0.088      350.218       31.216      861.557
07/04/2014  17:02:00     -517.445     -299.785      -19.705      304.059      227.219       99.463    92451.979    51628.700     9892.931       25.597        7.699      598.013      117.576        0.039      350.100       31.013      861.549
07/04/2014  17:03:00     -466.092     -300.725      -16.979      295.894      244.184      125.678    87553.031    59626.009    15795.044       23.544        8.149      554.686      144.834        0.068      350.029       30.887      861.509
07/04/2014  17:04:00     -420.283     -208.421      -22.010      191.066      187.622       94.610    36506.109    35202.199     8950.976       15.060        4.033      469.124       94.487        0.041      350.149       31.096      861.573
07/04/2014  17:05:00     -382.046     -207.538       -2.427      212.162      223.675      103.625    45012.771    50030.711    10738.158       14.739        5.289      434.777      119.275        0.075      350.191       31.169      861.575
07/04/2014  17:06:00     -497.718     -222.024       18.597      239.758      215.831      104.782    57483.934    46583.195    10979.281       20.619        5.752      544.993      121.681        0.050      350.132       31.068      861.586
07/04/2014  17:07:00     -597.950     -205.218      -34.574      252.002      205.495       95.286    63505.063    42228.181     9079.455       25.781        5.741      632.186       94.578        0.022      350.011       30.858      861.557
07/04/2014  17:08:00     -600.208      -28.156      -30.910      246.575      275.816      114.507    60799.088    76074.598    13111.951       25.597        7.499      600.868      105.669        0.031      349.997       30.832      861.548
07/04/2014  17:09:00     -352.254     -111.173        0.636      255.116      164.234       90.685    65084.410    26972.744     8223.730       11.835        5.014      369.381      123.516        0.112      350.205       31.195      861.575
07/04/2014  17:10:00     -549.514     -136.965      -44.050      299.733      189.395      105.746    89840.132    35870.648    11182.235       22.976        6.845      566.326      128.530        0.052      350.032       30.892      861.545
07/04/2014  17:11:00     -379.407     -189.641       -5.867      226.933      180.565      109.693    51498.519    32603.879    12032.455       13.803        4.807      424.162      123.998        0.085      350.134       31.071      861.575
07/04/2014  17:12:00     -325.949     -202.137       -9.074      225.754      165.075       92.484    50964.839    27249.669     8553.225       11.696        4.338      383.538      118.080        0.095      350.002       30.842      861.550
07/04/2014  17:13:00     -434.791     -296.279      -13.174      180.656      163.148       94.244    32636.561    26617.395     8882.019       17.256        3.407      526.141      101.803        0.037      350.037       30.901      861.528
07/04/2014  17:14:00     -318.904      -31.903       -8.095      153.155      117.400       68.228    23456.478    13782.683     4655.066        7.233        2.095      320.496       75.381        0.055      350.309       31.377      861.548
07/04/2014  17:15:00     -506.852     -151.550      -27.890      294.724      166.633      106.279    86862.165    27766.606    11295.139       20.326        6.296      529.024      126.310        0.057      350.149       31.096      861.568
07/04/2014  17:16:00     -586.414     -282.129      -36.714      273.113      204.311      112.766    74590.619    41742.919    12716.058       27.692        6.452      650.752      115.940        0.032      350.040       30.907      861.548
07/04/2014  17:17:00     -489.970     -224.044        4.677      274.531      174.159      115.678    75367.216    30331.410    13381.496       20.466        5.954      538.763      122.998        0.052      350.058       30.938      861.533
07/04/2014  17:18:00     -587.857     -331.354        9.241      303.036      263.292      128.132    91830.994    69322.604    16417.750       31.648        8.879      674.812      145.453        0.046      349.852       30.581      861.505
07/04/2014  17:19:00     -425.364     -219.105        3.098      237.724      187.132      116.104    56512.878    35018.258    13480.084       16.696        5.251      478.479      126.182        0.070      349.994       30.828      861.546
07/04/2014  17:20:00     -404.492     -252.514      -13.767      249.161      179.268      112.464    62081.067    32136.897    12648.110       16.720        5.343      476.841      108.623        0.052      349.965       30.777      861.573
07/04/2014  17:21:00     -302.836     -119.243        7.166      178.047      146.208       75.223    31700.762    21376.664     5658.453        8.235        2.937      325.466       71.877        0.049      350.089       30.992      861.584
07/04/2014  17:22:00     -356.207     -292.729       -4.013      220.823      210.765      106.040    48763.012    44421.714    11244.541       15.849        5.221      461.057      116.354        0.064      350.016       30.865      861.574
07/04/2014  17:23:00     -280.260     -224.719       -4.989      207.922      166.473       95.032    43231.387    27713.095     9031.043       10.451        3.999      359.228       95.634        0.071      350.042       30.910      861.580
07/04/2014  17:24:00     -300.130     -194.942       -0.661      194.620      144.748      102.413    37877.114    20951.839    10488.471        9.869        3.466      357.883       93.869        0.069      350.098       31.007      861.587
07/04/2014  17:25:00     -373.579     -263.186       -2.054      192.088      164.073      112.783    36897.947    26919.939    12719.961       14.267        3.827      456.978      105.583        0.053      350.096       31.004      861.564
07/04/2014  17:26:00     -283.668     -138.338       -0.978      217.004      130.487       81.586    47090.544    17026.885     6656.324        8.518        3.539      315.602      101.440        0.103      350.307       31.371      861.612
07/04/2014  17:27:00     -323.923      -63.927      -18.203      159.864      127.838       88.521    25556.422    16342.450     7836.018        7.953        2.487      330.171       78.463        0.056      350.249       31.271      861.583
07/04/2014  17:28:00     -479.323     -254.306       -6.035      252.074      195.731      106.714    63541.313    38310.451    11387.906       20.383        5.662      542.606      133.076        0.060      350.085       30.987      861.595
07/04/2014  17:29:00     -546.592     -369.024      -11.955      230.567      152.773       96.498    53161.229    23339.525     9311.957       26.043        4.291      659.501       82.948        0.016      349.988       30.817      861.558
07/04/2014  17:30:00     -415.167     -286.435      -12.845      242.253      206.786      104.725    58686.669    42760.581    10967.339       18.348        5.621      504.390      110.509        0.048      350.102       31.015      861.580
07/04/2014  17:31:00     -464.584     -241.015      -23.330      291.273      202.778      110.116    84839.701    41118.976    12125.583       20.625        6.904      523.380      125.657        0.058      349.876       30.622      861.550
07/04/2014  17:32:00     -485.838     -254.704      -18.645      213.145      171.533       97.985    45430.702    29423.602     9601.090       19.284        4.223      548.556      102.837        0.035      349.919       30.698      861.537
07/04/2014  17:33:00     -383.050     -281.224      -12.176      243.134      262.397      112.619    59114.230    68852.222    12682.927       18.328        7.032      475.199      117.300        0.061      350.037       30.902      861.505
07/04/2014  17:34:00     -204.435     -118.128        6.462      214.503      186.799      121.038    46011.623    34893.904    14650.238        7.566        4.778      236.110      126.854        0.289      350.160       31.116      861.509
07/04/2014  17:35:00     -418.937     -128.919      -15.487      356.555      184.076      103.998   127131.637    33884.027    10815.587       18.207        8.592      438.325      146.310        0.111      350.052       30.927      861.505
07/04/2014  17:36:00     -370.168     -141.503       -1.775      191.115      148.177       84.998    36525.058    21956.559     7224.724       11.137        3.285      396.293       92.030        0.054      350.048       30.921      861.512
07/04/2014  17:37:00     -278.811     -155.564      -12.189      180.761      157.783       87.803    32674.668    24895.403     7709.342        8.367        3.264      319.274       95.484        0.089      350.114       31.036      861.537
07/04/2014  17:38:00     -386.209     -119.510       -7.534      165.006      148.210       79.497    27226.892    21966.116     6319.778       10.950        2.776      404.277       77.770        0.037      350.072       30.964      861.532
07/04/2014  17:39:00     -432.562     -234.211      -16.716      241.130      146.638       84.730    58143.865    21502.838     7179.194       16.452        4.341      491.899       92.924        0.036      349.866       30.605      861.505
07/04/2014  17:40:00     -242.168     -174.466       16.262      246.103      182.053      112.708    60566.686    33143.420    12702.997        9.786        5.321      298.469      128.427        0.185      350.018       30.869      861.516
07/04/2014  17:41:00     -332.786      -55.230        0.539      265.654      146.027       83.425    70571.989    21323.961     6959.706       10.631        4.943      337.338      102.118        0.092      350.115       31.037      861.539
07/04/2014  17:42:00     -487.123     -107.455      -14.898      250.684      132.591       92.032    62842.663    17580.366     8469.921       16.896        4.445      498.834      108.463        0.047      350.033       30.895      861.557
07/04/2014  17:43:00     -275.673     -165.697      -10.212      221.956      167.714       96.449    49264.260    28127.943     9302.349        9.511        4.335      321.638      108.792        0.114      350.044       30.914      861.545
07/04/2014  17:44:00     -290.259     -197.810        7.136      260.243      221.000      113.058    67726.202    48840.798    12782.056       12.637        6.467      351.254      134.235        0.146      350.044       30.914      861.534
07/04/2014  17:45:00     -417.482     -292.433      -23.318      177.514      192.102       95.305    31511.288    36903.168     9083.044       16.891        3.875      509.714       84.612        0.028      349.898       30.661      861.543
07/04/2014  17:46:00     -350.415     -116.345       -0.675      224.214      189.462       81.704    50271.901    35895.814     6675.488       11.457        4.642      369.225       76.751        0.043      349.979       30.802      861.544
07/04/2014  17:47:00     -592.618     -285.525      -11.290      286.280      250.832      112.391    81956.520    62916.610    12631.670       29.515        7.875      657.815      126.767        0.037      349.791       30.475      861.538
07/04/2014  17:48:00     -332.708     -203.272      -26.485      148.259      148.882       87.175    21980.859    22165.814     7599.528       10.222        2.587      389.890       71.174        0.033      349.769       30.437      861.539
07/04/2014  17:49:00     -388.424     -225.356       -7.631      263.519      175.205      102.058    69442.467    30696.746    10415.785       15.612        5.528      449.064      117.597        0.069      349.864       30.601      861.555
07/04/2014  17:50:00     -409.439     -274.540       10.988      335.991      188.643      129.320   112889.756    35586.214    16723.649       20.414        8.260      492.963      152.452        0.096      349.767       30.433      861.526
07/04/2014  17:51:00     -269.829     -167.840       -5.956      202.229      163.088       88.673    40896.459    26597.626     7862.927        8.817        3.768      317.771      101.882        0.103      349.905       30.673      861.531
07/04/2014  17:52:00     -226.312     -150.064       -5.330      203.703      142.215       79.359    41494.890    20225.214     6297.880        7.088        3.401      271.544       76.531        0.079      349.943       30.740      861.505
07/04/2014  17:53:00     -385.148     -116.600      -20.062      262.078      140.154      101.539    68684.856    19643.279    10310.116       13.047        4.932      402.411      118.483        0.087      349.975       30.795      861.520
07/04/2014  17:54:00     -363.329      -48.860       15.118      267.027      192.535      103.499    71303.337    37069.709    10711.998       12.683        5.954      366.600      120.235        0.108      349.964       30.777      861.476
07/04/2014  17:55:00     -389.492     -142.682      -23.227      228.453      164.622       88.319    52190.758    27100.538     7800.291       12.983        4.355      414.804       85.631        0.043      349.987       30.815      861.508
07/04/2014  17:56:00     -550.264      -93.552      -22.096      295.288      191.090      119.371    87194.939    36515.499    14249.414       22.497        6.898      558.160      137.481        0.061      349.827       30.537      861.527
07/04/2014  17:57:00     -642.629     -164.129      -21.424      309.994      209.476      116.510    96096.419    43880.235    13574.609       29.693        7.678      663.258      146.593        0.049      349.633       30.200      861.496
07/04/2014  17:58:00     -466.433     -132.364       -3.330      239.371      200.377       93.077    57298.631    40150.867     8663.341       17.058        5.306      484.850      100.914        0.043      349.691       30.301      861.522
07/04/2014  17:59:00     -626.258     -180.918      -20.951      353.890      210.897      104.751   125237.992    44477.560    10972.728       30.300        9.034      651.867      141.002        0.047      349.666       30.256      861.513
07/04/2014  18:00:00     -489.623      -45.908       -1.388      308.960      258.324      110.878    95456.501    66731.457    12293.934       20.813        8.724      491.770      138.071        0.079      349.777       30.450      861.500
07/04/2014  18:01:00     -358.056     -207.296        2.521      294.040      202.918       99.940    86459.443    41175.512     9987.962       15.438        6.881      413.734      119.102        0.083      349.843       30.565      861.539
07/04/2014  18:02:00     -491.148     -169.054       -7.562      311.538      205.457      105.748    97055.670    42212.420    11182.626       21.013        7.523      519.428      107.925        0.043      349.757       30.417      861.537
07/04/2014  18:03:00     -566.865     -267.226      -23.962      254.096      236.275      118.264    64564.762    55825.986    13986.257       26.383        6.719      626.694      122.893        0.038      349.706       30.327      861.582
07/04/2014  18:04:00     -482.978     -165.232       -2.448      235.011      182.059       99.201    55230.058    33145.458     9840.923       17.938        4.911      510.460       97.042        0.036      349.584       30.115      861.579
07/04/2014  18:05:00     -223.836      -51.222       12.943      168.471      125.902       84.033    28382.482    15851.249     7061.471        5.209        2.565      229.622       86.857        0.143      349.825       30.535      861.568
07/04/2014  18:06:00     -589.553       18.177      -22.513      285.800      171.932      102.983    81681.855    29560.484    10605.514       23.511        6.092      589.833      128.091        0.047      349.741       30.388      861.532
07/04/2014  18:07:00     -284.275     -109.499       12.020      230.188      136.382       90.930    52986.523    18600.101     8268.322        8.639        3.993      304.634      102.937        0.114      349.877       30.625      861.554
07/04/2014  18:08:00     -457.667     -159.318      -16.408      286.891      207.732      112.145    82306.469    43152.788    12576.533       18.655        6.902      484.604      118.832        0.060      349.777       30.449      861.560
07/04/2014  18:09:00     -332.099      -32.497        2.076      252.200      145.389      105.837    63604.828    21138.001    11201.563       10.363        4.797      333.685      113.881        0.116      349.751       30.406      861.561
07/04/2014  18:10:00     -301.683      -25.917       -3.290      307.413      136.225      111.713    94502.843    18557.385    12479.816       10.860        6.277      302.794      131.207        0.188      349.811       30.510      861.539
07/04/2014  18:11:00     -568.484     -211.562      -24.807      284.405      247.914      104.143    80885.930    61461.264    10845.785       26.084        7.660      606.575      130.411        0.046      349.671       30.266      861.513
07/04/2014  18:12:00     -661.607      -82.106      -33.415      253.997      185.752      109.196    64514.224    34503.745    11923.737       27.824        5.547      666.683      113.452        0.029      349.641       30.213      861.514
07/04/2014  18:13:00     -473.093     -174.978      -18.213      218.711      156.120       90.633    47834.295    24373.489     8214.395       16.758        4.021      504.415       96.903        0.037      349.726       30.361      861.527
07/04/2014  18:14:00     -586.384     -281.140      -25.646      303.095      211.022      117.205    91866.601    44530.198    13736.944       28.681        7.507      650.297      133.562        0.042      349.620       30.179      861.548
07/04/2014  18:15:00     -239.207      -81.375       12.300      293.838      162.125       97.185    86340.555    26284.556     9444.830        9.301        6.103      252.670      106.432        0.177      349.717       30.348      861.579
07/04/2014  18:16:00     -416.895     -266.105      -12.864      252.014      176.252      103.537    63510.885    31064.754    10719.884       17.502        5.265      494.584      109.464        0.049      349.561       30.074      861.595
07/04/2014  18:17:00     -318.151     -213.546       -2.127      239.889      183.393      123.077    57546.622    33632.932    15148.055       12.656        5.316      383.174      133.628        0.122      349.565       30.084      861.612
07/04/2014  18:18:00     -477.764     -316.905      -20.753      267.478      191.892      107.852    71544.423    36822.493    11632.074       22.454        6.000      573.313      128.728        0.050      349.514       29.995      861.608
07/04/2014  18:19:00     -459.590     -286.675       -3.885      264.193      178.260       98.855    69798.044    31776.729     9772.372       20.236        5.567      541.669      119.230        0.048      349.511       29.989      861.601
07/04/2014  18:20:00     -435.984     -185.395      -19.019      201.048      190.066       97.206    40420.156    36125.043     9449.018       15.539        4.300      473.765       91.624        0.037      349.518       30.000      861.616
07/04/2014  18:21:00     -418.691     -261.189      -12.321      204.348      154.057      101.432    41758.146    23733.673    10288.535       15.971        3.789      493.479      108.909        0.049      349.531       30.025      861.637
07/04/2014  18:22:00     -407.935     -286.764       13.563      255.137      184.383      115.656    65095.107    33997.186    13376.237       18.063        5.623      498.643      121.339        0.059      349.466       29.911      861.579
07/04/2014  18:23:00     -591.030     -216.018      -51.047      312.091      195.217       98.457    97400.842    38109.870     9693.830       27.187        7.260      629.269      114.357        0.033      349.538       30.035      861.593
07/04/2014  18:24:00     -316.262     -175.029        7.418      187.761      189.272       88.787    35254.302    35823.823     7883.087       10.482        3.948      361.465       99.769        0.076      349.621       30.179      861.600
07/04/2014  18:25:00     -448.260      -43.023      -12.366      217.525      207.627       96.220    47317.331    43108.817     9258.198       15.130        4.984      450.320      106.485        0.056      349.669       30.264      861.623
07/04/2014  18:26:00     -316.189     -106.145       25.114      183.027      162.517       91.166    33498.813    26411.906     8311.208        9.004        3.411      333.530       93.271        0.078      349.662       30.252      861.592
07/04/2014  18:27:00     -345.243     -180.443       -2.944      268.994      193.970      107.754    72357.528    37624.222    11610.920       13.666        6.080      389.555      120.385        0.096      349.617       30.174      861.607
07/04/2014  18:28:00     -402.774     -251.875      -10.529      238.554      227.118      116.081    56908.241    51582.413    13474.739       17.385        6.098      475.045      124.922        0.069      349.430       29.848      861.561
07/04/2014  18:29:00     -347.862     -149.025       -9.847      179.160      177.952       91.519    32098.146    31666.831     8375.737       10.771        3.607      378.439       90.177        0.057      349.545       30.047      861.597
07/04/2014  18:30:00     -360.159     -163.189       -7.539      207.393      164.255       87.036    43011.790    26979.830     7575.210       11.697        3.878      395.405       98.790        0.062      349.574       30.098      861.580
07/04/2014  18:31:00     -456.598      -75.297        0.589      309.236      137.640       84.005    95627.005    18944.791     7056.783       16.787        6.081      462.765      113.311        0.060      349.627       30.191      861.605
07/04/2014  18:32:00     -240.344      -61.656        8.380      172.798      128.806       78.507    29859.167    16590.973     6163.422        5.712        2.631      248.126       83.702        0.114      349.682       30.286      861.591
07/04/2014  18:33:00     -377.474      -80.978      -12.803      254.039      155.630       90.468    64536.042    24220.775     8184.385       12.306        4.847      386.063      105.607        0.075      349.615       30.168      861.579
07/04/2014  18:34:00     -482.618     -119.870      -20.263      259.447      198.313       88.095    67312.897    39328.031     7760.719       18.103        5.720      497.282      109.693        0.049      349.500       29.970      861.587
07/04/2014  18:35:00     -328.187      -81.981       -0.406      228.809      165.850       82.049    52353.729    27506.111     6732.071       10.050        4.330      338.272      100.713        0.089      349.559       30.072      861.603
07/04/2014  18:36:00     -534.011       -9.964      -30.473      265.315      163.497      103.765    70392.242    26731.322    10767.205       19.702        5.395      534.104      125.285        0.055      349.500       29.971      861.635
07/04/2014  18:37:00     -296.767      -90.995       -9.898      161.485      153.208       79.272    26077.470    23472.633     6284.048        7.613        2.792      310.404       72.138        0.054      349.598       30.141      861.647
07/04/2014  18:38:00     -224.174      -52.271        4.976      132.299      117.494       66.355    17503.075    13804.906     4402.931        4.436        1.786      230.188       55.843        0.059      349.729       30.369      861.665
07/04/2014  18:39:00     -461.902     -150.730      -14.713      329.178      215.899      112.019   108357.955    46612.406    12548.163       20.188        8.376      485.873      141.095        0.084      349.521       30.005      861.635
07/04/2014  18:40:00     -476.647     -100.508      -12.555      282.116      178.642      109.506    79589.367    31912.918    11991.621       18.045        6.175      487.128      110.483        0.051      349.385       29.770      861.652
07/04/2014  18:41:00     -394.497     -186.884      -23.215      266.970      210.680      116.918    71272.723    44386.210    13669.921       16.019        6.466      436.525      129.559        0.088      349.392       29.784      861.625
07/04/2014  18:42:00     -574.498     -159.243      -24.696      287.646      219.441       86.458    82740.339    48154.551     7475.035       24.717        6.918      596.160      102.025        0.029      349.355       29.719      861.670
07/04/2014  18:43:00     -326.080     -213.339       -3.305      215.678      161.110      108.383    46516.952    25956.561    11746.818       11.802        4.211      389.669      113.513        0.085      349.421       29.833      861.679
07/04/2014  18:44:00     -262.635     -150.410        0.638      209.151      143.733      108.461    43744.004    20659.261    11763.682        8.387        3.808      302.655      115.700        0.146      349.434       29.855      861.686
07/04/2014  18:45:00     -464.106       16.589      -27.649      220.935      199.590      104.099    48812.144    39835.982    10836.540       15.794        4.974      464.403       86.013        0.034      349.402       29.800      861.714
07/04/2014  18:46:00     -559.954     -113.729      -33.122      192.808      208.729       91.174    37174.957    43567.837     8312.610       20.830        4.453      571.386       95.320        0.028      349.349       29.709      861.677
07/04/2014  18:47:00     -602.069     -127.589      -18.945      217.900      194.402       98.461    47480.544    37792.147     9694.581       23.703        4.748      615.440      105.348        0.029      349.333       29.680      861.688
07/04/2014  18:48:00     -315.512     -132.677      -10.942      204.749      184.752      114.210    41922.079    34133.482    13043.873       10.317        4.455      342.273      118.858        0.121      349.409       29.813      861.727
07/04/2014  18:49:00     -540.467     -310.061      -27.947      311.012      243.546      132.637    96728.209    59314.471    17592.679       28.130        8.682      623.091      143.281        0.053      349.325       29.666      861.712
07/04/2014  18:50:00     -448.534     -280.119       -8.880      227.449      224.091      106.241    51733.094    50216.617    11287.153       19.646        5.662      528.819      104.664        0.039      349.268       29.569      861.700
07/04/2014  18:51:00     -545.391     -239.127      -12.066      332.239      216.302      125.051   110382.950    46786.523    15637.685       26.376        8.640      595.511      157.762        0.070      349.279       29.587      861.734
07/04/2014  18:52:00     -618.337     -186.141      -27.921      259.661      252.949      111.969    67423.825    63983.329    12536.964       28.083        7.197      645.747      126.818        0.039      349.237       29.514      861.749
07/04/2014  18:53:00     -489.204     -264.594      -18.566      212.833      201.413      109.101    45297.688    40567.354    11903.025       20.371        4.888      556.175      109.233        0.039      349.261       29.556      861.791
07/04/2014  18:54:00     -415.109     -257.026      -16.456      221.485      199.198       90.774    49055.660    39679.927     8239.958       16.780        4.849      488.240       99.729        0.042      349.264       29.562      861.803
07/04/2014  18:55:00     -439.629     -276.967       -0.936      275.463      209.796      115.577    75879.900    44014.281    13358.048       20.160        6.663      519.601      117.579        0.051      349.231       29.505      861.790
07/04/2014  18:56:00     -430.541     -196.883      -24.361      242.929      210.592      122.020    59014.730    44349.056    14888.870       17.147        5.913      473.422      129.779        0.075      349.244       29.527      861.803
07/04/2014  18:57:00     -519.008     -274.809       -5.389      270.470      200.255      113.582    73154.188    40102.260    12900.786       23.552        6.308      587.273      133.525        0.052      349.252       29.539      861.822
07/04/2014  18:58:00     -378.773     -122.111       -6.374      259.051      136.248       90.037    67107.344    18563.470     8106.582       12.608        4.689      397.970      105.106        0.070      349.286       29.602      861.857
07/04/2014  18:59:00     -546.537      -72.854      -16.864      281.530      188.696       98.549    79258.961    35606.136     9711.883       21.442        6.229      551.372      113.649        0.042      349.285       29.598      861.867
07/04/2014  19:00:00     -421.728     -142.933      -29.615      245.808      148.717       90.707    60421.555    22116.757     8227.846       14.495        4.538      445.292      106.829        0.058      349.270       29.572      861.870
07/04/2014  19:01:00     -385.182     -193.458       -9.651      247.434      152.747       86.082    61223.431    23331.600     7410.160       13.891        4.598      431.035       78.304        0.033      349.294       29.613      861.862
07/04/2014  19:02:00     -569.042     -109.025      -32.307      324.182      226.596      116.442   105094.287    51345.681    13558.720       25.334        8.500      579.392      131.157        0.051      349.162       29.385      861.872
07/04/2014  19:03:00     -449.315     -252.723       -4.872      290.611      254.403      112.190    84454.733    64721.000    12586.573       21.374        8.088      515.512      133.943        0.068      349.165       29.390      861.873
07/04/2014  19:04:00     -375.154      -95.702      -10.929      238.596      182.602       97.042    56928.146    33343.623     9417.125       12.484        4.984      387.169      110.322        0.081      349.181       29.417      861.902
07/04/2014  19:05:00     -594.751      -58.246      -38.085      283.842      226.728      102.341    80566.394    51405.740    10473.604       25.048        7.122      597.596      126.435        0.045      349.174       29.405      861.908
07/04/2014  19:06:00     -299.113     -116.778       -4.739      207.664      187.584       94.091    43124.136    35187.669     8853.201        9.513        4.358      321.100      103.072        0.103      349.185       29.425      861.906
07/04/2014  19:07:00     -336.452     -195.622      -12.642      225.326      192.251       90.895    50771.858    36960.319     8261.860       12.379        4.800      389.189      101.179        0.068      349.171       29.400      861.898
07/04/2014  19:08:00     -380.081     -110.322       14.956      271.276      204.853      120.310    73590.600    41964.899    14474.418       14.342        6.501      395.768      134.120        0.115      349.147       29.356      861.924
07/04/2014  19:09:00     -574.802     -292.458      -11.784      310.902      235.057      124.488    96659.946    55251.981    15497.304       29.171        8.370      644.925      149.899        0.054      349.114       29.300      861.901
07/04/2014  19:10:00     -429.615     -137.880       -9.139      270.643      187.687      104.842    73247.862    35226.257    10991.857       16.154        5.973      451.198      116.711        0.067      349.161       29.383      861.941
07/04/2014  19:11:00     -638.638      -44.086      -39.468      298.839      180.929      108.661    89304.917    32735.288    11807.203       27.258        6.692      640.158      126.547        0.039      349.105       29.286      861.953
07/04/2014  19:12:00     -424.854     -115.687       -5.220      184.597      199.037       93.846    34076.172    39615.708     8807.043       13.819        4.125      440.323       97.043        0.049      349.124       29.318      861.986
07/04/2014  19:13:00     -461.025      -60.942      -20.001      220.340      149.067       81.094    48549.699    22220.901     6576.277       14.699        3.867      465.036       94.539        0.041      349.137       29.340      862.012
07/04/2014  19:14:00     -445.049     -112.780       12.579      289.899      164.412      125.538    84041.628    27031.345    15759.710       16.887        6.342      459.117      141.912        0.096      349.086       29.252      861.966
07/04/2014  19:15:00     -431.459      -95.465        5.692      208.221      167.214      102.079    43355.801    27960.402    10420.082       13.851        4.087      441.894      111.873        0.064      349.072       29.227      861.992
07/04/2014  19:16:00     -526.724     -141.287      -48.099      179.867      155.092       84.407    32352.175    24053.516     7124.581       18.161        3.177      545.344       88.856        0.027      349.051       29.192      862.018
07/04/2014  19:17:00     -244.399     -218.988        8.331      231.031      150.517       99.308    53375.256    22655.463     9862.068        9.681        4.295      328.156      110.394        0.113      349.047       29.185      862.011
07/04/2014  19:18:00     -341.861      -99.131        2.700      241.272      203.212       95.733    58212.035    41295.228     9164.899       11.767        5.434      355.943      113.962        0.103      349.076       29.235      861.981
07/04/2014  19:19:00     -437.655     -154.829      -19.708      204.863      180.258       87.308    41968.975    32492.812     7622.704       14.898        4.104      464.235       87.342        0.035      349.043       29.177      861.931
07/04/2014  19:20:00     -473.195      -96.191      -12.814      214.659      164.950      102.533    46078.376    27208.659    10513.093       15.855        4.190      482.873      119.932        0.062      349.034       29.162      861.999
07/04/2014  19:21:00     -399.896     -118.273       -2.259      293.901      170.535      105.776    86377.781    29082.211    11188.578       15.026        6.332      417.020      130.052        0.097      349.020       29.139      862.027
07/04/2014  19:22:00     -491.382     -284.741      -10.046      294.194      197.263      121.125    86550.173    38912.745    14671.337       23.136        7.007      567.921      145.538        0.066      348.956       29.028      862.037
07/04/2014  19:23:00     -515.709     -193.721       -5.275      253.734      201.887      105.999    64380.825    40758.394    11235.779       20.992        5.819      550.894      122.483        0.049      348.923       28.970      862.021
07/04/2014  19:24:00     -422.308     -214.818      -20.418      276.309      174.651      100.367    76346.476    30502.806    10073.562       17.090        5.846      473.805      119.336        0.063      348.969       29.049      862.008
07/04/2014  19:25:00     -398.653      -61.064        9.408      231.429      156.832       93.624    53559.364    24596.351     8765.426       12.482        4.346      403.302       97.377        0.058      348.978       29.065      862.019
07/04/2014  19:26:00     -373.118     -178.371      -10.674      223.841      222.655       99.929    50104.917    49575.262     9985.768       14.039        5.483      413.562      102.062        0.061      348.970       29.052      862.011
07/04/2014  19:27:00     -238.912     -202.102       15.323      246.131      207.904      132.218    60580.552    43224.015    17481.600       10.970        6.064      312.928      123.170        0.155      348.939       28.998      862.004
07/04/2014  19:28:00     -340.389     -124.791        6.506      255.194      172.964       95.908    65124.184    29916.516     9198.315       11.784        5.212      362.543      106.130        0.086      348.946       29.011      862.044
07/04/2014  19:29:00     -468.255      -97.059       -4.758      222.805      158.361      102.936    49641.951    25078.153    10595.882       15.700        4.266      478.208      111.906        0.055      348.902       28.934      862.073
07/04/2014  19:30:00     -244.928       -2.564       -4.336      181.939      114.151       67.544    33101.939    13030.355     4562.241        5.535        2.535      244.942       74.565        0.093      348.931       28.984      862.104
07/04/2014  19:31:00     -154.573      -45.257       11.784      124.045      115.744       71.144    15387.240    13396.621     5061.405        2.996        1.692      161.062       68.252        0.180      348.958       29.031      862.109
07/04/2014  19:32:00     -296.946     -208.326       -4.108      149.346      156.278       80.234    22304.258    24422.689     6437.476        9.237        2.658      362.734       91.258        0.063      348.872       28.882      862.093
07/04/2014  19:33:00     -263.627     -208.040        0.876      185.134      164.988       77.167    34274.450    27220.923     5954.728        9.010        3.373      335.828       91.672        0.075      348.867       28.873      862.115
07/04/2014  19:34:00     -326.010      -91.658      -21.087      215.112      191.067      122.078    46273.354    36506.612    14903.131       10.639        4.884      338.650      116.680        0.119      348.837       28.821      862.065
07/04/2014  19:35:00     -413.836      -90.786      -10.735      213.256      194.208      102.218    45478.171    37716.569    10448.527       13.661        4.682      423.677      103.705        0.060      348.784       28.730      862.066
07/04/2014  19:36:00     -458.491     -222.903       -7.023      223.523      179.800       96.914    49962.384    32328.048     9392.407       17.580        4.584      509.803      114.363        0.050      348.757       28.682      862.078
07/04/2014  19:37:00     -439.413      -61.337      -13.370      239.875      175.103       93.483    57540.032    30660.998     8739.103       14.697        4.847      443.673      110.911        0.062      348.737       28.649      862.087
07/04/2014  19:38:00     -532.974     -210.630      -23.403      309.904      238.573      103.876    96040.353    56916.971    10790.296       24.633        8.187      573.085      131.754        0.053      348.687       28.563      862.114
07/04/2014  19:39:00     -342.259      -61.862      -10.467      240.207      173.918       90.899    57699.465    30247.518     8262.667       10.863        4.810      347.805       92.761        0.071      348.707       28.597      862.109
07/04/2014  19:40:00     -553.388     -138.852      -17.412      265.607      188.480       94.911    70547.219    35524.865     9008.022       22.043        5.754      570.542      112.374        0.039      348.668       28.529      862.111
07/04/2014  19:41:00     -506.483     -133.360      -19.039      237.536      153.872       79.218    56423.351    23676.728     6275.423       18.051        4.319      523.746       90.695        0.030      348.658       28.510      862.119
07/04/2014  19:42:00     -418.000      -84.917       -6.565      294.506      184.553      101.698    86733.547    34059.860    10342.554       15.654        6.557      426.539      110.014        0.067      348.676       28.542      862.089
07/04/2014  19:43:00     -585.635     -148.912      -30.936      254.915      198.139      106.964    64981.452    39258.918    11441.263       24.087        5.784      604.270      112.816        0.035      348.636       28.471      862.107
07/04/2014  19:44:00     -426.847     -216.802       -4.163      263.816      190.863      132.480    69599.133    36428.791    17551.038       17.638        6.179      478.750      143.391        0.090      348.619       28.444      862.106
07/04/2014  19:45:00     -269.495     -150.121       21.426      236.618      187.594      108.216    55988.078    35191.419    11710.783        9.924        5.145      308.487      127.077        0.170      348.607       28.424      862.094
07/04/2014  19:46:00     -476.508     -128.610      -23.001      342.770      186.530      107.886   117491.122    34793.512    11639.303       20.400        8.196      493.559      139.142        0.079      348.621       28.448      862.112
07/04/2014  19:47:00     -347.025     -202.757       -2.094      231.515      174.722       98.278    53599.211    30527.884     9658.503       12.765        4.689      401.916      118.241        0.087      348.599       28.409      862.139
07/04/2014  19:48:00     -409.474     -198.081      -38.164      188.472      187.620       86.922    35521.669    35201.146     7555.405       14.331        3.914      454.868       90.499        0.040      348.607       28.422      862.147
07/04/2014  19:49:00     -527.099      -67.458      -18.561      230.322      176.701       88.391    53048.291    31223.208     7813.018       18.739        4.604      531.399      105.469        0.039      348.568       28.353      862.130
07/04/2014  19:50:00     -370.275      -43.023      -16.441      176.176      136.859       84.814    31037.976    18730.267     7193.462        9.808        2.848      372.766       92.085        0.061      348.562       28.344      862.130
07/04/2014  19:51:00     -198.675      -58.984       -0.359      140.796       91.034       55.190    19823.463     8287.138     3045.925        3.705        1.558      207.246       57.475        0.077      348.558       28.338      862.142
07/04/2014  19:52:00     -408.109     -197.930       -0.945      258.481      170.144       95.219    66812.218    28948.916     9066.666       15.526        5.241      453.574       90.322        0.040      348.520       28.272      862.100
07/04/2014  19:53:00     -608.998     -170.729       -8.518      229.018      207.672      101.702    52449.325    43127.861    10343.304       25.299        5.296      632.477      114.033        0.033      348.489       28.218      862.131
07/04/2014  19:54:00     -337.394      -90.148       -4.458      192.898      137.997       78.175    37209.662    19043.072     6111.347        9.216        3.118      349.230       85.745        0.060      348.499       28.237      862.186
07/04/2014  19:55:00     -565.176     -219.819      -31.687      257.166      198.903       87.336    66134.442    39562.402     7627.529       24.102        5.666      606.419      111.399        0.034      348.491       28.223      862.147
07/04/2014  19:56:00     -429.696      -28.469      -25.354      233.568      137.691       85.980    54554.142    18958.931     7392.476       13.349        4.045      430.638      107.263        0.062      348.457       28.165      862.153
07/04/2014  19:57:00     -312.623     -127.506        8.863      280.916      198.961      106.129    78913.929    39585.631    11263.433       12.189        6.488      337.626      140.208        0.172      348.412       28.087      862.142
07/04/2014  19:58:00     -418.772      -36.735       -4.593      223.270      136.373      101.246    49849.360    18597.612    10250.735       12.771        3.935      420.380      111.074        0.070      348.431       28.119      862.168
07/04/2014  19:59:00     -490.151     -180.683      -23.928      292.745      218.724      116.387    85699.678    47840.338    13545.992       21.025        7.354      522.393      142.472        0.074      348.424       28.106      862.144
07/04/2014  20:00:00     -515.525     -145.055      -19.338      265.344      224.728      102.457    70407.617    50502.575    10497.382       20.927        6.570      535.543      111.398        0.043      348.408       28.079      862.150
07/04/2014  20:01:00     -270.465     -173.310       -7.428      177.305      174.258      102.031    31437.233    30365.707    10410.375        8.772        3.611      321.228      107.281        0.112      348.424       28.107      862.183
07/04/2014  20:02:00     -282.331     -130.404      -15.870      268.318      122.950       80.517    71994.313    15116.622     6482.966        9.527        4.680      310.992       98.923        0.101      348.407       28.079      862.231
07/04/2014  20:03:00     -256.931     -112.667      -14.391      242.170      170.407       80.402    58646.531    29038.607     6464.485        8.652        4.707      280.548      108.465        0.149      348.398       28.062      862.235
07/04/2014  20:04:00     -271.178     -138.385        9.414      278.435      196.384      124.827    77526.039    38566.733    15581.711       11.220        6.584      304.447      151.090        0.246      348.331       27.947      862.226
07/04/2014  20:05:00     -299.543     -137.953        1.799      199.753      172.327       79.851    39901.416    29696.700     6376.228        9.235        3.799      329.784       86.405        0.069      348.330       27.945      862.250
07/04/2014  20:06:00     -187.311      -68.496       21.023      152.403      143.291       64.389    23226.697    20532.281     4145.953        4.405        2.395      199.442       74.821        0.141      348.310       27.909      862.276
07/04/2014  20:07:00     -372.606     -102.890       -2.963      179.813      171.690       92.120    32332.719    29477.419     8486.165       10.985        3.515      386.551      101.251        0.069      348.324       27.932      862.248
07/04/2014  20:08:00     -312.247      -80.756       -4.144      159.442      142.224       76.000    25421.769    20227.546     5775.995        7.772        2.571      322.521       75.581        0.055      348.295       27.883      862.253
07/04/2014  20:09:00     -365.042     -194.831      -11.892      200.117      179.980       90.546    40046.974    32392.928     8198.645       12.598        4.032      413.781       96.462        0.054      348.279       27.854      862.268
07/04/2014  20:10:00     -476.890     -134.086      -33.697      225.379      159.048       87.064    50795.876    25296.144     7580.093       16.509        4.184      495.382       82.652        0.028      348.256       27.815      862.260
07/04/2014  20:11:00     -316.796      -65.686      -11.657      211.757      135.079       80.578    44841.095    18246.212     6492.771        8.718        3.479      323.534       87.276        0.073      348.240       27.788      862.267
07/04/2014  20:12:00     -334.798     -127.246       10.372      262.951      214.119       94.973    69142.966    45846.998     9019.832       12.618        6.200      358.163      118.251        0.109      348.205       27.729      862.278
07/04/2014  20:13:00     -386.867      -43.898      -26.934      149.010      138.057       65.958    22203.906    19059.713     4350.452        9.896        2.281      389.350       76.267        0.038      348.247       27.799      862.267
07/04/2014  20:14:00     -267.494       -8.920       12.232      227.343      136.934       82.685    51684.639    18750.901     6836.842        7.451        3.864      267.642      100.333        0.141      348.190       27.702      862.234
07/04/2014  20:15:00     -444.726      -53.798      -22.768      188.676      155.837       92.700    35598.654    24285.178     8593.206       13.482        3.424      447.968       76.118        0.029      348.206       27.730      862.255
07/04/2014  20:16:00     -301.473      -59.114       -8.507      185.081      148.389      101.319    34255.110    22019.344    10265.525        8.049        3.327      307.214       90.906        0.088      348.203       27.724      862.258
07/04/2014  20:17:00     -478.756     -138.746      -43.662      213.663      177.617       96.199    45651.960    31547.842     9254.217       16.839        4.323      498.455       96.339        0.037      348.185       27.694      862.308
07/04/2014  20:18:00     -305.831      -54.560       -7.937      177.570      179.811       76.268    31531.062    32332.101     5816.836        8.311        3.484      310.659       72.322        0.054      348.153       27.638      862.319
07/04/2014  20:19:00     -301.409      -66.966      -32.175      220.478      128.473       85.051    48610.491    16505.235     7233.730        8.435        3.617      308.758      111.581        0.131      348.149       27.633      862.298
07/04/2014  20:20:00     -307.159      -70.135       -9.675      143.370      127.176       61.512    20554.850    16173.664     3783.759        6.993        2.026      315.064       43.659        0.019      348.116       27.574      862.267
07/04/2014  20:21:00     -418.654     -122.200      -18.354      227.717      123.553       82.600    51855.002    15265.273     6822.729       13.223        3.697      436.124       85.664        0.039      348.101       27.548      862.269
07/04/2014  20:22:00     -373.137     -133.361       -7.966      218.433      192.919       93.314    47712.908    37217.882     8707.420       12.534        4.682      396.253      101.532        0.066      348.079       27.509      862.282
07/04/2014  20:23:00     -510.011      -65.242      -25.710      216.161      149.026       90.154    46725.449    22208.723     8127.664       17.103        3.853      514.167       93.128        0.033      348.093       27.533      862.312
07/04/2014  20:24:00     -474.398      -42.352      -35.332      259.166      215.282      102.430    67166.857    46346.188    10491.884       17.603        6.200      476.285      113.649        0.057      348.080       27.509      862.291
07/04/2014  20:25:00     -509.826     -142.956      -22.063      260.742      189.696      102.165    67986.197    35984.489    10437.725       19.761        5.720      529.490       95.791        0.033      348.091       27.530      862.308
07/04/2014  20:26:00     -128.757      -77.720       19.237      148.446       92.055       58.354    22036.158     8474.079     3405.142        2.845        1.696      150.395       70.611        0.220      348.054       27.467      862.332
07/04/2014  20:27:00     -201.336      -43.308       11.503      143.400      112.210       65.351    20563.591    12591.080     4270.798        3.998        1.871      205.942       74.826        0.132      348.037       27.437      862.313
07/04/2014  20:28:00     -241.791     -128.561       11.189      166.309      159.881       84.903    27658.796    25561.873     7208.560        6.776        3.021      273.845       92.662        0.114      347.999       27.372      862.334
07/04/2014  20:29:00     -298.414     -128.496       -2.273      162.734      140.346       77.523    26482.256    19696.946     6009.881        7.887        2.609      324.903       73.866        0.052      348.001       27.374      862.348
07/04/2014  20:30:00     -494.799     -142.836       -6.280      303.902      193.972       99.053    92356.359    37625.007     9811.539       20.251        6.990      515.003      118.348        0.053      347.988       27.354      862.377
07/04/2014  20:31:00     -324.000     -114.945       -5.627      239.403      213.643      106.860    57313.581    45643.141    11419.101       11.628        5.719      343.786      131.787        0.147      347.985       27.348      862.383
07/04/2014  20:32:00     -360.224      -18.651      -10.486      200.578      136.415       80.862    40231.459    18609.151     6538.729        9.779        3.269      360.706       89.485        0.062      347.981       27.340      862.399
07/04/2014  20:33:00     -157.793      -96.217       12.763      164.914      145.747       75.854    27196.758    21242.298     5753.764        4.425        2.710      184.814       89.503        0.235      347.947       27.283      862.381
07/04/2014  20:34:00     -383.550     -190.739        8.475      190.322      149.787       81.850    36222.649    22436.282     6699.372       12.445        3.268      428.360       91.169        0.045      347.909       27.217      862.377
07/04/2014  20:35:00     -298.360     -238.963       13.930      232.695      188.541      114.607    54147.169    35547.770    13134.826       12.456        5.141      382.259      114.176        0.089      347.910       27.217      862.385
07/04/2014  20:36:00     -260.369     -189.845       10.522      227.949      174.652      104.690    51960.754    30503.381    10959.898        9.867        4.671      322.232      106.253        0.109      347.935       27.263      862.405
07/04/2014  20:37:00     -238.568     -135.004       -0.486      204.889      151.854       78.444    41979.445    23059.744     6153.488        7.315        3.560      274.118       95.892        0.122      347.908       27.216      862.436
07/04/2014  20:38:00     -391.116     -148.927      -13.924      238.142      154.392       86.788    56711.594    23836.763     7532.165       13.170        4.404      418.510      100.217        0.057      347.929       27.251      862.477
07/04/2014  20:39:00     -205.820     -147.973       12.321      194.001      142.789       67.398    37636.499    20388.699     4542.550        6.348        3.128      253.491       75.453        0.089      347.908       27.217      862.493
07/04/2014  20:40:00     -325.771     -217.983       -5.022      202.748      147.308       77.218    41106.679    21699.672     5962.680       11.121        3.438      391.974       78.743        0.040      347.915       27.227      862.487
07/04/2014  20:41:00     -308.189      -85.983       18.989      175.453      171.727       96.293    30783.836    29490.145     9272.247        8.613        3.477      319.959       84.569        0.070      347.865       27.141      862.474
07/04/2014  20:42:00     -470.729     -110.989      -24.284      283.586      170.616       99.729    80420.923    29109.845     9945.820       17.697        5.974      483.636      125.892        0.068      347.848       27.110      862.466
07/04/2014  20:43:00     -435.885     -167.540      -19.060      238.828      210.590      115.853    57038.882    44348.309    13421.817       16.660        5.740      466.975      143.155        0.094      347.862       27.135      862.427
07/04/2014  20:44:00     -377.276     -103.025      -16.022      229.888      214.042       98.496    52848.703    45813.987     9701.369       13.077        5.418      391.090      103.313        0.070      347.827       27.074      862.458
07/04/2014  20:45:00     -316.072     -172.258      -16.175      165.918      172.977       85.014    27528.714    29920.898     7227.323        9.725        3.234      359.964       85.846        0.057      347.825       27.071      862.451
07/04/2014  20:46:00     -248.506       -3.215       -2.800      112.670      107.158       68.566    12694.622    11482.759     4701.330        4.532        1.444      248.526       56.200        0.051      347.767       26.971      862.457
07/04/2014  20:47:00     -556.383     -160.890      -24.003      278.620      188.664      101.808    77628.826    35594.247    10364.844       22.978        6.179      579.178      108.450        0.035      347.788       27.007      862.416
07/04/2014  20:48:00     -518.140      -97.076      -18.565      249.515      204.007      101.413    62257.546    41619.006    10284.694       19.618        5.708      527.155       99.118        0.035      347.759       26.957      862.380
07/04/2014  20:49:00     -466.152     -144.028      -15.798      218.178      188.092       94.765    47601.446    35378.500     8980.404       16.511        4.598      487.895       77.925        0.026      347.800       27.028      862.442
07/04/2014  20:50:00     -264.324      -64.756       20.129      250.889      146.701       97.252    62945.324    21521.330     9457.887        8.418        4.696      272.141      113.260        0.173      347.771       26.980      862.463
07/04/2014  20:51:00     -363.196      -43.901       -3.114      195.595      169.474       91.068    38257.429    28721.595     8293.338       10.455        3.764      365.840       92.966        0.065      347.737       26.919      862.486
07/04/2014  20:52:00     -460.309     -217.927      -10.469      292.770      190.985      106.627    85714.170    36475.440    11369.248       19.650        6.678      509.290      133.160        0.068      347.765       26.967      862.508
07/04/2014  20:53:00     -215.787      -41.172       19.805      201.576      156.513      105.045    40632.784    24496.393    11034.457        6.239        3.808      219.680      110.471        0.253      347.759       26.958      862.473
07/04/2014  20:54:00     -436.903     -131.975      -25.161      224.903      164.870       88.883    50581.398    27181.979     7900.274       14.729        4.283      456.401       96.505        0.045      347.742       26.928      862.511
07/04/2014  20:55:00     -521.441     -158.819      -18.075      304.211      214.300      123.103    92544.293    45924.669    15154.360       22.551        7.681      545.091      145.628        0.071      347.743       26.931      862.466
07/04/2014  20:56:00     -223.440     -124.727       10.604      213.670      170.314       96.303    45654.746    29006.749     9274.208        7.475        4.197      255.895      113.357        0.196      347.716       26.885      862.486
07/04/2014  20:57:00     -670.299     -322.499      -31.922      286.980      223.321      113.832    82357.326    49872.278    12957.786       34.973        7.259      743.845      134.257        0.033      347.768       26.973      862.463
07/04/2014  20:58:00     -334.692     -195.584       -4.452      186.931      152.722       93.404    34943.148    23323.927     8724.399       10.863        3.350      387.648       98.265        0.064      347.730       26.908      862.478
07/04/2014  20:59:00     -561.372      -75.538      -39.424      306.790      178.161       90.472    94119.903    31741.286     8185.208       22.820        6.702      566.431       98.224        0.030      347.731       26.909      862.488
07/04/2014  21:00:00     -422.046     -195.721       -5.951      258.021      159.830      111.844    66575.064    25545.638    12509.006       16.053        5.231      465.220      127.518        0.075      347.693       26.842      862.509
07/04/2014  21:01:00     -441.963     -154.783      -14.295      250.677      153.365       84.124    62839.115    23520.929     7076.914       15.645        4.672      468.283       98.406        0.044      347.679       26.819      862.546
07/04/2014  21:02:00     -178.544     -178.151       23.861      176.860      174.981       96.535    31279.296    30618.326     9319.082        6.769        3.561      252.222      109.597        0.189      347.635       26.743      862.591
07/04/2014  21:03:00     -430.578     -123.560      -13.585      226.685      154.979       89.559    51386.153    24018.566     8020.888       14.212        4.171      447.956       89.299        0.040      347.659       26.786      862.611
07/04/2014  21:04:00     -375.641     -174.693      -14.643      206.093      161.412       97.594    42474.441    26053.855     9524.613       12.493        3.903      414.275       94.374        0.052      347.645       26.762      862.655
07/04/2014  21:05:00     -577.825     -213.871      -20.958      274.255      237.673      129.474    75215.743    56488.655    16763.552       26.424        7.423      616.136      162.172        0.069      347.647       26.764      862.637
07/04/2014  21:06:00     -455.525     -112.149      -18.548      260.463      197.064       88.031    67840.999    38834.150     7749.444       16.741        5.721      469.128      104.917        0.050      347.646       26.762      862.705
07/04/2014  21:07:00     -319.747     -127.603       -2.760      253.163      195.771       97.098    64091.368    38326.420     9427.950       11.517        5.592      344.269      109.778        0.102      347.648       26.767      862.716
07/04/2014  21:08:00     -410.159      -78.293      -21.532      311.727      192.235      102.219    97173.522    36954.229    10448.738       15.968        7.229      417.565      130.399        0.098      347.587       26.663      862.705
07/04/2014  21:09:00     -393.488       -1.746       -8.056      194.638      162.452       93.142    37883.951    26390.709     8675.384       11.391        3.648      393.492       97.973        0.062      347.551       26.599      862.713
07/04/2014  21:10:00     -361.944     -145.573      -22.281      205.252      151.517       76.462    42128.400    22957.462     5846.371       11.180        3.547      390.122       77.813        0.040      347.554       26.603      862.696
07/04/2014  21:11:00     -414.800     -193.330      -14.805      233.908      262.871       81.388    54712.861    69101.120     6624.013       17.002        6.522      457.641      100.822        0.049      347.611       26.704      862.720
07/04/2014  21:12:00     -361.684     -216.751      -10.775      198.767      185.668       84.005    39508.323    34472.446     7056.756       12.946        4.052      421.659      101.853        0.058      347.601       26.685      862.754
07/04/2014  21:13:00     -170.202      -30.341        7.453      210.037      126.173       80.293    44115.597    15919.731     6446.927        4.820        3.324      172.886       93.768        0.294      347.553       26.604      862.796
07/04/2014  21:14:00     -280.758      -46.258       18.314      221.652      151.957       98.198    49129.767    23090.957     9642.855        8.157        4.093      284.543      114.718        0.163      347.520       26.546      862.740
07/04/2014  21:15:00     -469.447     -169.706        9.448      265.290      187.622      109.077    70378.726    35201.834    11897.688       18.335        5.874      499.179      127.314        0.065      347.511       26.529      862.773
07/04/2014  21:16:00     -420.787     -235.995      -12.822      208.506      204.981      109.245    43474.744    42017.009    11934.551       16.516        4.871      482.447      109.714        0.052      347.523       26.550      862.855
07/04/2014  21:17:00     -361.610     -212.559       -5.410      207.023      155.602       97.420    42858.459    24211.975     9490.560       12.625        3.828      419.455      105.777        0.064      347.502       26.515      862.901
07/04/2014  21:18:00     -157.858     -169.293        2.929      137.858      137.113       75.453    19004.908    18800.101     5693.132        4.854        2.175      231.471       67.969        0.086      347.481       26.478      862.923
07/04/2014  21:19:00     -581.692      -24.298      -61.112      256.518      145.635       92.742    65801.648    21209.451     8601.108       21.914        4.781      582.199      108.093        0.034      347.495       26.503      862.911
07/04/2014  21:20:00     -386.996     -242.515        5.296      251.854      181.141      103.710    63430.469    32812.179    10755.692       15.778        5.350      456.705      127.888        0.078      347.454       26.433      862.958
07/04/2014  21:21:00     -261.254     -130.743       -6.853      196.831      131.049       77.014    38742.274    17173.955     5931.120        7.361        3.092      292.142       74.557        0.065      347.469       26.456      862.973
07/04/2014  21:22:00     -191.743      -44.344        3.071      147.650      103.343       69.372    21800.551    10679.773     4812.413        3.801        1.865      196.804       73.565        0.140      347.440       26.408      862.987
07/04/2014  21:23:00     -290.878      -84.744      -29.295      145.739      117.712       63.567    21239.887    13856.149     4040.721        6.589        1.957      302.972       55.985        0.034      347.443       26.411      862.975
07/04/2014  21:24:00     -451.663     -195.407      -30.478      222.953      170.247       84.339    49707.858    28984.003     7113.044       16.444        4.290      492.122       98.623        0.040      347.426       26.382      862.978
07/04/2014  21:25:00     -343.613     -107.167       -9.139      185.733      141.499       72.372    34496.786    20021.876     5237.647        9.469        2.988      359.937       63.694        0.031      347.425       26.379      863.000
07/04/2014  21:26:00     -427.277      -59.041      -26.782      209.275      134.028       65.477    43796.112    17963.388     4287.262       12.640        3.302      431.337       61.836        0.021      347.413       26.361      862.920
07/04/2014  21:27:00     -435.319     -163.353       -5.932      216.266      185.071       87.604    46770.801    34251.346     7674.530       15.244        4.435      464.959       92.297        0.039      347.397       26.333      862.967
07/04/2014  21:28:00     -488.166     -135.933      -25.238      210.843      174.486       93.666    44454.858    30445.269     8773.398       17.053        4.184      506.739      101.389        0.040      347.417       26.367      863.045
07/04/2014  21:29:00     -501.048     -155.067      -30.160      210.524      195.484      101.325    44320.540    38213.912    10266.766       18.439        4.640      524.495       98.695        0.035      347.413       26.359      863.066
07/04/2014  21:30:00     -652.107     -233.491      -50.836      266.770      273.865      122.994    71166.269    75002.172    15127.467       32.179        8.065      692.648      140.529        0.041      347.465       26.450      863.118
07/04/2014  21:31:00     -338.025     -112.195        5.909      190.666      193.385       88.968    36353.575    37397.915     7915.292       10.426        4.083      356.158       90.101        0.064      347.433       26.393      863.173
07/04/2014  21:32:00     -463.636     -144.937      -15.144      286.874      173.463       88.747    82296.661    30089.427     7876.017       17.821        6.013      485.762      116.159        0.057      347.399       26.336      863.150
07/04/2014  21:33:00     -488.913     -128.595      -12.953      233.553      187.619       92.916    54547.173    35200.984     8633.450       17.704        4.919      505.542      105.461        0.044      347.357       26.263      863.128
07/04/2014  21:34:00     -433.152      -55.025      -21.015      215.302      180.628       93.896    46355.111    32626.621     8816.386       13.943        4.390      436.633       98.771        0.051      347.344       26.242      863.167
07/04/2014  21:35:00     -523.458     -180.448      -46.124      188.867      201.145       84.690    35670.606    40459.457     7172.388       19.599        4.165      553.687       64.662        0.014      347.361       26.270      863.122
07/04/2014  21:36:00     -399.077     -145.073      -15.374      257.255      162.647       94.825    66180.069    26454.143     8991.728       14.107        5.081      424.628      128.414        0.091      347.294       26.155      863.160
07/04/2014  21:37:00     -347.319     -139.846       -5.266      222.375      131.733       87.738    49450.562    17353.640     7698.027       10.735        3.725      374.416      103.537        0.076      347.303       26.171      863.273
07/04/2014  21:38:00     -274.424      -79.606       -5.987      135.457      159.133       64.180    18348.536    25323.292     4119.094        6.473        2.390      285.737       59.683        0.044      347.329       26.216      863.291
07/04/2014  21:39:00     -141.455      -48.290       -8.177       69.556       85.388       42.064     4838.016     7291.051     1769.398        1.815        0.695      149.471       39.490        0.070      347.311       26.188      863.234
07/04/2014  21:40:00     -404.030     -243.485      -25.691      261.799      217.563      122.857    68538.874    47333.855    15093.753       17.705        6.548      471.726      142.612        0.091      347.269       26.113      863.248
07/04/2014  21:41:00     -492.735     -167.030      -22.520      258.141      210.089      112.878    66636.610    44137.277    12741.365       19.733        6.176      520.276      123.045        0.056      347.299       26.164      863.263
07/04/2014  21:42:00     -485.254     -157.118      -14.891      268.228      184.859       98.310    71946.213    34172.735     9664.830       18.806        5.789      510.056      132.140        0.067      347.343       26.241      863.329
07/04/2014  21:43:00     -523.007      -51.801      -22.225      172.510      186.122       93.143    29759.860    34641.333     8675.652       17.488        3.654      525.566       88.772        0.029      347.302       26.169      863.330
07/04/2014  21:44:00     -495.248     -142.216      -11.903      283.700      190.184       97.826    80485.757    36170.019     9570.010       19.591        6.311      515.263      126.828        0.061      347.307       26.178      863.379
07/04/2014  21:45:00     -287.529      -12.507       -6.767      154.657      118.398       66.346    23918.879    14018.151     4401.770        6.260        2.117      287.801       79.503        0.076      347.280       26.132      863.360
07/04/2014  21:46:00     -330.041     -177.711       -7.645      156.414      175.832       77.228    24465.419    30916.876     5964.091       10.095        3.067      374.844       84.269        0.051      347.259       26.096      863.356
07/04/2014  21:47:00     -184.224      -61.714        9.867      159.788      122.604       70.211    25532.263    15031.684     4929.528        4.166        2.275      194.286       91.664        0.223      347.181       25.962      863.384
07/04/2014  21:48:00     -216.088     -103.824       11.875      141.954      150.284       84.430    20151.058    22585.342     7128.398        5.373        2.493      239.736       82.400        0.118      347.193       25.983      863.426
07/04/2014  21:49:00     -281.400       13.680      -21.133      115.401      116.683       55.580    13317.305    13614.846     3089.144        5.492        1.501      281.732       47.007        0.028      347.199       25.992      863.439
07/04/2014  21:50:00     -376.192      -76.171      -42.005      204.630      130.883       71.130    41873.559    17130.453     5059.500       10.656        3.203      383.826       79.342        0.043      347.216       26.021      863.342
07/04/2014  21:51:00     -280.875     -116.510       11.902      181.958      101.370       72.884    33108.773    10275.842     5312.084        7.064        2.435      304.081       91.934        0.091      347.170       25.942      863.389
07/04/2014  21:52:00     -426.692     -108.084      -22.006      231.859      155.303       82.219    53758.740    24119.048     6760.026       13.942        4.232      440.169       94.428        0.046      347.194       25.984      863.406
07/04/2014  21:53:00     -551.070      -38.111      -20.932      185.329      159.670       78.090    34347.001    25494.380     6098.091       18.574        3.297      552.386       77.803        0.020      347.192       25.981      863.430
07/04/2014  21:54:00     -304.923      -27.778      -11.990      171.201      131.255       68.987    29309.661    17227.892     4759.221        7.259        2.565      306.185       73.294        0.057      347.175       25.952      863.452
07/04/2014  21:55:00     -238.720      -82.102        7.491      141.394      122.151       64.751    19992.270    14920.943     4192.744        5.144        1.955      252.444       63.546        0.063      347.159       25.924      863.427
07/04/2014  21:56:00     -265.582      -73.765       -0.870      153.135       86.345       62.409    23450.442     7455.526     3894.851        5.538        1.740      275.636       74.789        0.074      347.142       25.895      863.390
07/04/2014  21:57:00     -294.385     -129.841        3.086      197.769      150.318       72.124    39112.487    22595.373     5201.815        8.521        3.345      321.747       83.751        0.068      347.094       25.810      863.399
07/04/2014  21:58:00     -413.422     -220.892       -4.708      252.429      208.305      126.618    63720.562    43391.107    16032.105       17.142        6.157      468.733      129.780        0.077      347.142       25.894      863.415
07/04/2014  21:59:00     -490.342     -105.121      -32.764      257.529      172.515       99.950    66321.133    29761.540     9989.924       17.930        5.304      501.483      132.234        0.070      347.186       25.971      863.456
07/04/2014  22:00:00     -494.351      -64.753      -35.632      119.931      156.072       61.915    14383.539    24358.374     3833.456       14.620        2.129      498.574       58.332        0.014      347.230       26.045      863.458
07/04/2014  22:01:00     -493.791      -64.812      -29.426      227.114      148.873       83.343    51580.874    22163.252     6946.083       16.478        4.035      498.027       99.943        0.040      347.171       25.944      863.458
07/04/2014  22:02:00     -338.396     -196.001       10.373      231.006      199.550      108.902    53363.567    39820.140    11859.541       12.902        5.252      391.060      123.009        0.099      347.133       25.878      863.414
07/04/2014  22:03:00     -357.778     -193.871        0.306      304.561      192.913      116.210    92757.668    37215.597    13504.816       15.451        7.174      406.929      148.147        0.133      347.147       25.903      863.479
07/04/2014  22:04:00     -438.083     -179.854      -31.495      228.239      203.169      103.465    52092.904    41277.731    10704.996       16.465        5.204      473.565       96.319        0.041      347.171       25.944      863.539
07/04/2014  22:05:00     -474.477      -12.859      -22.547      195.922      144.361       87.691    38385.561    20840.202     7689.687       14.635        3.346      474.652       90.800        0.037      347.169       25.940      863.583
07/04/2014  22:06:00     -533.808      -69.166      -26.780      238.093      179.625       79.181    56688.045    32265.011     6269.619       19.282        4.761      538.270       81.850        0.023      347.175       25.951      863.596
07/04/2014  22:07:00     -324.747     -101.599      -20.950      196.330      105.509       83.170    38545.621    11132.106     6917.227        8.640        2.830      340.269       95.954        0.080      347.122       25.859      863.612
07/04/2014  22:08:00     -360.197      -81.797      -10.175      177.873      141.522       73.661    31638.814    20028.450     5425.893        9.680        2.855      369.368       68.411        0.034      347.109       25.837      863.557
07/04/2014  22:09:00     -412.767      -55.407      -10.561      168.538      137.668       80.594    28405.057    18952.421     6495.371       11.370        2.693      416.469       84.733        0.041      347.044       25.724      863.560
07/04/2014  22:10:00     -304.854     -106.157        6.628      226.199      228.457       92.506    51166.039    52192.613     8557.399       10.806        5.596      322.808       93.763        0.084      347.026       25.694      863.595
07/04/2014  22:11:00     -654.092      -52.218      -38.872      257.224      199.973      104.222    66164.384    39989.311    10862.236       27.453        5.851      656.173      100.034        0.023      347.134       25.879      863.637
07/04/2014  22:12:00     -408.230     -115.157      -22.077      230.740      176.203       87.469    53240.877    31047.454     7650.756       13.615        4.597      424.161       92.337        0.047      347.130       25.872      863.673
07/04/2014  22:13:00     -129.706     -136.606       19.666      129.133       95.681       74.333    16675.214     9154.838     5525.403        3.361        1.568      188.374       75.171        0.159      347.118       25.853      863.694
07/04/2014  22:14:00     -111.185      -63.719        8.017       74.603       75.198       38.747     5565.600     5654.748     1501.340        1.460        0.636      128.149       40.132        0.098      347.095       25.815      863.654
07/04/2014  22:15:00     -178.415      -52.966        1.134      182.631       77.554       52.709    33354.240     6014.566     2778.219        3.839        2.107      186.111       67.985        0.133      347.055       25.744      863.655
07/04/2014  22:16:00     -229.792      -63.308      -19.576      212.327      100.777       71.414    45082.795    10155.937     5099.936        5.876        3.017      238.353       83.448        0.123      346.994       25.638      863.660
07/04/2014  22:17:00     -432.579     -118.172        2.218      212.165      182.090       94.259    45013.915    33156.611     8884.683       14.406        4.353      448.430      121.111        0.073      346.991       25.634      863.647
07/04/2014  22:18:00     -426.804     -132.378      -19.071      162.873      169.390       83.114    26527.634    28692.982     6907.873       13.108        3.106      446.862       86.022        0.037      347.047       25.730      863.654
07/04/2014  22:19:00     -312.880     -123.418       -0.862      255.250      165.786       88.091    65152.360    27485.058     7759.995       10.675        5.020      336.342      115.283        0.117      347.016       25.677      863.638
07/04/2014  22:20:00     -362.500     -115.225       -3.008      167.157      150.405       72.120    27941.393    22621.642     5201.301       10.022        2.788      380.372       77.156        0.041      346.974       25.605      863.672
07/04/2014  22:21:00     -435.128     -146.654      -21.417      209.919      197.259       87.072    44066.191    38911.220     7581.450       15.092        4.528      459.177       91.799        0.040      347.027       25.695      863.693
07/04/2014  22:22:00     -262.710     -119.953       -3.292      138.714      115.571       60.321    19241.518    13356.743     3638.596        5.982        1.812      288.799       48.749        0.028      346.984       25.622      863.721
07/04/2014  22:23:00     -275.506      -85.314       -2.707      156.057      140.050       62.198    24353.905    19613.883     3868.597        6.550        2.392      288.412       56.034        0.038      346.974       25.603      863.724
07/04/2014  22:24:00     -412.466     -211.995      -16.875      249.996      146.895       81.941    62497.825    21578.221     6714.370       15.306        4.540      463.756       93.780        0.041      346.983       25.619      863.720
07/04/2014  22:25:00     -189.274      -14.081       14.464      181.041      155.499       82.962    32775.963    24179.832     6882.735        5.002        3.192      189.797       99.220        0.273      346.925       25.520      863.722
07/04/2014  22:26:00     -256.135      -15.657      -15.110      193.781      132.666       52.222    37551.108    17600.362     2727.095        6.197        2.894      256.613       39.683        0.024      346.967       25.594      863.739
07/04/2014  22:27:00     -215.577      -24.742        9.666      202.178       93.816       62.348    40876.013     8801.416     3887.241        5.036        2.678      216.993       74.458        0.118      346.911       25.497      863.731
07/04/2014  22:28:00     -566.020      -66.400      -42.998      190.787      156.547       83.308    36399.677    24507.015     6940.236       19.723        3.392      569.901       93.937        0.027      347.051       25.735      863.740
07/04/2014  22:29:00     -412.093      -65.288      -21.323      177.832      107.105       68.826    31624.276    11471.401     4736.995       11.118        2.392      417.232       81.103        0.038      346.956       25.573      863.745
07/04/2014  22:30:00     -279.282       12.848       -2.093      177.998      136.646       81.402    31683.119    18672.042     6626.309        6.757        2.849      279.578       77.376        0.077      346.911       25.497      863.728
07/04/2014  22:31:00     -371.751       13.606      -12.536      230.066      220.147       88.130    52930.364    48464.613     7766.867       12.383        5.458      372.000       99.487        0.072      346.922       25.515      863.735
07/04/2014  22:32:00     -194.955      -63.976       -0.755      175.427      114.036       75.644    30774.591    13004.115     5721.967        4.579        2.475      205.184       82.546        0.162      346.889       25.458      863.741
07/04/2014  22:33:00     -403.894     -139.203       -8.714      181.674      175.357       91.159    33005.388    30750.128     8309.896       12.731        3.603      427.210       97.487        0.052      346.906       25.486      863.756
07/04/2014  22:34:00     -385.401     -174.134      -21.091      155.449      128.096       71.259    24164.545    16408.613     5077.821       11.247        2.283      422.914       60.947        0.021      346.973       25.602      863.779
07/04/2014  22:35:00     -442.506      -98.502       -9.438      150.232      124.618       62.973    22569.586    15529.632     3965.551       12.383        2.103      453.337       66.094        0.021      346.928       25.522      863.804
07/04/2014  22:36:00     -359.011      -86.305      -21.656      119.967      122.957       55.695    14392.193    15118.417     3101.878        8.470        1.631      369.239       55.767        0.023      346.932       25.532      863.820
07/04/2014  22:37:00     -426.114     -113.983      -18.261      161.938      104.276       61.940    26223.881    10873.522     3836.580       11.791        2.047      441.096       61.326        0.019      346.932       25.532      863.802
07/04/2014  22:38:00     -319.693      -59.487       -8.009      167.595       99.909       79.871    28088.031     9981.757     6379.412        7.512        2.222      325.180       84.492        0.068      346.886       25.453      863.794
07/04/2014  22:39:00     -222.874      -15.182        1.683      117.009      111.584       52.830    13691.213    12451.073     2790.992        3.941        1.447      223.390       57.281        0.066      346.826       25.351      863.805
07/04/2014  22:40:00     -344.825      -38.125      -23.240      149.157      124.642       64.078    22247.699    15535.538     4105.997        8.139        2.094      346.927       63.789        0.034      346.864       25.414      863.814
07/04/2014  22:41:00     -517.145        6.690      -25.178      221.657      140.836       79.888    49131.980    19834.734     6382.129       17.172        3.767      517.188       98.813        0.037      346.915       25.504      863.813
07/04/2014  22:42:00     -306.059      -33.621       -7.865      155.711      165.957       68.740    24245.874    27541.656     4725.150        7.568        2.826      307.900       76.171        0.061      346.862       25.412      863.832
07/04/2014  22:43:00     -447.331     -137.163      -36.354      192.891      165.496       80.527    37207.114    27388.969     6484.661       14.565        3.554      467.887       90.387        0.037      346.918       25.507      863.865
07/04/2014  22:44:00     -304.581     -106.183       -6.608      194.622      147.039       87.324    37877.783    21620.446     7625.477        8.559        3.356      322.560       84.899        0.069      346.873       25.430      863.859
07/04/2014  22:45:00     -370.636      -11.320       -1.075      214.103      141.121       84.954    45840.271    19915.270     7217.207       10.522        3.649      370.809       99.340        0.072      346.840       25.374      863.884
07/04/2014  22:46:00     -352.433      -54.535      -26.060      197.803      113.837       69.374    39125.945    12958.779     4812.696        9.237        2.845      356.628       86.085        0.058      346.849       25.388      863.894
07/04/2014  22:47:00     -172.462      -75.674       12.659      161.773      110.999       71.393    26170.646    12320.704     5096.967        3.960        2.179      188.333       86.194        0.209      346.796       25.300      863.889
07/04/2014  22:48:00     -170.084       23.557       12.148      101.410      100.941       58.886    10284.084    10189.104     3467.510        2.678        1.197      171.708       53.359        0.097      346.782       25.275      863.895
07/04/2014  22:49:00     -180.476      -71.495       -6.445       97.488       69.534       35.842     9503.875     4834.929     1284.614        2.667        0.781      194.121       31.235        0.026      346.806       25.315      863.901
07/04/2014  22:50:00     -240.940       -0.054      -22.945      110.194       76.069       50.873    12142.658     5786.501     2588.040        3.954        1.026      240.940       43.454        0.033      346.778       25.266      863.888
07/04/2014  22:51:00     -360.307      -64.478       -4.704      148.961      104.601       58.675    22189.436    10941.312     3442.731        8.528        1.829      366.031       62.939        0.030      346.743       25.206      863.873
07/04/2014  22:52:00     -335.536     -155.494      -30.339      163.227      132.321       73.010    26643.198    17508.971     5330.412        9.357        2.474      369.815       84.275        0.052      346.772       25.257      863.861
07/04/2014  22:53:00     -274.951      -77.250      -10.435      169.274      107.967       55.686    28653.751    11656.890     3100.885        6.254        2.171      285.597       76.403        0.072      346.673       25.087      863.873
07/04/2014  22:54:00     -232.136      -62.059        4.205      156.097      119.571       62.124    24366.391    14297.272     3859.442        5.013        2.126      240.288       71.365        0.088      346.666       25.074      863.884
07/04/2014  22:55:00     -381.121      -68.291      -21.338      157.237      108.256       66.873    24723.420    11719.331     4471.987        9.564        2.046      387.191       73.727        0.036      346.720       25.167      863.905
07/04/2014  22:56:00     -284.414      -23.353       -1.915      139.802       93.830       61.203    19544.509     8804.055     3745.766        5.676        1.605      285.371       67.333        0.056      346.714       25.155      863.911
07/04/2014  22:57:00     -253.511      -23.429       -6.943      119.115       94.532       56.948    14188.448     8936.257     3243.029        4.561        1.318      254.591       55.532        0.048      346.652       25.050      863.928
07/04/2014  22:58:00     -232.481       -7.008      -10.235      138.448       66.818       46.137    19167.874     4464.641     2128.600        3.998        1.288      232.587       62.633        0.073      346.646       25.040      863.935
07/04/2014  22:59:00     -109.154      -25.315        2.385      100.975       58.163       33.865    10195.854     3382.911     1146.820        1.364        0.736      112.051       33.212        0.088      346.528       24.840      863.932
07/04/2014  23:00:00     -272.988      -51.674      -22.711      147.126       84.143       45.517    21645.937     7080.003     2071.818        5.425        1.540      277.836       68.402        0.061      346.636       25.024      863.948
07/04/2014  23:01:00     -128.368      -65.954       15.376      155.928       78.333       61.434    24313.456     6136.079     3774.178        2.764        1.711      144.320       80.430        0.311      346.592       24.949      863.967
07/04/2014  23:02:00     -325.645      -78.652        3.675      168.495      158.159       73.686    28390.694    25014.332     5429.650        8.553        2.942      335.009       68.644        0.042      346.718       25.164      863.962
07/04/2014  23:03:00     -198.380       27.582       -6.572      113.800       88.158       47.145    12950.524     7771.827     2222.669        3.155        1.147      200.289       47.180        0.055      346.703       25.138      863.956
07/04/2014  23:04:00     -146.745      -49.615        7.315      118.978       69.925       36.969    14155.793     4889.575     1366.737        2.223        1.021      154.906       48.475        0.098      346.592       24.949      863.952
07/04/2014  23:05:00     -271.070     -182.373       -7.595      153.684       94.488       73.045    23618.833     8927.920     5335.559        7.233        1.894      326.709       63.841        0.038      346.681       25.101      863.953
07/04/2014  23:06:00     -178.835      -35.864        6.607      115.668       95.310       52.681    13379.032     9083.926     2775.285        2.927        1.262      182.396       59.101        0.105      346.627       25.008      863.977
07/04/2014  23:07:00     -232.255      -91.916       11.122      201.760      112.370       63.492    40706.913    12627.108     4031.188        5.993        2.868      249.782       75.351        0.091      346.681       25.100      863.977
07/04/2014  23:08:00     -288.195      -26.114      -27.375      138.544      109.665       62.552    19194.408    12026.339     3912.807        5.980        1.757      289.376       69.708        0.058      346.740       25.201      863.986
07/04/2014  23:09:00     -300.033      -15.612      -15.794      150.499      130.201       67.584    22649.879    16952.345     4567.597        6.733        2.208      300.439       71.214        0.056      346.703       25.137      864.000
07/04/2014  23:10:00     -269.446     -115.282      -16.908      119.387      124.873       60.397    14253.367    15593.249     3647.789        5.983        1.675      293.072       49.083        0.028      346.730       25.185      864.019
07/04/2014  23:11:00     -235.680      -73.266       13.073      133.029      100.196       66.617    17696.759    10039.284     4437.818        4.662        1.609      246.805       65.333        0.070      346.695       25.124      864.044
07/04/2014  23:12:00     -271.882      -96.077       -3.352      159.014      112.913       67.117    25285.304    12749.371     4504.678        6.284        2.127      288.359       76.459        0.070      346.689       25.114      864.059
07/04/2014  23:13:00     -216.369      -33.432       -0.619       98.636       82.894       42.124     9728.964     6871.373     1774.465        3.315        0.919      218.937       45.847        0.044      346.636       25.022      864.086
07/04/2014  23:14:00     -146.508      -39.087       10.873      131.824       80.162       49.775    17377.450     6425.945     2477.595        2.469        1.314      151.632       57.868        0.146      346.541       24.861      864.100
07/04/2014  23:15:00     -273.325      -52.201        2.837      130.138      105.091       69.287    16935.790    11044.020     4800.706        5.510        1.639      278.266       66.792        0.058      346.611       24.981      864.107
07/04/2014  23:16:00     -232.157      -69.138       -3.050      139.884      106.741       56.724    19567.645    11393.703     3217.607        4.643        1.709      242.233       67.533        0.078      346.595       24.951      864.114
07/04/2014  23:17:00     -318.357      -96.556      -18.134      130.561      107.455       52.130    17046.181    11546.615     2717.567        7.115        1.566      332.677       59.352        0.032      346.696       25.126      864.136
07/04/2014  23:18:00     -163.889      -63.407      -15.087      103.073       75.098       49.738    10624.072     5639.666     2473.910        2.492        0.937      175.727       22.003        0.016      346.616       24.991      864.137
07/04/2014  23:19:00     -228.447      -43.758       13.342      169.233       87.440       65.172    28639.706     7645.710     4247.373        4.740        2.027      232.600       80.226        0.119      346.625       25.005      864.147
07/04/2014  23:20:00     -336.220      -26.129      -28.050      126.752      110.934       60.949    16066.067    12306.320     3714.728        7.329        1.604      337.234       68.069        0.041      346.672       25.084      864.142
07/04/2014  23:21:00     -275.637      -67.779      -19.152      121.047      109.549       55.391    14652.258    12001.008     3068.123        5.532        1.486      283.848       48.197        0.029      346.638       25.026      864.106
07/04/2014  23:22:00     -184.084      -64.644       11.592      109.103       92.408       63.383    11903.495     8539.146     4017.420        3.133        1.223      195.104       48.625        0.062      346.568       24.906      864.118
07/04/2014  23:23:00     -193.281        5.935       -8.662      129.393       69.021       48.795    16742.556     4763.873     2380.905        3.067        1.194      193.372       55.965        0.084      346.525       24.832      864.140
07/04/2014  23:24:00     -147.166       -9.564      -10.057       82.211       57.097       39.665     6758.727     3260.064     1573.305        1.672        0.580      147.476       40.942        0.077      346.506       24.801      864.141
07/04/2014  23:25:00     -142.771      -49.969       12.579      106.558       92.383       56.604    11354.628     8534.666     3204.003        2.306        1.155      151.263       60.840        0.162      346.518       24.822      864.123
07/04/2014  23:26:00     -234.080      -83.974        0.167      143.768      117.415       69.941    20669.249    13786.277     4891.676        5.059        1.967      248.686       71.670        0.083      346.584       24.933      864.118
07/04/2014  23:27:00     -368.213     -107.471       -3.322      185.827      143.824       77.936    34531.629    20685.266     6074.026       10.421        3.065      383.577       86.802        0.051      346.648       25.045      864.115
07/04/2014  23:28:00     -394.574      -41.071      -20.847      116.741      100.358       63.040    13628.519    10071.703     3974.075        9.274        1.384      396.706       63.792        0.026      346.585       24.935      864.131
07/04/2014  23:29:00     -308.804      -45.652       -5.171      121.687      103.085       67.583    14807.654    10626.527     4567.502        6.373        1.500      312.160       66.236        0.045      346.633       25.018      864.143
07/04/2014  23:30:00     -240.043      -22.613      -10.124      123.232       67.598       46.984    15186.110     4569.470     2207.483        4.009        1.098      241.105       58.611        0.059      346.619       24.994      864.137
07/04/2014  23:31:00     -265.579      -57.668       -7.615      129.500      101.490       61.312    16770.223    10300.290     3759.104        5.237        1.541      271.768       57.940        0.045      346.622       24.998      864.122
07/04/2014  23:32:00     -173.067      -78.151       -0.323       96.085       69.224       45.299     9232.303     4792.015     2052.007        2.607        0.804      189.894       45.283        0.057      346.529       24.839      864.139
07/04/2014  23:33:00     -226.913      -54.092       -0.056      106.354       79.474       48.238    11311.202     6316.161     2326.915        3.718        0.998      233.271       49.579        0.045      346.561       24.893      864.150
07/04/2014  23:34:00     -297.413      -67.483       -2.839      108.501       83.822       51.908    11772.535     7026.084     2694.412        5.725        1.075      304.973       60.687        0.040      346.599       24.960      864.146
07/04/2014  23:35:00     -215.502      -52.783      -13.330       59.922       54.043       32.599     3590.688     2920.695     1062.675        2.849        0.379      221.872       31.865        0.021      346.562       24.896      864.143
07/04/2014  23:36:00     -190.233      -70.606       -2.841      120.205       83.370       44.990    14449.122     6950.548     2024.123        3.230        1.171      202.913       62.626        0.095      346.471       24.742      864.139
07/04/2014  23:37:00     -201.487      -25.779        8.336      103.268       83.056       59.930    10664.330     6898.317     3591.594        3.124        1.058      203.129       56.327        0.077      346.504       24.797      864.148
07/04/2014  23:38:00     -402.865      -90.128      -22.089      174.211      133.480       75.103    30349.359    17816.952     5640.517       11.235        2.690      412.823       85.896        0.043      346.634       25.019      864.134
07/04/2014  23:39:00     -262.594      -54.440       -4.175       91.591      100.125       63.820     8388.967    10025.059     4073.009        4.721        1.124      268.178       56.952        0.045      346.587       24.939      864.128
07/04/2014  23:40:00     -239.261      -83.471      -10.205      102.629       82.691       48.386    10532.631     6837.806     2341.170        4.201        0.986      253.403       44.090        0.030      346.599       24.959      864.118
07/04/2014  23:41:00     -231.081     -132.925       -6.891      157.874       97.373       66.097    24924.214     9481.407     4368.837        5.494        1.939      266.585       73.033        0.075      346.533       24.846      864.116
07/04/2014  23:42:00     -183.841      -12.885        8.982      102.014       78.875       54.007    10406.889     6221.303     2916.721        2.679        0.977      184.292       56.266        0.093      346.477       24.749      864.123
07/04/2014  23:43:00     -224.626      -56.491       -3.757      115.463       77.324       56.610    13331.618     5978.988     3204.701        3.808        1.126      231.620       52.899        0.052      346.431       24.671      864.115
07/04/2014  23:44:00     -371.139      -40.381      -20.869      150.096      101.534       68.019    22528.707    10309.087     4626.617        8.863        1.873      373.329       68.238        0.033      346.603       24.964      864.115
07/04/2014  23:45:00     -243.769      -42.742       -3.490       91.209       95.989       49.200     8319.059     9213.976     2420.682        4.060        0.998      247.488       50.014        0.041      346.512       24.809      864.116
07/04/2014  23:46:00     -274.322      -87.167       -0.337      166.764       93.613       66.722    27810.273     8763.436     4451.775        6.193        2.051      287.838       68.320        0.056      346.556       24.885      864.117
07/04/2014  23:47:00     -422.146      -66.510      -32.290      155.704       91.770       65.739    24243.826     8421.763     4321.572       11.032        1.849      427.353       80.315        0.035      346.695       25.124      864.126
07/04/2014  23:48:00     -274.032     -100.187      -16.523      148.772      135.669       67.139    22133.096    18406.047     4507.678        6.522        2.252      291.772       77.423        0.070      346.642       25.032      864.139
07/04/2014  23:49:00     -351.987     -209.445       -9.893      163.281      166.660       94.972    26660.845    27775.675     9019.751       11.565        3.173      409.588       86.332        0.044      346.726       25.176      864.098
07/04/2014  23:50:00     -292.633     -125.156       -4.114      146.426       93.902       68.605    21440.611     8817.599     4706.597        6.813        1.748      318.274       70.992        0.050      346.637       25.024      864.131
07/04/2014  23:51:00     -202.611     -114.353       -9.676      117.464      105.203       44.945    13797.776    11067.697     2020.055        4.055        1.344      232.654       41.319        0.032      346.587       24.939      864.142
07/04/2014  23:52:00     -217.352      -65.459        3.895      105.081       96.207       60.211    11042.058     9255.769     3625.383        3.773        1.196      226.995       59.767        0.069      346.516       24.817      864.157
07/04/2014  23:53:00     -291.853      -96.277      -17.451      115.729      120.032       57.331    13393.160    14407.766     3286.793        6.291        1.554      307.323       51.341        0.028      346.570       24.908      864.144
07/04/2014  23:54:00     -130.761      -43.061       11.197       90.500       87.986       46.830     8190.232     7741.578     2193.095        1.860        0.906      137.669       50.896        0.137      346.411       24.638      864.162
07/04/2014  23:55:00     -239.229      -12.384      -14.539       78.605       89.211       45.416     6178.806     7958.566     2062.620        3.689        0.810      239.550       42.778        0.032      346.420       24.652      864.167
07/04/2014  23:56:00     -258.608      -49.048       -6.389      128.385       78.095       60.146    16482.815     6098.872     3617.595        4.776        1.310      263.218       63.546        0.058      346.458       24.716      864.155
07/04/2014  23:57:00     -224.223      -73.780       -2.125      150.865      104.269       60.406    22760.144    10872.020     3648.831        4.650        1.864      236.050       69.505        0.087      346.464       24.727      864.161
07/04/2014  23:58:00     -243.886     -130.988      -13.175      126.388      106.046       59.200    15973.802    11245.711     3504.620        5.376        1.536      276.836       63.547        0.053      346.578       24.923      864.158
07/04/2014  23:59:00     -315.650      -56.595      -17.800      101.373       94.337       53.407    10276.497     8899.479     2852.324        6.259        1.101      320.683       52.396        0.027      346.525       24.830      864.180
